<?xml version="1.0" encoding="UTF-8" standalone="no"?><gpx version="1.1" creator="Colorado 300" xmlns:xsi="http://www.w3.org/2001/XMLSchema-instance" xmlns="http://www.topografix.com/GPX/1/1"  xmlns:gpxtpx="http://www.garmin.com/xmlschemas/TrackPointExtension/v1" xmlns:gpxx="http://www.garmin.com/xmlschemas/GpxExtensions/v3" xsi:schemaLocation="http://www.topografix.com/GPX/1/1 http://www.topografix.com/GPX/1/1/gpx.xsd http://www.garmin.com/xmlschemas/GpxExtensions/v3 http://www.garmin.com/xmlschemas/GpxExtensionsv3.xsd http://www.garmin.com/xmlschemas/TrackPointExtension/v1 http://www.garmin.com/xmlschemas/TrackPointExtensionv1.xsd"> <author>Xisco Xavier Jaume</author> <email>xiscox@xmtb.es</email> <url>http://www.xmtb.es</url> <urlname>Xisco Mountain Bike</urlname><time>2012-09-29T19:08:46Z</time><trk><name>Manacor, son Macia, Fangar, Felanitx, Sant Salvador, Fangar, Cala Antena, Cala Magraner, Cami des Presos</name><trkseg><trkpt lat="39.564395" lon="3.216672"><ele>84.25</ele><time>2012-09-29T06:50:18Z</time></trkpt>
<trkpt lat="39.564387" lon="3.216620"><ele>84.25</ele><time>2012-09-29T06:50:19Z</time></trkpt>
<trkpt lat="39.564244" lon="3.216418"><ele>84.25</ele><time>2012-09-29T06:50:24Z</time></trkpt>
<trkpt lat="39.564198" lon="3.216413"><ele>84.25</ele><time>2012-09-29T06:50:25Z</time></trkpt>
<trkpt lat="39.564109" lon="3.216403"><ele>84.25</ele><time>2012-09-29T06:50:27Z</time></trkpt>
<trkpt lat="39.563933" lon="3.216251"><ele>84.25</ele><time>2012-09-29T06:50:32Z</time></trkpt>
<trkpt lat="39.563754" lon="3.215752"><ele>85.21</ele><time>2012-09-29T06:50:43Z</time></trkpt>
<trkpt lat="39.563568" lon="3.215283"><ele>85.69</ele><time>2012-09-29T06:50:54Z</time></trkpt>
<trkpt lat="39.563479" lon="3.215028"><ele>86.18</ele><time>2012-09-29T06:51:00Z</time></trkpt>
<trkpt lat="39.563400" lon="3.214808"><ele>86.18</ele><time>2012-09-29T06:51:05Z</time></trkpt>
<trkpt lat="39.563242" lon="3.214370"><ele>86.18</ele><time>2012-09-29T06:51:14Z</time></trkpt>
<trkpt lat="39.563078" lon="3.213918"><ele>86.18</ele><time>2012-09-29T06:51:23Z</time></trkpt>
<trkpt lat="39.562912" lon="3.213492"><ele>87.62</ele><time>2012-09-29T06:51:32Z</time></trkpt>
<trkpt lat="39.562755" lon="3.213117"><ele>89.06</ele><time>2012-09-29T06:51:41Z</time></trkpt>
<trkpt lat="39.562597" lon="3.212802"><ele>90.02</ele><time>2012-09-29T06:51:49Z</time></trkpt>
<trkpt lat="39.562454" lon="3.212770"><ele>90.02</ele><time>2012-09-29T06:51:53Z</time></trkpt>
<trkpt lat="39.562319" lon="3.212937"><ele>89.54</ele><time>2012-09-29T06:51:58Z</time></trkpt>
<trkpt lat="39.562275" lon="3.213014"><ele>90.02</ele><time>2012-09-29T06:52:00Z</time></trkpt>
<trkpt lat="39.561753" lon="3.213417"><ele>89.54</ele><time>2012-09-29T06:52:15Z</time></trkpt>
<trkpt lat="39.561276" lon="3.213819"><ele>90.02</ele><time>2012-09-29T06:52:29Z</time></trkpt>
<trkpt lat="39.560869" lon="3.214166"><ele>90.98</ele><time>2012-09-29T06:52:41Z</time></trkpt>
<trkpt lat="39.560341" lon="3.214700"><ele>92.90</ele><time>2012-09-29T06:52:58Z</time></trkpt>
<trkpt lat="39.559972" lon="3.215213"><ele>94.83</ele><time>2012-09-29T06:53:12Z</time></trkpt>
<trkpt lat="39.559598" lon="3.215809"><ele>96.75</ele><time>2012-09-29T06:53:27Z</time></trkpt>
<trkpt lat="39.559174" lon="3.216466"><ele>98.67</ele><time>2012-09-29T06:53:44Z</time></trkpt>
<trkpt lat="39.559115" lon="3.216544"><ele>98.67</ele><time>2012-09-29T06:53:46Z</time></trkpt>
<trkpt lat="39.558781" lon="3.217159"><ele>99.63</ele><time>2012-09-29T06:54:00Z</time></trkpt>
<trkpt lat="39.558669" lon="3.217393"><ele>100.11</ele><time>2012-09-29T06:54:05Z</time></trkpt>
<trkpt lat="39.558603" lon="3.217531"><ele>100.11</ele><time>2012-09-29T06:54:08Z</time></trkpt>
<trkpt lat="39.558113" lon="3.218304"><ele>100.60</ele><time>2012-09-29T06:54:26Z</time></trkpt>
<trkpt lat="39.557723" lon="3.218700"><ele>101.56</ele><time>2012-09-29T06:54:38Z</time></trkpt>
<trkpt lat="39.557294" lon="3.218993"><ele>103.00</ele><time>2012-09-29T06:54:50Z</time></trkpt>
<trkpt lat="39.556807" lon="3.219245"><ele>104.92</ele><time>2012-09-29T06:55:03Z</time></trkpt>
<trkpt lat="39.556402" lon="3.219500"><ele>107.32</ele><time>2012-09-29T06:55:15Z</time></trkpt>
<trkpt lat="39.555962" lon="3.219870"><ele>110.21</ele><time>2012-09-29T06:55:29Z</time></trkpt>
<trkpt lat="39.555510" lon="3.220339"><ele>112.61</ele><time>2012-09-29T06:55:44Z</time></trkpt>
<trkpt lat="39.555184" lon="3.220848"><ele>115.01</ele><time>2012-09-29T06:55:57Z</time></trkpt>
<trkpt lat="39.554857" lon="3.221454"><ele>115.01</ele><time>2012-09-29T06:56:10Z</time></trkpt>
<trkpt lat="39.554602" lon="3.221908"><ele>114.53</ele><time>2012-09-29T06:56:19Z</time></trkpt>
<trkpt lat="39.554169" lon="3.222441"><ele>113.57</ele><time>2012-09-29T06:56:30Z</time></trkpt>
<trkpt lat="39.553479" lon="3.223172"><ele>114.05</ele><time>2012-09-29T06:56:47Z</time></trkpt>
<trkpt lat="39.552886" lon="3.223811"><ele>114.53</ele><time>2012-09-29T06:57:02Z</time></trkpt>
<trkpt lat="39.552118" lon="3.224615"><ele>113.09</ele><time>2012-09-29T06:57:20Z</time></trkpt>
<trkpt lat="39.551458" lon="3.225291"><ele>113.57</ele><time>2012-09-29T06:57:36Z</time></trkpt>
<trkpt lat="39.550827" lon="3.225797"><ele>115.01</ele><time>2012-09-29T06:57:51Z</time></trkpt>
<trkpt lat="39.550046" lon="3.226326"><ele>115.98</ele><time>2012-09-29T06:58:09Z</time></trkpt>
<trkpt lat="39.549177" lon="3.226833"><ele>117.42</ele><time>2012-09-29T06:58:28Z</time></trkpt>
<trkpt lat="39.548499" lon="3.227233"><ele>117.90</ele><time>2012-09-29T06:58:42Z</time></trkpt>
<trkpt lat="39.547659" lon="3.227655"><ele>117.42</ele><time>2012-09-29T06:58:59Z</time></trkpt>
<trkpt lat="39.546978" lon="3.227833"><ele>119.34</ele><time>2012-09-29T06:59:13Z</time></trkpt>
<trkpt lat="39.546080" lon="3.228003"><ele>122.22</ele><time>2012-09-29T06:59:33Z</time></trkpt>
<trkpt lat="39.545410" lon="3.228130"><ele>123.67</ele><time>2012-09-29T06:59:47Z</time></trkpt>
<trkpt lat="39.544769" lon="3.228334"><ele>125.59</ele><time>2012-09-29T07:00:01Z</time></trkpt>
<trkpt lat="39.544245" lon="3.228598"><ele>128.47</ele><time>2012-09-29T07:00:14Z</time></trkpt>
<trkpt lat="39.543654" lon="3.229033"><ele>129.92</ele><time>2012-09-29T07:00:29Z</time></trkpt>
<trkpt lat="39.543150" lon="3.229532"><ele>128.95</ele><time>2012-09-29T07:00:41Z</time></trkpt>
<trkpt lat="39.542732" lon="3.230075"><ele>126.55</ele><time>2012-09-29T07:00:50Z</time></trkpt>
<trkpt lat="39.542279" lon="3.230784"><ele>123.67</ele><time>2012-09-29T07:01:00Z</time></trkpt>
<trkpt lat="39.541897" lon="3.231392"><ele>122.71</ele><time>2012-09-29T07:01:10Z</time></trkpt>
<trkpt lat="39.541726" lon="3.231446"><ele>123.19</ele><time>2012-09-29T07:01:14Z</time></trkpt>
<trkpt lat="39.541609" lon="3.231394"><ele>123.19</ele><time>2012-09-29T07:01:17Z</time></trkpt>
<trkpt lat="39.541435" lon="3.231378"><ele>123.19</ele><time>2012-09-29T07:01:21Z</time></trkpt>
<trkpt lat="39.541211" lon="3.231300"><ele>123.19</ele><time>2012-09-29T07:01:26Z</time></trkpt>
<trkpt lat="39.540689" lon="3.231041"><ele>123.67</ele><time>2012-09-29T07:01:38Z</time></trkpt>
<trkpt lat="39.540476" lon="3.230915"><ele>123.67</ele><time>2012-09-29T07:01:43Z</time></trkpt>
<trkpt lat="39.540302" lon="3.230875"><ele>124.15</ele><time>2012-09-29T07:01:47Z</time></trkpt>
<trkpt lat="39.540170" lon="3.230843"><ele>124.63</ele><time>2012-09-29T07:01:50Z</time></trkpt>
<trkpt lat="39.539903" lon="3.230660"><ele>125.59</ele><time>2012-09-29T07:01:57Z</time></trkpt>
<trkpt lat="39.539747" lon="3.230541"><ele>126.07</ele><time>2012-09-29T07:02:01Z</time></trkpt>
<trkpt lat="39.539566" lon="3.230531"><ele>126.07</ele><time>2012-09-29T07:02:05Z</time></trkpt>
<trkpt lat="39.539178" lon="3.230715"><ele>128.47</ele><time>2012-09-29T07:02:15Z</time></trkpt>
<trkpt lat="39.538650" lon="3.231031"><ele>129.92</ele><time>2012-09-29T07:02:28Z</time></trkpt>
<trkpt lat="39.538284" lon="3.231209"><ele>130.40</ele><time>2012-09-29T07:02:38Z</time></trkpt>
<trkpt lat="39.537977" lon="3.231365"><ele>130.88</ele><time>2012-09-29T07:02:47Z</time></trkpt>
<trkpt lat="39.537671" lon="3.231472"><ele>131.36</ele><time>2012-09-29T07:02:55Z</time></trkpt>
<trkpt lat="39.537544" lon="3.231508"><ele>131.36</ele><time>2012-09-29T07:02:58Z</time></trkpt>
<trkpt lat="39.537121" lon="3.231672"><ele>131.84</ele><time>2012-09-29T07:03:08Z</time></trkpt>
<trkpt lat="39.536661" lon="3.231896"><ele>133.28</ele><time>2012-09-29T07:03:19Z</time></trkpt>
<trkpt lat="39.536335" lon="3.231990"><ele>133.76</ele><time>2012-09-29T07:03:27Z</time></trkpt>
<trkpt lat="39.535804" lon="3.232101"><ele>134.72</ele><time>2012-09-29T07:03:39Z</time></trkpt>
<trkpt lat="39.535370" lon="3.232184"><ele>136.64</ele><time>2012-09-29T07:03:49Z</time></trkpt>
<trkpt lat="39.535054" lon="3.232392"><ele>139.05</ele><time>2012-09-29T07:03:58Z</time></trkpt>
<trkpt lat="39.534746" lon="3.232588"><ele>141.45</ele><time>2012-09-29T07:04:07Z</time></trkpt>
<trkpt lat="39.534408" lon="3.232681"><ele>143.85</ele><time>2012-09-29T07:04:17Z</time></trkpt>
<trkpt lat="39.533865" lon="3.232881"><ele>145.30</ele><time>2012-09-29T07:04:32Z</time></trkpt>
<trkpt lat="39.533565" lon="3.232919"><ele>145.78</ele><time>2012-09-29T07:04:40Z</time></trkpt>
<trkpt lat="39.533117" lon="3.233015"><ele>147.22</ele><time>2012-09-29T07:04:52Z</time></trkpt>
<trkpt lat="39.532616" lon="3.233099"><ele>149.62</ele><time>2012-09-29T07:05:06Z</time></trkpt>
<trkpt lat="39.532218" lon="3.233077"><ele>151.06</ele><time>2012-09-29T07:05:17Z</time></trkpt>
<trkpt lat="39.531881" lon="3.233030"><ele>151.54</ele><time>2012-09-29T07:05:26Z</time></trkpt>
<trkpt lat="39.531550" lon="3.232951"><ele>152.99</ele><time>2012-09-29T07:05:35Z</time></trkpt>
<trkpt lat="39.531287" lon="3.232951"><ele>154.43</ele><time>2012-09-29T07:05:42Z</time></trkpt>
<trkpt lat="39.531001" lon="3.232938"><ele>156.35</ele><time>2012-09-29T07:05:50Z</time></trkpt>
<trkpt lat="39.530721" lon="3.232986"><ele>156.83</ele><time>2012-09-29T07:05:58Z</time></trkpt>
<trkpt lat="39.530423" lon="3.233196"><ele>156.83</ele><time>2012-09-29T07:06:07Z</time></trkpt>
<trkpt lat="39.530117" lon="3.233472"><ele>158.75</ele><time>2012-09-29T07:06:18Z</time></trkpt>
<trkpt lat="39.529885" lon="3.233756"><ele>159.72</ele><time>2012-09-29T07:06:27Z</time></trkpt>
<trkpt lat="39.529614" lon="3.234086"><ele>160.20</ele><time>2012-09-29T07:06:37Z</time></trkpt>
<trkpt lat="39.529367" lon="3.234365"><ele>160.68</ele><time>2012-09-29T07:06:46Z</time></trkpt>
<trkpt lat="39.529134" lon="3.234548"><ele>161.64</ele><time>2012-09-29T07:06:53Z</time></trkpt>
<trkpt lat="39.528851" lon="3.234703"><ele>162.12</ele><time>2012-09-29T07:07:00Z</time></trkpt>
<trkpt lat="39.528489" lon="3.234770"><ele>162.60</ele><time>2012-09-29T07:07:09Z</time></trkpt>
<trkpt lat="39.528155" lon="3.234851"><ele>162.60</ele><time>2012-09-29T07:07:17Z</time></trkpt>
<trkpt lat="39.527658" lon="3.234947"><ele>163.08</ele><time>2012-09-29T07:07:28Z</time></trkpt>
<trkpt lat="39.527339" lon="3.234986"><ele>165.00</ele><time>2012-09-29T07:07:36Z</time></trkpt>
<trkpt lat="39.526899" lon="3.235106"><ele>167.41</ele><time>2012-09-29T07:07:48Z</time></trkpt>
<trkpt lat="39.526600" lon="3.235283"><ele>168.37</ele><time>2012-09-29T07:07:56Z</time></trkpt>
<trkpt lat="39.526172" lon="3.235608"><ele>170.29</ele><time>2012-09-29T07:08:09Z</time></trkpt>
<trkpt lat="39.525847" lon="3.235803"><ele>170.29</ele><time>2012-09-29T07:08:17Z</time></trkpt>
<trkpt lat="39.525516" lon="3.236006"><ele>170.29</ele><time>2012-09-29T07:08:25Z</time></trkpt>
<trkpt lat="39.525244" lon="3.236262"><ele>171.25</ele><time>2012-09-29T07:08:33Z</time></trkpt>
<trkpt lat="39.525209" lon="3.236267"><ele>171.73</ele><time>2012-09-29T07:08:34Z</time></trkpt>
<trkpt lat="39.524913" lon="3.236130"><ele>175.10</ele><time>2012-09-29T07:08:44Z</time></trkpt>
<trkpt lat="39.524670" lon="3.235967"><ele>176.54</ele><time>2012-09-29T07:08:53Z</time></trkpt>
<trkpt lat="39.524481" lon="3.235855"><ele>176.06</ele><time>2012-09-29T07:08:59Z</time></trkpt>
<trkpt lat="39.524290" lon="3.235701"><ele>177.02</ele><time>2012-09-29T07:09:07Z</time></trkpt>
<trkpt lat="39.524163" lon="3.235614"><ele>178.94</ele><time>2012-09-29T07:09:15Z</time></trkpt>
<trkpt lat="39.524149" lon="3.235600"><ele>179.42</ele><time>2012-09-29T07:09:16Z</time></trkpt>
<trkpt lat="39.524053" lon="3.235518"><ele>180.87</ele><time>2012-09-29T07:09:22Z</time></trkpt>
<trkpt lat="39.523936" lon="3.235446"><ele>182.79</ele><time>2012-09-29T07:09:29Z</time></trkpt>
<trkpt lat="39.523773" lon="3.235352"><ele>185.19</ele><time>2012-09-29T07:09:39Z</time></trkpt>
<trkpt lat="39.523640" lon="3.235258"><ele>187.11</ele><time>2012-09-29T07:09:47Z</time></trkpt>
<trkpt lat="39.523506" lon="3.235173"><ele>189.52</ele><time>2012-09-29T07:09:56Z</time></trkpt>
<trkpt lat="39.523378" lon="3.235087"><ele>191.92</ele><time>2012-09-29T07:10:04Z</time></trkpt>
<trkpt lat="39.523273" lon="3.235047"><ele>193.36</ele><time>2012-09-29T07:10:12Z</time></trkpt>
<trkpt lat="39.523085" lon="3.235068"><ele>197.21</ele><time>2012-09-29T07:10:24Z</time></trkpt>
<trkpt lat="39.522945" lon="3.235088"><ele>199.13</ele><time>2012-09-29T07:10:34Z</time></trkpt>
<trkpt lat="39.522831" lon="3.235083"><ele>200.09</ele><time>2012-09-29T07:10:41Z</time></trkpt>
<trkpt lat="39.522751" lon="3.235058"><ele>202.01</ele><time>2012-09-29T07:10:47Z</time></trkpt>
<trkpt lat="39.522697" lon="3.235048"><ele>202.98</ele><time>2012-09-29T07:10:50Z</time></trkpt>
<trkpt lat="39.522600" lon="3.234942"><ele>204.90</ele><time>2012-09-29T07:11:01Z</time></trkpt>
<trkpt lat="39.522469" lon="3.234784"><ele>207.78</ele><time>2012-09-29T07:11:14Z</time></trkpt>
<trkpt lat="39.522453" lon="3.234765"><ele>207.78</ele><time>2012-09-29T07:11:16Z</time></trkpt>
<trkpt lat="39.522368" lon="3.234670"><ele>209.70</ele><time>2012-09-29T07:11:24Z</time></trkpt>
<trkpt lat="39.522287" lon="3.234584"><ele>210.67</ele><time>2012-09-29T07:11:32Z</time></trkpt>
<trkpt lat="39.522194" lon="3.234482"><ele>213.07</ele><time>2012-09-29T07:11:41Z</time></trkpt>
<trkpt lat="39.522026" lon="3.234360"><ele>215.47</ele><time>2012-09-29T07:11:54Z</time></trkpt>
<trkpt lat="39.521896" lon="3.234261"><ele>217.88</ele><time>2012-09-29T07:12:05Z</time></trkpt>
<trkpt lat="39.521766" lon="3.234183"><ele>220.28</ele><time>2012-09-29T07:12:15Z</time></trkpt>
<trkpt lat="39.521659" lon="3.234102"><ele>222.68</ele><time>2012-09-29T07:12:25Z</time></trkpt>
<trkpt lat="39.521517" lon="3.234007"><ele>225.09</ele><time>2012-09-29T07:12:36Z</time></trkpt>
<trkpt lat="39.521348" lon="3.233972"><ele>227.49</ele><time>2012-09-29T07:12:48Z</time></trkpt>
<trkpt lat="39.521185" lon="3.233958"><ele>228.93</ele><time>2012-09-29T07:12:58Z</time></trkpt>
<trkpt lat="39.520931" lon="3.233925"><ele>231.33</ele><time>2012-09-29T07:13:12Z</time></trkpt>
<trkpt lat="39.520876" lon="3.233912"><ele>231.81</ele><time>2012-09-29T07:13:15Z</time></trkpt>
<trkpt lat="39.520816" lon="3.233860"><ele>232.30</ele><time>2012-09-29T07:13:19Z</time></trkpt>
<trkpt lat="39.520641" lon="3.233750"><ele>234.70</ele><time>2012-09-29T07:13:31Z</time></trkpt>
<trkpt lat="39.520613" lon="3.233723"><ele>235.18</ele><time>2012-09-29T07:13:33Z</time></trkpt>
<trkpt lat="39.520536" lon="3.233676"><ele>236.14</ele><time>2012-09-29T07:13:38Z</time></trkpt>
<trkpt lat="39.520307" lon="3.233747"><ele>238.54</ele><time>2012-09-29T07:13:50Z</time></trkpt>
<trkpt lat="39.520074" lon="3.233889"><ele>240.95</ele><time>2012-09-29T07:14:01Z</time></trkpt>
<trkpt lat="39.519998" lon="3.233939"><ele>241.43</ele><time>2012-09-29T07:14:05Z</time></trkpt>
<trkpt lat="39.519886" lon="3.233968"><ele>241.43</ele><time>2012-09-29T07:14:14Z</time></trkpt>
<trkpt lat="39.519803" lon="3.233938"><ele>241.43</ele><time>2012-09-29T07:16:23Z</time></trkpt>
<trkpt lat="39.519742" lon="3.233908"><ele>240.47</ele><time>2012-09-29T07:16:25Z</time></trkpt>
<trkpt lat="39.519586" lon="3.233590"><ele>237.10</ele><time>2012-09-29T07:16:31Z</time></trkpt>
<trkpt lat="39.519511" lon="3.233439"><ele>236.14</ele><time>2012-09-29T07:16:33Z</time></trkpt>
<trkpt lat="39.519478" lon="3.233354"><ele>235.18</ele><time>2012-09-29T07:16:34Z</time></trkpt>
<trkpt lat="39.519335" lon="3.233119"><ele>233.26</ele><time>2012-09-29T07:16:37Z</time></trkpt>
<trkpt lat="39.519099" lon="3.232787"><ele>231.33</ele><time>2012-09-29T07:16:41Z</time></trkpt>
<trkpt lat="39.518813" lon="3.232500"><ele>227.49</ele><time>2012-09-29T07:16:45Z</time></trkpt>
<trkpt lat="39.518591" lon="3.232281"><ele>224.12</ele><time>2012-09-29T07:16:48Z</time></trkpt>
<trkpt lat="39.518350" lon="3.232076"><ele>220.76</ele><time>2012-09-29T07:16:51Z</time></trkpt>
<trkpt lat="39.518117" lon="3.231846"><ele>215.95</ele><time>2012-09-29T07:16:54Z</time></trkpt>
<trkpt lat="39.517970" lon="3.231716"><ele>213.55</ele><time>2012-09-29T07:16:56Z</time></trkpt>
<trkpt lat="39.517621" lon="3.231553"><ele>208.74</ele><time>2012-09-29T07:17:00Z</time></trkpt>
<trkpt lat="39.517296" lon="3.231503"><ele>204.42</ele><time>2012-09-29T07:17:03Z</time></trkpt>
<trkpt lat="39.516967" lon="3.231457"><ele>200.09</ele><time>2012-09-29T07:17:06Z</time></trkpt>
<trkpt lat="39.516760" lon="3.231418"><ele>197.69</ele><time>2012-09-29T07:17:08Z</time></trkpt>
<trkpt lat="39.516553" lon="3.231247"><ele>192.88</ele><time>2012-09-29T07:17:12Z</time></trkpt>
<trkpt lat="39.516476" lon="3.230994"><ele>190.96</ele><time>2012-09-29T07:17:16Z</time></trkpt>
<trkpt lat="39.516199" lon="3.230632"><ele>187.11</ele><time>2012-09-29T07:17:21Z</time></trkpt>
<trkpt lat="39.516022" lon="3.230321"><ele>183.75</ele><time>2012-09-29T07:17:24Z</time></trkpt>
<trkpt lat="39.515697" lon="3.229823"><ele>180.38</ele><time>2012-09-29T07:17:29Z</time></trkpt>
<trkpt lat="39.515634" lon="3.229735"><ele>179.90</ele><time>2012-09-29T07:17:30Z</time></trkpt>
<trkpt lat="39.515435" lon="3.229429"><ele>176.54</ele><time>2012-09-29T07:17:34Z</time></trkpt>
<trkpt lat="39.515302" lon="3.229227"><ele>175.58</ele><time>2012-09-29T07:17:37Z</time></trkpt>
<trkpt lat="39.515124" lon="3.228898"><ele>174.14</ele><time>2012-09-29T07:17:45Z</time></trkpt>
<trkpt lat="39.515144" lon="3.228719"><ele>173.66</ele><time>2012-09-29T07:17:51Z</time></trkpt>
<trkpt lat="39.515298" lon="3.228447"><ele>173.66</ele><time>2012-09-29T07:17:59Z</time></trkpt>
<trkpt lat="39.515518" lon="3.227997"><ele>172.69</ele><time>2012-09-29T07:18:09Z</time></trkpt>
<trkpt lat="39.515671" lon="3.227701"><ele>172.21</ele><time>2012-09-29T07:18:15Z</time></trkpt>
<trkpt lat="39.515711" lon="3.227429"><ele>171.73</ele><time>2012-09-29T07:18:20Z</time></trkpt>
<trkpt lat="39.515648" lon="3.227145"><ele>171.25</ele><time>2012-09-29T07:18:26Z</time></trkpt>
<trkpt lat="39.515505" lon="3.226845"><ele>171.25</ele><time>2012-09-29T07:18:33Z</time></trkpt>
<trkpt lat="39.515333" lon="3.226341"><ele>169.81</ele><time>2012-09-29T07:18:42Z</time></trkpt>
<trkpt lat="39.515095" lon="3.225545"><ele>166.93</ele><time>2012-09-29T07:18:53Z</time></trkpt>
<trkpt lat="39.514853" lon="3.224769"><ele>165.48</ele><time>2012-09-29T07:19:04Z</time></trkpt>
<trkpt lat="39.514828" lon="3.224218"><ele>162.60</ele><time>2012-09-29T07:19:10Z</time></trkpt>
<trkpt lat="39.514983" lon="3.223712"><ele>162.12</ele><time>2012-09-29T07:19:16Z</time></trkpt>
<trkpt lat="39.515387" lon="3.223113"><ele>159.72</ele><time>2012-09-29T07:19:25Z</time></trkpt>
<trkpt lat="39.515638" lon="3.222721"><ele>158.27</ele><time>2012-09-29T07:19:31Z</time></trkpt>
<trkpt lat="39.515781" lon="3.222362"><ele>157.31</ele><time>2012-09-29T07:19:36Z</time></trkpt>
<trkpt lat="39.515758" lon="3.221992"><ele>156.35</ele><time>2012-09-29T07:19:41Z</time></trkpt>
<trkpt lat="39.515598" lon="3.221737"><ele>155.39</ele><time>2012-09-29T07:19:45Z</time></trkpt>
<trkpt lat="39.515342" lon="3.221442"><ele>153.95</ele><time>2012-09-29T07:19:50Z</time></trkpt>
<trkpt lat="39.514736" lon="3.220759"><ele>152.51</ele><time>2012-09-29T07:20:02Z</time></trkpt>
<trkpt lat="39.514389" lon="3.220442"><ele>153.47</ele><time>2012-09-29T07:20:10Z</time></trkpt>
<trkpt lat="39.514350" lon="3.220410"><ele>153.47</ele><time>2012-09-29T07:20:11Z</time></trkpt>
<trkpt lat="39.514016" lon="3.219949"><ele>150.58</ele><time>2012-09-29T07:20:21Z</time></trkpt>
<trkpt lat="39.513956" lon="3.219888"><ele>150.10</ele><time>2012-09-29T07:20:23Z</time></trkpt>
<trkpt lat="39.513822" lon="3.219921"><ele>150.10</ele><time>2012-09-29T07:20:27Z</time></trkpt>
<trkpt lat="39.513710" lon="3.220026"><ele>149.62</ele><time>2012-09-29T07:20:30Z</time></trkpt>
<trkpt lat="39.513510" lon="3.220055"><ele>148.18</ele><time>2012-09-29T07:20:34Z</time></trkpt>
<trkpt lat="39.513412" lon="3.219962"><ele>147.70</ele><time>2012-09-29T07:20:36Z</time></trkpt>
<trkpt lat="39.512832" lon="3.219340"><ele>145.78</ele><time>2012-09-29T07:20:48Z</time></trkpt>
<trkpt lat="39.512385" lon="3.218868"><ele>144.34</ele><time>2012-09-29T07:20:59Z</time></trkpt>
<trkpt lat="39.512038" lon="3.218452"><ele>143.37</ele><time>2012-09-29T07:21:08Z</time></trkpt>
<trkpt lat="39.511604" lon="3.217982"><ele>141.45</ele><time>2012-09-29T07:21:18Z</time></trkpt>
<trkpt lat="39.511193" lon="3.217517"><ele>139.05</ele><time>2012-09-29T07:21:27Z</time></trkpt>
<trkpt lat="39.511007" lon="3.217329"><ele>138.57</ele><time>2012-09-29T07:21:31Z</time></trkpt>
<trkpt lat="39.510429" lon="3.216898"><ele>137.13</ele><time>2012-09-29T07:21:42Z</time></trkpt>
<trkpt lat="39.510170" lon="3.216620"><ele>136.64</ele><time>2012-09-29T07:21:49Z</time></trkpt>
<trkpt lat="39.510112" lon="3.216557"><ele>136.64</ele><time>2012-09-29T07:21:51Z</time></trkpt>
<trkpt lat="39.509866" lon="3.216269"><ele>137.61</ele><time>2012-09-29T07:22:00Z</time></trkpt>
<trkpt lat="39.509575" lon="3.215902"><ele>139.53</ele><time>2012-09-29T07:22:12Z</time></trkpt>
<trkpt lat="39.509366" lon="3.215836"><ele>140.49</ele><time>2012-09-29T07:22:18Z</time></trkpt>
<trkpt lat="39.508952" lon="3.215670"><ele>142.41</ele><time>2012-09-29T07:22:31Z</time></trkpt>
<trkpt lat="39.508573" lon="3.215349"><ele>143.37</ele><time>2012-09-29T07:22:44Z</time></trkpt>
<trkpt lat="39.508467" lon="3.215280"><ele>143.37</ele><time>2012-09-29T07:22:47Z</time></trkpt>
<trkpt lat="39.508149" lon="3.215306"><ele>142.89</ele><time>2012-09-29T07:22:55Z</time></trkpt>
<trkpt lat="39.507640" lon="3.215420"><ele>142.89</ele><time>2012-09-29T07:23:07Z</time></trkpt>
<trkpt lat="39.507314" lon="3.215479"><ele>144.34</ele><time>2012-09-29T07:23:16Z</time></trkpt>
<trkpt lat="39.506989" lon="3.215560"><ele>146.26</ele><time>2012-09-29T07:23:27Z</time></trkpt>
<trkpt lat="39.506524" lon="3.215663"><ele>148.66</ele><time>2012-09-29T07:23:42Z</time></trkpt>
<trkpt lat="39.506012" lon="3.215766"><ele>151.06</ele><time>2012-09-29T07:23:58Z</time></trkpt>
<trkpt lat="39.505762" lon="3.215836"><ele>152.99</ele><time>2012-09-29T07:24:07Z</time></trkpt>
<trkpt lat="39.505517" lon="3.215873"><ele>154.43</ele><time>2012-09-29T07:24:15Z</time></trkpt>
<trkpt lat="39.505208" lon="3.215865"><ele>156.83</ele><time>2012-09-29T07:24:25Z</time></trkpt>
<trkpt lat="39.504947" lon="3.215755"><ele>159.72</ele><time>2012-09-29T07:24:35Z</time></trkpt>
<trkpt lat="39.504680" lon="3.215710"><ele>163.08</ele><time>2012-09-29T07:24:46Z</time></trkpt>
<trkpt lat="39.504446" lon="3.215564"><ele>165.48</ele><time>2012-09-29T07:24:57Z</time></trkpt>
<trkpt lat="39.504231" lon="3.215386"><ele>168.37</ele><time>2012-09-29T07:25:09Z</time></trkpt>
<trkpt lat="39.503989" lon="3.215149"><ele>171.25</ele><time>2012-09-29T07:25:23Z</time></trkpt>
<trkpt lat="39.503848" lon="3.214915"><ele>173.66</ele><time>2012-09-29T07:25:34Z</time></trkpt>
<trkpt lat="39.503660" lon="3.214608"><ele>176.06</ele><time>2012-09-29T07:25:47Z</time></trkpt>
<trkpt lat="39.503480" lon="3.214395"><ele>176.54</ele><time>2012-09-29T07:25:57Z</time></trkpt>
<trkpt lat="39.503396" lon="3.214301"><ele>176.06</ele><time>2012-09-29T07:26:04Z</time></trkpt>
<trkpt lat="39.503316" lon="3.214195"><ele>173.17</ele><time>2012-09-29T07:26:19Z</time></trkpt>
<trkpt lat="39.503314" lon="3.214196"><ele>173.66</ele><time>2012-09-29T07:26:20Z</time></trkpt>
<trkpt lat="39.503118" lon="3.214129"><ele>171.73</ele><time>2012-09-29T07:26:27Z</time></trkpt>
<trkpt lat="39.502865" lon="3.213998"><ele>167.89</ele><time>2012-09-29T07:26:32Z</time></trkpt>
<trkpt lat="39.502571" lon="3.213850"><ele>165.00</ele><time>2012-09-29T07:26:36Z</time></trkpt>
<trkpt lat="39.502493" lon="3.213807"><ele>164.52</ele><time>2012-09-29T07:26:37Z</time></trkpt>
<trkpt lat="39.501902" lon="3.213326"><ele>161.64</ele><time>2012-09-29T07:26:46Z</time></trkpt>
<trkpt lat="39.501846" lon="3.213281"><ele>161.64</ele><time>2012-09-29T07:26:47Z</time></trkpt>
<trkpt lat="39.501554" lon="3.213147"><ele>161.16</ele><time>2012-09-29T07:26:52Z</time></trkpt>
<trkpt lat="39.501360" lon="3.212973"><ele>160.68</ele><time>2012-09-29T07:26:56Z</time></trkpt>
<trkpt lat="39.501217" lon="3.212729"><ele>159.72</ele><time>2012-09-29T07:27:00Z</time></trkpt>
<trkpt lat="39.501012" lon="3.212470"><ele>160.20</ele><time>2012-09-29T07:27:05Z</time></trkpt>
<trkpt lat="39.500918" lon="3.212206"><ele>159.72</ele><time>2012-09-29T07:27:09Z</time></trkpt>
<trkpt lat="39.500894" lon="3.212080"><ele>159.72</ele><time>2012-09-29T07:27:11Z</time></trkpt>
<trkpt lat="39.500819" lon="3.211897"><ele>159.72</ele><time>2012-09-29T07:27:14Z</time></trkpt>
<trkpt lat="39.500624" lon="3.211589"><ele>159.72</ele><time>2012-09-29T07:27:21Z</time></trkpt>
<trkpt lat="39.500515" lon="3.211509"><ele>159.72</ele><time>2012-09-29T07:27:24Z</time></trkpt>
<trkpt lat="39.500379" lon="3.211435"><ele>159.24</ele><time>2012-09-29T07:27:27Z</time></trkpt>
<trkpt lat="39.500052" lon="3.211525"><ele>156.83</ele><time>2012-09-29T07:27:33Z</time></trkpt>
<trkpt lat="39.499501" lon="3.211741"><ele>154.43</ele><time>2012-09-29T07:27:41Z</time></trkpt>
<trkpt lat="39.498806" lon="3.211992"><ele>153.95</ele><time>2012-09-29T07:27:53Z</time></trkpt>
<trkpt lat="39.498342" lon="3.212092"><ele>154.91</ele><time>2012-09-29T07:28:02Z</time></trkpt>
<trkpt lat="39.497890" lon="3.212213"><ele>154.43</ele><time>2012-09-29T07:28:11Z</time></trkpt>
<trkpt lat="39.497743" lon="3.212109"><ele>154.43</ele><time>2012-09-29T07:28:15Z</time></trkpt>
<trkpt lat="39.497735" lon="3.212053"><ele>154.43</ele><time>2012-09-29T07:28:16Z</time></trkpt>
<trkpt lat="39.497714" lon="3.211728"><ele>154.43</ele><time>2012-09-29T07:28:21Z</time></trkpt>
<trkpt lat="39.497574" lon="3.211483"><ele>154.43</ele><time>2012-09-29T07:28:26Z</time></trkpt>
<trkpt lat="39.497391" lon="3.211474"><ele>154.91</ele><time>2012-09-29T07:28:30Z</time></trkpt>
<trkpt lat="39.497347" lon="3.211490"><ele>154.43</ele><time>2012-09-29T07:28:31Z</time></trkpt>
<trkpt lat="39.496835" lon="3.211552"><ele>155.39</ele><time>2012-09-29T07:28:42Z</time></trkpt>
<trkpt lat="39.496334" lon="3.211522"><ele>156.83</ele><time>2012-09-29T07:28:53Z</time></trkpt>
<trkpt lat="39.496081" lon="3.211504"><ele>158.27</ele><time>2012-09-29T07:29:00Z</time></trkpt>
<trkpt lat="39.495889" lon="3.211328"><ele>158.27</ele><time>2012-09-29T07:29:08Z</time></trkpt>
<trkpt lat="39.495696" lon="3.211295"><ele>157.79</ele><time>2012-09-29T07:29:14Z</time></trkpt>
<trkpt lat="39.495380" lon="3.211362"><ele>157.79</ele><time>2012-09-29T07:29:23Z</time></trkpt>
<trkpt lat="39.495103" lon="3.211375"><ele>157.31</ele><time>2012-09-29T07:29:30Z</time></trkpt>
<trkpt lat="39.494928" lon="3.211410"><ele>156.83</ele><time>2012-09-29T07:29:34Z</time></trkpt>
<trkpt lat="39.494671" lon="3.211388"><ele>156.35</ele><time>2012-09-29T07:29:39Z</time></trkpt>
<trkpt lat="39.494394" lon="3.211440"><ele>155.87</ele><time>2012-09-29T07:29:45Z</time></trkpt>
<trkpt lat="39.494209" lon="3.211394"><ele>155.39</ele><time>2012-09-29T07:29:49Z</time></trkpt>
<trkpt lat="39.494110" lon="3.211320"><ele>154.43</ele><time>2012-09-29T07:29:51Z</time></trkpt>
<trkpt lat="39.493895" lon="3.211199"><ele>153.47</ele><time>2012-09-29T07:29:55Z</time></trkpt>
<trkpt lat="39.493807" lon="3.211132"><ele>152.51</ele><time>2012-09-29T07:29:57Z</time></trkpt>
<trkpt lat="39.493594" lon="3.211152"><ele>152.51</ele><time>2012-09-29T07:30:01Z</time></trkpt>
<trkpt lat="39.493490" lon="3.211197"><ele>152.03</ele><time>2012-09-29T07:30:03Z</time></trkpt>
<trkpt lat="39.493176" lon="3.211273"><ele>149.62</ele><time>2012-09-29T07:30:08Z</time></trkpt>
<trkpt lat="39.493035" lon="3.211263"><ele>148.66</ele><time>2012-09-29T07:30:10Z</time></trkpt>
<trkpt lat="39.492634" lon="3.211027"><ele>147.22</ele><time>2012-09-29T07:30:17Z</time></trkpt>
<trkpt lat="39.492538" lon="3.210942"><ele>146.74</ele><time>2012-09-29T07:30:19Z</time></trkpt>
<trkpt lat="39.492258" lon="3.210905"><ele>145.78</ele><time>2012-09-29T07:30:25Z</time></trkpt>
<trkpt lat="39.492038" lon="3.210970"><ele>146.74</ele><time>2012-09-29T07:30:30Z</time></trkpt>
<trkpt lat="39.491660" lon="3.211021"><ele>145.78</ele><time>2012-09-29T07:30:38Z</time></trkpt>
<trkpt lat="39.490943" lon="3.210970"><ele>144.34</ele><time>2012-09-29T07:30:50Z</time></trkpt>
<trkpt lat="39.490354" lon="3.210915"><ele>144.34</ele><time>2012-09-29T07:31:00Z</time></trkpt>
<trkpt lat="39.489868" lon="3.210859"><ele>143.85</ele><time>2012-09-29T07:31:09Z</time></trkpt>
<trkpt lat="39.489559" lon="3.210832"><ele>143.37</ele><time>2012-09-29T07:31:15Z</time></trkpt>
<trkpt lat="39.489231" lon="3.210936"><ele>143.85</ele><time>2012-09-29T07:31:22Z</time></trkpt>
<trkpt lat="39.488871" lon="3.211059"><ele>144.82</ele><time>2012-09-29T07:31:30Z</time></trkpt>
<trkpt lat="39.488615" lon="3.211211"><ele>146.26</ele><time>2012-09-29T07:31:37Z</time></trkpt>
<trkpt lat="39.488354" lon="3.211396"><ele>150.10</ele><time>2012-09-29T07:31:45Z</time></trkpt>
<trkpt lat="39.488317" lon="3.211397"><ele>150.10</ele><time>2012-09-29T07:31:46Z</time></trkpt>
<trkpt lat="39.488184" lon="3.211245"><ele>150.58</ele><time>2012-09-29T07:31:51Z</time></trkpt>
<trkpt lat="39.488104" lon="3.211098"><ele>149.62</ele><time>2012-09-29T07:31:55Z</time></trkpt>
<trkpt lat="39.488028" lon="3.211033"><ele>148.66</ele><time>2012-09-29T07:31:57Z</time></trkpt>
<trkpt lat="39.487864" lon="3.210761"><ele>147.70</ele><time>2012-09-29T07:32:02Z</time></trkpt>
<trkpt lat="39.487811" lon="3.210561"><ele>146.74</ele><time>2012-09-29T07:32:05Z</time></trkpt>
<trkpt lat="39.487734" lon="3.210380"><ele>146.26</ele><time>2012-09-29T07:32:08Z</time></trkpt>
<trkpt lat="39.487602" lon="3.209876"><ele>143.85</ele><time>2012-09-29T07:32:15Z</time></trkpt>
<trkpt lat="39.487523" lon="3.209332"><ele>141.45</ele><time>2012-09-29T07:32:21Z</time></trkpt>
<trkpt lat="39.487482" lon="3.209177"><ele>140.97</ele><time>2012-09-29T07:32:23Z</time></trkpt>
<trkpt lat="39.487159" lon="3.208501"><ele>138.57</ele><time>2012-09-29T07:32:33Z</time></trkpt>
<trkpt lat="39.486977" lon="3.208080"><ele>136.64</ele><time>2012-09-29T07:32:39Z</time></trkpt>
<trkpt lat="39.486815" lon="3.207661"><ele>135.20</ele><time>2012-09-29T07:32:45Z</time></trkpt>
<trkpt lat="39.486683" lon="3.207444"><ele>134.24</ele><time>2012-09-29T07:32:49Z</time></trkpt>
<trkpt lat="39.486632" lon="3.207363"><ele>133.76</ele><time>2012-09-29T07:32:51Z</time></trkpt>
<trkpt lat="39.486654" lon="3.207259"><ele>133.28</ele><time>2012-09-29T07:32:55Z</time></trkpt>
<trkpt lat="39.486800" lon="3.207124"><ele>132.80</ele><time>2012-09-29T07:33:03Z</time></trkpt>
<trkpt lat="39.487028" lon="3.206894"><ele>132.80</ele><time>2012-09-29T07:33:11Z</time></trkpt>
<trkpt lat="39.487350" lon="3.206556"><ele>132.32</ele><time>2012-09-29T07:33:20Z</time></trkpt>
<trkpt lat="39.487755" lon="3.206122"><ele>132.32</ele><time>2012-09-29T07:33:31Z</time></trkpt>
<trkpt lat="39.488222" lon="3.205669"><ele>131.84</ele><time>2012-09-29T07:33:42Z</time></trkpt>
<trkpt lat="39.488657" lon="3.205239"><ele>131.36</ele><time>2012-09-29T07:33:52Z</time></trkpt>
<trkpt lat="39.489080" lon="3.204791"><ele>130.40</ele><time>2012-09-29T07:34:02Z</time></trkpt>
<trkpt lat="39.489259" lon="3.204600"><ele>130.40</ele><time>2012-09-29T07:34:06Z</time></trkpt>
<trkpt lat="39.489565" lon="3.204389"><ele>129.92</ele><time>2012-09-29T07:34:13Z</time></trkpt>
<trkpt lat="39.490072" lon="3.204109"><ele>130.40</ele><time>2012-09-29T07:34:24Z</time></trkpt>
<trkpt lat="39.490536" lon="3.203835"><ele>130.88</ele><time>2012-09-29T07:34:35Z</time></trkpt>
<trkpt lat="39.490931" lon="3.203615"><ele>131.84</ele><time>2012-09-29T07:34:44Z</time></trkpt>
<trkpt lat="39.491358" lon="3.203356"><ele>133.28</ele><time>2012-09-29T07:34:54Z</time></trkpt>
<trkpt lat="39.491874" lon="3.203087"><ele>136.16</ele><time>2012-09-29T07:35:07Z</time></trkpt>
<trkpt lat="39.492357" lon="3.202755"><ele>139.53</ele><time>2012-09-29T07:35:21Z</time></trkpt>
<trkpt lat="39.492666" lon="3.202386"><ele>142.41</ele><time>2012-09-29T07:35:33Z</time></trkpt>
<trkpt lat="39.492950" lon="3.201967"><ele>144.82</ele><time>2012-09-29T07:35:45Z</time></trkpt>
<trkpt lat="39.493316" lon="3.201655"><ele>147.70</ele><time>2012-09-29T07:35:58Z</time></trkpt>
<trkpt lat="39.493715" lon="3.201340"><ele>149.62</ele><time>2012-09-29T07:36:11Z</time></trkpt>
<trkpt lat="39.493889" lon="3.201418"><ele>150.58</ele><time>2012-09-29T07:36:16Z</time></trkpt>
<trkpt lat="39.494113" lon="3.201547"><ele>151.54</ele><time>2012-09-29T07:36:23Z</time></trkpt>
<trkpt lat="39.494227" lon="3.201437"><ele>152.99</ele><time>2012-09-29T07:36:28Z</time></trkpt>
<trkpt lat="39.494458" lon="3.201211"><ele>155.39</ele><time>2012-09-29T07:36:38Z</time></trkpt>
<trkpt lat="39.494694" lon="3.201022"><ele>157.79</ele><time>2012-09-29T07:36:48Z</time></trkpt>
<trkpt lat="39.494953" lon="3.200769"><ele>160.20</ele><time>2012-09-29T07:36:59Z</time></trkpt>
<trkpt lat="39.495019" lon="3.200691"><ele>161.16</ele><time>2012-09-29T07:37:02Z</time></trkpt>
<trkpt lat="39.495174" lon="3.200368"><ele>164.04</ele><time>2012-09-29T07:37:11Z</time></trkpt>
<trkpt lat="39.495285" lon="3.199978"><ele>165.00</ele><time>2012-09-29T07:37:20Z</time></trkpt>
<trkpt lat="39.495294" lon="3.199940"><ele>164.52</ele><time>2012-09-29T07:37:21Z</time></trkpt>
<trkpt lat="39.495510" lon="3.199807"><ele>163.56</ele><time>2012-09-29T07:37:26Z</time></trkpt>
<trkpt lat="39.495781" lon="3.199738"><ele>162.12</ele><time>2012-09-29T07:37:31Z</time></trkpt>
<trkpt lat="39.495970" lon="3.199588"><ele>160.68</ele><time>2012-09-29T07:37:35Z</time></trkpt>
<trkpt lat="39.496157" lon="3.199292"><ele>159.24</ele><time>2012-09-29T07:37:42Z</time></trkpt>
<trkpt lat="39.496174" lon="3.199153"><ele>159.24</ele><time>2012-09-29T07:37:49Z</time></trkpt>
<trkpt lat="39.496168" lon="3.199122"><ele>159.24</ele><time>2012-09-29T07:37:56Z</time></trkpt>
<trkpt lat="39.496175" lon="3.199142"><ele>159.24</ele><time>2012-09-29T07:38:06Z</time></trkpt>
<trkpt lat="39.496148" lon="3.199170"><ele>158.75</ele><time>2012-09-29T07:38:31Z</time></trkpt>
<trkpt lat="39.496146" lon="3.199205"><ele>158.75</ele><time>2012-09-29T07:38:42Z</time></trkpt>
<trkpt lat="39.496142" lon="3.199221"><ele>159.24</ele><time>2012-09-29T07:38:44Z</time></trkpt>
<trkpt lat="39.496128" lon="3.199311"><ele>159.24</ele><time>2012-09-29T07:38:50Z</time></trkpt>
<trkpt lat="39.496099" lon="3.199407"><ele>159.72</ele><time>2012-09-29T07:38:58Z</time></trkpt>
<trkpt lat="39.496020" lon="3.199550"><ele>160.20</ele><time>2012-09-29T07:39:09Z</time></trkpt>
<trkpt lat="39.496013" lon="3.199563"><ele>160.20</ele><time>2012-09-29T07:39:16Z</time></trkpt>
<trkpt lat="39.495942" lon="3.199679"><ele>160.68</ele><time>2012-09-29T07:39:26Z</time></trkpt>
<trkpt lat="39.495811" lon="3.199750"><ele>161.64</ele><time>2012-09-29T07:39:35Z</time></trkpt>
<trkpt lat="39.495683" lon="3.199774"><ele>162.12</ele><time>2012-09-29T07:39:44Z</time></trkpt>
<trkpt lat="39.495443" lon="3.199814"><ele>163.08</ele><time>2012-09-29T07:39:55Z</time></trkpt>
<trkpt lat="39.495307" lon="3.199916"><ele>164.04</ele><time>2012-09-29T07:40:04Z</time></trkpt>
<trkpt lat="39.495304" lon="3.199947"><ele>164.04</ele><time>2012-09-29T07:40:09Z</time></trkpt>
<trkpt lat="39.495296" lon="3.199929"><ele>164.04</ele><time>2012-09-29T07:40:39Z</time></trkpt>
<trkpt lat="39.495225" lon="3.199869"><ele>163.56</ele><time>2012-09-29T07:40:46Z</time></trkpt>
<trkpt lat="39.495145" lon="3.199848"><ele>163.08</ele><time>2012-09-29T07:40:55Z</time></trkpt>
<trkpt lat="39.495106" lon="3.199822"><ele>163.08</ele><time>2012-09-29T07:41:01Z</time></trkpt>
<trkpt lat="39.495117" lon="3.199826"><ele>163.08</ele><time>2012-09-29T07:41:56Z</time></trkpt>
<trkpt lat="39.495222" lon="3.199840"><ele>163.08</ele><time>2012-09-29T07:42:05Z</time></trkpt>
<trkpt lat="39.495256" lon="3.199880"><ele>163.08</ele><time>2012-09-29T07:42:10Z</time></trkpt>
<trkpt lat="39.495253" lon="3.200033"><ele>163.56</ele><time>2012-09-29T07:42:21Z</time></trkpt>
<trkpt lat="39.495257" lon="3.200066"><ele>163.56</ele><time>2012-09-29T07:42:32Z</time></trkpt>
<trkpt lat="39.495258" lon="3.200047"><ele>164.04</ele><time>2012-09-29T07:43:42Z</time></trkpt>
<trkpt lat="39.495262" lon="3.200008"><ele>163.56</ele><time>2012-09-29T07:43:44Z</time></trkpt>
<trkpt lat="39.495432" lon="3.199702"><ele>161.64</ele><time>2012-09-29T07:43:53Z</time></trkpt>
<trkpt lat="39.495661" lon="3.199456"><ele>160.20</ele><time>2012-09-29T07:44:00Z</time></trkpt>
<trkpt lat="39.495872" lon="3.199312"><ele>159.72</ele><time>2012-09-29T07:44:05Z</time></trkpt>
<trkpt lat="39.495998" lon="3.199144"><ele>159.24</ele><time>2012-09-29T07:44:10Z</time></trkpt>
<trkpt lat="39.495993" lon="3.199095"><ele>158.75</ele><time>2012-09-29T07:44:12Z</time></trkpt>
<trkpt lat="39.496066" lon="3.198880"><ele>158.27</ele><time>2012-09-29T07:44:18Z</time></trkpt>
<trkpt lat="39.496088" lon="3.198775"><ele>157.31</ele><time>2012-09-29T07:44:20Z</time></trkpt>
<trkpt lat="39.496055" lon="3.198304"><ele>156.35</ele><time>2012-09-29T07:44:27Z</time></trkpt>
<trkpt lat="39.495989" lon="3.197712"><ele>154.43</ele><time>2012-09-29T07:44:35Z</time></trkpt>
<trkpt lat="39.495945" lon="3.196747"><ele>151.54</ele><time>2012-09-29T07:44:48Z</time></trkpt>
<trkpt lat="39.495898" lon="3.195922"><ele>149.62</ele><time>2012-09-29T07:45:00Z</time></trkpt>
<trkpt lat="39.495915" lon="3.195796"><ele>149.14</ele><time>2012-09-29T07:45:05Z</time></trkpt>
<trkpt lat="39.495896" lon="3.195788"><ele>149.14</ele><time>2012-09-29T07:45:10Z</time></trkpt>
<trkpt lat="39.495919" lon="3.195907"><ele>149.14</ele><time>2012-09-29T07:45:21Z</time></trkpt>
<trkpt lat="39.495917" lon="3.195883"><ele>149.62</ele><time>2012-09-29T07:46:27Z</time></trkpt>
<trkpt lat="39.495892" lon="3.195881"><ele>149.62</ele><time>2012-09-29T07:46:35Z</time></trkpt>
<trkpt lat="39.495865" lon="3.195873"><ele>148.18</ele><time>2012-09-29T07:46:46Z</time></trkpt>
<trkpt lat="39.495853" lon="3.195862"><ele>148.66</ele><time>2012-09-29T07:47:13Z</time></trkpt>
<trkpt lat="39.495838" lon="3.195833"><ele>149.14</ele><time>2012-09-29T07:47:15Z</time></trkpt>
<trkpt lat="39.495809" lon="3.195525"><ele>148.18</ele><time>2012-09-29T07:47:24Z</time></trkpt>
<trkpt lat="39.495803" lon="3.195490"><ele>148.18</ele><time>2012-09-29T07:47:29Z</time></trkpt>
<trkpt lat="39.495786" lon="3.195488"><ele>148.18</ele><time>2012-09-29T07:47:40Z</time></trkpt>
<trkpt lat="39.495789" lon="3.195449"><ele>148.66</ele><time>2012-09-29T07:47:46Z</time></trkpt>
<trkpt lat="39.495780" lon="3.195430"><ele>147.22</ele><time>2012-09-29T07:47:54Z</time></trkpt>
<trkpt lat="39.495832" lon="3.195419"><ele>147.70</ele><time>2012-09-29T07:48:04Z</time></trkpt>
<trkpt lat="39.495882" lon="3.195390"><ele>147.22</ele><time>2012-09-29T07:48:10Z</time></trkpt>
<trkpt lat="39.495880" lon="3.195344"><ele>147.70</ele><time>2012-09-29T07:48:19Z</time></trkpt>
<trkpt lat="39.495879" lon="3.195340"><ele>147.22</ele><time>2012-09-29T07:48:42Z</time></trkpt>
<trkpt lat="39.495896" lon="3.195118"><ele>147.22</ele><time>2012-09-29T07:48:50Z</time></trkpt>
<trkpt lat="39.495939" lon="3.194758"><ele>146.26</ele><time>2012-09-29T07:48:59Z</time></trkpt>
<trkpt lat="39.495946" lon="3.194621"><ele>146.26</ele><time>2012-09-29T07:49:02Z</time></trkpt>
<trkpt lat="39.496011" lon="3.193938"><ele>144.34</ele><time>2012-09-29T07:49:13Z</time></trkpt>
<trkpt lat="39.496048" lon="3.193602"><ele>142.89</ele><time>2012-09-29T07:49:18Z</time></trkpt>
<trkpt lat="39.496090" lon="3.192948"><ele>140.97</ele><time>2012-09-29T07:49:28Z</time></trkpt>
<trkpt lat="39.496054" lon="3.192351"><ele>140.97</ele><time>2012-09-29T07:49:37Z</time></trkpt>
<trkpt lat="39.496061" lon="3.191942"><ele>139.53</ele><time>2012-09-29T07:49:43Z</time></trkpt>
<trkpt lat="39.495971" lon="3.191441"><ele>139.05</ele><time>2012-09-29T07:49:51Z</time></trkpt>
<trkpt lat="39.495956" lon="3.191381"><ele>139.05</ele><time>2012-09-29T07:49:52Z</time></trkpt>
<trkpt lat="39.495902" lon="3.191048"><ele>139.05</ele><time>2012-09-29T07:49:57Z</time></trkpt>
<trkpt lat="39.495754" lon="3.190595"><ele>138.09</ele><time>2012-09-29T07:50:05Z</time></trkpt>
<trkpt lat="39.495675" lon="3.190412"><ele>137.61</ele><time>2012-09-29T07:50:09Z</time></trkpt>
<trkpt lat="39.495553" lon="3.190154"><ele>137.61</ele><time>2012-09-29T07:50:14Z</time></trkpt>
<trkpt lat="39.495393" lon="3.189602"><ele>135.20</ele><time>2012-09-29T07:50:23Z</time></trkpt>
<trkpt lat="39.495381" lon="3.189533"><ele>134.72</ele><time>2012-09-29T07:50:24Z</time></trkpt>
<trkpt lat="39.495229" lon="3.188741"><ele>133.28</ele><time>2012-09-29T07:50:35Z</time></trkpt>
<trkpt lat="39.495030" lon="3.187763"><ele>130.40</ele><time>2012-09-29T07:50:48Z</time></trkpt>
<trkpt lat="39.495062" lon="3.187215"><ele>128.47</ele><time>2012-09-29T07:50:55Z</time></trkpt>
<trkpt lat="39.495007" lon="3.186710"><ele>128.47</ele><time>2012-09-29T07:51:02Z</time></trkpt>
<trkpt lat="39.494774" lon="3.185913"><ele>127.03</ele><time>2012-09-29T07:51:14Z</time></trkpt>
<trkpt lat="39.494632" lon="3.185456"><ele>126.07</ele><time>2012-09-29T07:51:21Z</time></trkpt>
<trkpt lat="39.494323" lon="3.184866"><ele>124.63</ele><time>2012-09-29T07:51:31Z</time></trkpt>
<trkpt lat="39.494126" lon="3.184345"><ele>123.67</ele><time>2012-09-29T07:51:39Z</time></trkpt>
<trkpt lat="39.493995" lon="3.183908"><ele>122.71</ele><time>2012-09-29T07:51:45Z</time></trkpt>
<trkpt lat="39.494018" lon="3.183442"><ele>121.74</ele><time>2012-09-29T07:51:51Z</time></trkpt>
<trkpt lat="39.494322" lon="3.182707"><ele>119.82</ele><time>2012-09-29T07:52:01Z</time></trkpt>
<trkpt lat="39.494649" lon="3.181886"><ele>117.90</ele><time>2012-09-29T07:52:12Z</time></trkpt>
<trkpt lat="39.494962" lon="3.181073"><ele>115.98</ele><time>2012-09-29T07:52:23Z</time></trkpt>
<trkpt lat="39.495259" lon="3.180414"><ele>114.53</ele><time>2012-09-29T07:52:32Z</time></trkpt>
<trkpt lat="39.495345" lon="3.180262"><ele>113.57</ele><time>2012-09-29T07:52:34Z</time></trkpt>
<trkpt lat="39.495633" lon="3.179935"><ele>112.61</ele><time>2012-09-29T07:52:40Z</time></trkpt>
<trkpt lat="39.495638" lon="3.179547"><ele>112.61</ele><time>2012-09-29T07:52:45Z</time></trkpt>
<trkpt lat="39.495440" lon="3.178605"><ele>112.13</ele><time>2012-09-29T07:52:57Z</time></trkpt>
<trkpt lat="39.495233" lon="3.177877"><ele>111.65</ele><time>2012-09-29T07:53:07Z</time></trkpt>
<trkpt lat="39.494965" lon="3.177370"><ele>110.21</ele><time>2012-09-29T07:53:15Z</time></trkpt>
<trkpt lat="39.494594" lon="3.176768"><ele>108.29</ele><time>2012-09-29T07:53:25Z</time></trkpt>
<trkpt lat="39.494459" lon="3.176631"><ele>107.81</ele><time>2012-09-29T07:53:28Z</time></trkpt>
<trkpt lat="39.494074" lon="3.176032"><ele>106.36</ele><time>2012-09-29T07:53:37Z</time></trkpt>
<trkpt lat="39.493521" lon="3.175166"><ele>103.48</ele><time>2012-09-29T07:53:50Z</time></trkpt>
<trkpt lat="39.493196" lon="3.174582"><ele>102.52</ele><time>2012-09-29T07:53:59Z</time></trkpt>
<trkpt lat="39.492890" lon="3.174036"><ele>102.04</ele><time>2012-09-29T07:54:07Z</time></trkpt>
<trkpt lat="39.492666" lon="3.173867"><ele>100.11</ele><time>2012-09-29T07:54:11Z</time></trkpt>
<trkpt lat="39.491903" lon="3.173589"><ele>99.63</ele><time>2012-09-29T07:54:23Z</time></trkpt>
<trkpt lat="39.491544" lon="3.173416"><ele>99.15</ele><time>2012-09-29T07:54:29Z</time></trkpt>
<trkpt lat="39.491220" lon="3.173079"><ele>100.11</ele><time>2012-09-29T07:54:36Z</time></trkpt>
<trkpt lat="39.490788" lon="3.172668"><ele>100.11</ele><time>2012-09-29T07:54:46Z</time></trkpt>
<trkpt lat="39.490253" lon="3.172192"><ele>100.60</ele><time>2012-09-29T07:54:59Z</time></trkpt>
<trkpt lat="39.489792" lon="3.171706"><ele>101.08</ele><time>2012-09-29T07:55:11Z</time></trkpt>
<trkpt lat="39.489276" lon="3.171064"><ele>101.08</ele><time>2012-09-29T07:55:26Z</time></trkpt>
<trkpt lat="39.488884" lon="3.170585"><ele>100.11</ele><time>2012-09-29T07:55:37Z</time></trkpt>
<trkpt lat="39.488439" lon="3.169850"><ele>100.11</ele><time>2012-09-29T07:55:51Z</time></trkpt>
<trkpt lat="39.488087" lon="3.169281"><ele>100.60</ele><time>2012-09-29T07:56:02Z</time></trkpt>
<trkpt lat="39.487886" lon="3.169014"><ele>100.11</ele><time>2012-09-29T07:56:08Z</time></trkpt>
<trkpt lat="39.487753" lon="3.169020"><ele>100.11</ele><time>2012-09-29T07:56:12Z</time></trkpt>
<trkpt lat="39.487713" lon="3.169106"><ele>100.11</ele><time>2012-09-29T07:56:14Z</time></trkpt>
<trkpt lat="39.487364" lon="3.169647"><ele>100.11</ele><time>2012-09-29T07:56:26Z</time></trkpt>
<trkpt lat="39.486924" lon="3.170254"><ele>100.60</ele><time>2012-09-29T07:56:40Z</time></trkpt>
<trkpt lat="39.486311" lon="3.171128"><ele>101.08</ele><time>2012-09-29T07:57:00Z</time></trkpt>
<trkpt lat="39.485951" lon="3.171679"><ele>103.00</ele><time>2012-09-29T07:57:13Z</time></trkpt>
<trkpt lat="39.485626" lon="3.172164"><ele>104.44</ele><time>2012-09-29T07:57:25Z</time></trkpt>
<trkpt lat="39.485297" lon="3.172632"><ele>106.36</ele><time>2012-09-29T07:57:37Z</time></trkpt>
<trkpt lat="39.484970" lon="3.173091"><ele>107.81</ele><time>2012-09-29T07:57:49Z</time></trkpt>
<trkpt lat="39.484623" lon="3.173612"><ele>110.69</ele><time>2012-09-29T07:58:03Z</time></trkpt>
<trkpt lat="39.484349" lon="3.174047"><ele>113.09</ele><time>2012-09-29T07:58:16Z</time></trkpt>
<trkpt lat="39.484038" lon="3.174533"><ele>115.98</ele><time>2012-09-29T07:58:31Z</time></trkpt>
<trkpt lat="39.483849" lon="3.174847"><ele>118.86</ele><time>2012-09-29T07:58:41Z</time></trkpt>
<trkpt lat="39.483644" lon="3.175190"><ele>122.22</ele><time>2012-09-29T07:58:53Z</time></trkpt>
<trkpt lat="39.483421" lon="3.175565"><ele>125.11</ele><time>2012-09-29T07:59:06Z</time></trkpt>
<trkpt lat="39.483119" lon="3.175977"><ele>127.03</ele><time>2012-09-29T07:59:20Z</time></trkpt>
<trkpt lat="39.482784" lon="3.176323"><ele>126.55</ele><time>2012-09-29T07:59:32Z</time></trkpt>
<trkpt lat="39.482631" lon="3.176476"><ele>128.95</ele><time>2012-09-29T07:59:40Z</time></trkpt>
<trkpt lat="39.482487" lon="3.176616"><ele>131.36</ele><time>2012-09-29T07:59:49Z</time></trkpt>
<trkpt lat="39.482348" lon="3.176758"><ele>134.72</ele><time>2012-09-29T07:59:59Z</time></trkpt>
<trkpt lat="39.482215" lon="3.176882"><ele>137.61</ele><time>2012-09-29T08:00:09Z</time></trkpt>
<trkpt lat="39.482132" lon="3.176954"><ele>138.57</ele><time>2012-09-29T08:00:15Z</time></trkpt>
<trkpt lat="39.482013" lon="3.177025"><ele>141.45</ele><time>2012-09-29T08:00:23Z</time></trkpt>
<trkpt lat="39.481826" lon="3.177133"><ele>142.41</ele><time>2012-09-29T08:00:32Z</time></trkpt>
<trkpt lat="39.481602" lon="3.177213"><ele>142.89</ele><time>2012-09-29T08:00:39Z</time></trkpt>
<trkpt lat="39.481205" lon="3.177307"><ele>143.85</ele><time>2012-09-29T08:00:50Z</time></trkpt>
<trkpt lat="39.480841" lon="3.177481"><ele>142.41</ele><time>2012-09-29T08:00:59Z</time></trkpt>
<trkpt lat="39.480558" lon="3.177653"><ele>140.01</ele><time>2012-09-29T08:01:04Z</time></trkpt>
<trkpt lat="39.480295" lon="3.177982"><ele>137.13</ele><time>2012-09-29T08:01:09Z</time></trkpt>
<trkpt lat="39.480181" lon="3.178223"><ele>133.28</ele><time>2012-09-29T08:01:12Z</time></trkpt>
<trkpt lat="39.480120" lon="3.178373"><ele>131.84</ele><time>2012-09-29T08:01:14Z</time></trkpt>
<trkpt lat="39.479914" lon="3.178778"><ele>127.51</ele><time>2012-09-29T08:01:20Z</time></trkpt>
<trkpt lat="39.479748" lon="3.179138"><ele>124.15</ele><time>2012-09-29T08:01:25Z</time></trkpt>
<trkpt lat="39.479671" lon="3.179244"><ele>122.71</ele><time>2012-09-29T08:01:28Z</time></trkpt>
<trkpt lat="39.479559" lon="3.179204"><ele>121.74</ele><time>2012-09-29T08:01:33Z</time></trkpt>
<trkpt lat="39.479542" lon="3.179163"><ele>121.74</ele><time>2012-09-29T08:01:34Z</time></trkpt>
<trkpt lat="39.479346" lon="3.178582"><ele>121.26</ele><time>2012-09-29T08:01:44Z</time></trkpt>
<trkpt lat="39.479183" lon="3.177970"><ele>119.34</ele><time>2012-09-29T08:01:53Z</time></trkpt>
<trkpt lat="39.479123" lon="3.177215"><ele>118.86</ele><time>2012-09-29T08:02:03Z</time></trkpt>
<trkpt lat="39.479097" lon="3.176720"><ele>117.42</ele><time>2012-09-29T08:02:10Z</time></trkpt>
<trkpt lat="39.479086" lon="3.175764"><ele>115.50</ele><time>2012-09-29T08:02:24Z</time></trkpt>
<trkpt lat="39.479093" lon="3.175690"><ele>115.98</ele><time>2012-09-29T08:02:25Z</time></trkpt>
<trkpt lat="39.479202" lon="3.175282"><ele>114.53</ele><time>2012-09-29T08:02:31Z</time></trkpt>
<trkpt lat="39.479479" lon="3.174896"><ele>113.57</ele><time>2012-09-29T08:02:38Z</time></trkpt>
<trkpt lat="39.479656" lon="3.174665"><ele>114.05</ele><time>2012-09-29T08:02:42Z</time></trkpt>
<trkpt lat="39.479785" lon="3.174329"><ele>114.05</ele><time>2012-09-29T08:02:47Z</time></trkpt>
<trkpt lat="39.479831" lon="3.173765"><ele>114.53</ele><time>2012-09-29T08:02:55Z</time></trkpt>
<trkpt lat="39.479817" lon="3.173154"><ele>115.98</ele><time>2012-09-29T08:03:04Z</time></trkpt>
<trkpt lat="39.479678" lon="3.172646"><ele>116.46</ele><time>2012-09-29T08:03:12Z</time></trkpt>
<trkpt lat="39.479608" lon="3.172332"><ele>117.42</ele><time>2012-09-29T08:03:17Z</time></trkpt>
<trkpt lat="39.479529" lon="3.172159"><ele>115.98</ele><time>2012-09-29T08:03:20Z</time></trkpt>
<trkpt lat="39.479306" lon="3.171294"><ele>115.01</ele><time>2012-09-29T08:03:32Z</time></trkpt>
<trkpt lat="39.479154" lon="3.170669"><ele>114.05</ele><time>2012-09-29T08:03:41Z</time></trkpt>
<trkpt lat="39.478973" lon="3.169916"><ele>114.05</ele><time>2012-09-29T08:03:52Z</time></trkpt>
<trkpt lat="39.478843" lon="3.169447"><ele>113.57</ele><time>2012-09-29T08:03:59Z</time></trkpt>
<trkpt lat="39.478572" lon="3.168886"><ele>112.61</ele><time>2012-09-29T08:04:08Z</time></trkpt>
<trkpt lat="39.478138" lon="3.168011"><ele>112.13</ele><time>2012-09-29T08:04:22Z</time></trkpt>
<trkpt lat="39.477963" lon="3.167480"><ele>112.13</ele><time>2012-09-29T08:04:30Z</time></trkpt>
<trkpt lat="39.477708" lon="3.166724"><ele>112.61</ele><time>2012-09-29T08:04:42Z</time></trkpt>
<trkpt lat="39.477430" lon="3.165967"><ele>113.57</ele><time>2012-09-29T08:04:55Z</time></trkpt>
<trkpt lat="39.477286" lon="3.165568"><ele>114.53</ele><time>2012-09-29T08:05:02Z</time></trkpt>
<trkpt lat="39.477052" lon="3.165083"><ele>114.53</ele><time>2012-09-29T08:05:11Z</time></trkpt>
<trkpt lat="39.476829" lon="3.164539"><ele>115.01</ele><time>2012-09-29T08:05:21Z</time></trkpt>
<trkpt lat="39.476578" lon="3.163973"><ele>115.01</ele><time>2012-09-29T08:05:32Z</time></trkpt>
<trkpt lat="39.476332" lon="3.163434"><ele>114.53</ele><time>2012-09-29T08:05:43Z</time></trkpt>
<trkpt lat="39.475993" lon="3.162705"><ele>115.98</ele><time>2012-09-29T08:05:57Z</time></trkpt>
<trkpt lat="39.475635" lon="3.161917"><ele>116.46</ele><time>2012-09-29T08:06:12Z</time></trkpt>
<trkpt lat="39.475321" lon="3.161261"><ele>117.42</ele><time>2012-09-29T08:06:24Z</time></trkpt>
<trkpt lat="39.475006" lon="3.160632"><ele>115.01</ele><time>2012-09-29T08:06:35Z</time></trkpt>
<trkpt lat="39.474772" lon="3.160145"><ele>116.94</ele><time>2012-09-29T08:06:44Z</time></trkpt>
<trkpt lat="39.474470" lon="3.159491"><ele>117.42</ele><time>2012-09-29T08:06:56Z</time></trkpt>
<trkpt lat="39.474202" lon="3.158976"><ele>117.42</ele><time>2012-09-29T08:07:06Z</time></trkpt>
<trkpt lat="39.473982" lon="3.158545"><ele>118.86</ele><time>2012-09-29T08:07:15Z</time></trkpt>
<trkpt lat="39.473891" lon="3.158449"><ele>120.78</ele><time>2012-09-29T08:07:20Z</time></trkpt>
<trkpt lat="39.473718" lon="3.158446"><ele>121.74</ele><time>2012-09-29T08:07:25Z</time></trkpt>
<trkpt lat="39.473505" lon="3.158402"><ele>124.15</ele><time>2012-09-29T08:07:31Z</time></trkpt>
<trkpt lat="39.473365" lon="3.158484"><ele>123.19</ele><time>2012-09-29T08:07:35Z</time></trkpt>
<trkpt lat="39.473141" lon="3.158915"><ele>123.67</ele><time>2012-09-29T08:07:45Z</time></trkpt>
<trkpt lat="39.472856" lon="3.159417"><ele>124.15</ele><time>2012-09-29T08:07:57Z</time></trkpt>
<trkpt lat="39.472689" lon="3.159652"><ele>124.15</ele><time>2012-09-29T08:08:03Z</time></trkpt>
<trkpt lat="39.472594" lon="3.159748"><ele>124.15</ele><time>2012-09-29T08:08:06Z</time></trkpt>
<trkpt lat="39.472232" lon="3.160091"><ele>125.11</ele><time>2012-09-29T08:08:17Z</time></trkpt>
<trkpt lat="39.472040" lon="3.160417"><ele>126.07</ele><time>2012-09-29T08:08:25Z</time></trkpt>
<trkpt lat="39.471794" lon="3.161015"><ele>126.55</ele><time>2012-09-29T08:08:38Z</time></trkpt>
<trkpt lat="39.471547" lon="3.161513"><ele>127.99</ele><time>2012-09-29T08:08:49Z</time></trkpt>
<trkpt lat="39.471479" lon="3.161633"><ele>127.51</ele><time>2012-09-29T08:08:52Z</time></trkpt>
<trkpt lat="39.471278" lon="3.161835"><ele>127.03</ele><time>2012-09-29T08:08:58Z</time></trkpt>
<trkpt lat="39.471211" lon="3.161884"><ele>128.47</ele><time>2012-09-29T08:09:00Z</time></trkpt>
<trkpt lat="39.471078" lon="3.162095"><ele>127.51</ele><time>2012-09-29T08:09:05Z</time></trkpt>
<trkpt lat="39.470870" lon="3.162814"><ele>126.55</ele><time>2012-09-29T08:09:18Z</time></trkpt>
<trkpt lat="39.470724" lon="3.163193"><ele>126.55</ele><time>2012-09-29T08:09:25Z</time></trkpt>
<trkpt lat="39.470571" lon="3.163337"><ele>127.03</ele><time>2012-09-29T08:09:29Z</time></trkpt>
<trkpt lat="39.470487" lon="3.163376"><ele>127.03</ele><time>2012-09-29T08:09:31Z</time></trkpt>
<trkpt lat="39.470302" lon="3.163536"><ele>127.51</ele><time>2012-09-29T08:09:36Z</time></trkpt>
<trkpt lat="39.470068" lon="3.163938"><ele>130.88</ele><time>2012-09-29T08:09:46Z</time></trkpt>
<trkpt lat="39.470081" lon="3.164094"><ele>131.36</ele><time>2012-09-29T08:09:49Z</time></trkpt>
<trkpt lat="39.469927" lon="3.164246"><ele>131.36</ele><time>2012-09-29T08:09:54Z</time></trkpt>
<trkpt lat="39.469847" lon="3.164287"><ele>131.36</ele><time>2012-09-29T08:09:56Z</time></trkpt>
<trkpt lat="39.469726" lon="3.164517"><ele>130.40</ele><time>2012-09-29T08:10:01Z</time></trkpt>
<trkpt lat="39.469715" lon="3.164703"><ele>130.40</ele><time>2012-09-29T08:10:04Z</time></trkpt>
<trkpt lat="39.469840" lon="3.164938"><ele>129.92</ele><time>2012-09-29T08:10:09Z</time></trkpt>
<trkpt lat="39.469926" lon="3.165209"><ele>130.88</ele><time>2012-09-29T08:10:14Z</time></trkpt>
<trkpt lat="39.469893" lon="3.165378"><ele>131.36</ele><time>2012-09-29T08:10:17Z</time></trkpt>
<trkpt lat="39.469751" lon="3.166054"><ele>131.36</ele><time>2012-09-29T08:10:30Z</time></trkpt>
<trkpt lat="39.469656" lon="3.166742"><ele>133.28</ele><time>2012-09-29T08:10:43Z</time></trkpt>
<trkpt lat="39.469484" lon="3.167308"><ele>135.20</ele><time>2012-09-29T08:10:55Z</time></trkpt>
<trkpt lat="39.469345" lon="3.167936"><ele>136.16</ele><time>2012-09-29T08:11:08Z</time></trkpt>
<trkpt lat="39.469234" lon="3.168505"><ele>139.05</ele><time>2012-09-29T08:11:20Z</time></trkpt>
<trkpt lat="39.469158" lon="3.169071"><ele>139.05</ele><time>2012-09-29T08:11:32Z</time></trkpt>
<trkpt lat="39.469087" lon="3.169704"><ele>140.97</ele><time>2012-09-29T08:11:45Z</time></trkpt>
<trkpt lat="39.469048" lon="3.170598"><ele>144.34</ele><time>2012-09-29T08:12:03Z</time></trkpt>
<trkpt lat="39.469035" lon="3.171324"><ele>147.22</ele><time>2012-09-29T08:12:18Z</time></trkpt>
<trkpt lat="39.469045" lon="3.171928"><ele>149.14</ele><time>2012-09-29T08:12:31Z</time></trkpt>
<trkpt lat="39.469032" lon="3.172563"><ele>151.54</ele><time>2012-09-29T08:12:45Z</time></trkpt>
<trkpt lat="39.469031" lon="3.173140"><ele>153.95</ele><time>2012-09-29T08:12:57Z</time></trkpt>
<trkpt lat="39.469039" lon="3.173770"><ele>155.39</ele><time>2012-09-29T08:13:11Z</time></trkpt>
<trkpt lat="39.469014" lon="3.174294"><ele>156.83</ele><time>2012-09-29T08:13:22Z</time></trkpt>
<trkpt lat="39.468987" lon="3.174660"><ele>158.27</ele><time>2012-09-29T08:13:30Z</time></trkpt>
<trkpt lat="39.468882" lon="3.175071"><ele>159.72</ele><time>2012-09-29T08:13:40Z</time></trkpt>
<trkpt lat="39.468788" lon="3.175469"><ele>162.12</ele><time>2012-09-29T08:13:51Z</time></trkpt>
<trkpt lat="39.468741" lon="3.175745"><ele>163.08</ele><time>2012-09-29T08:13:58Z</time></trkpt>
<trkpt lat="39.468660" lon="3.176196"><ele>164.04</ele><time>2012-09-29T08:14:07Z</time></trkpt>
<trkpt lat="39.468660" lon="3.176585"><ele>164.04</ele><time>2012-09-29T08:14:15Z</time></trkpt>
<trkpt lat="39.468667" lon="3.176937"><ele>165.48</ele><time>2012-09-29T08:14:22Z</time></trkpt>
<trkpt lat="39.468621" lon="3.177382"><ele>166.93</ele><time>2012-09-29T08:14:32Z</time></trkpt>
<trkpt lat="39.468612" lon="3.177659"><ele>169.81</ele><time>2012-09-29T08:14:40Z</time></trkpt>
<trkpt lat="39.468608" lon="3.177690"><ele>169.81</ele><time>2012-09-29T08:14:41Z</time></trkpt>
<trkpt lat="39.468593" lon="3.177747"><ele>170.29</ele><time>2012-09-29T08:14:43Z</time></trkpt>
<trkpt lat="39.468561" lon="3.177795"><ele>171.73</ele><time>2012-09-29T08:14:45Z</time></trkpt>
<trkpt lat="39.468518" lon="3.177835"><ele>171.73</ele><time>2012-09-29T08:14:47Z</time></trkpt>
<trkpt lat="39.468310" lon="3.177939"><ele>174.14</ele><time>2012-09-29T08:14:58Z</time></trkpt>
<trkpt lat="39.468142" lon="3.178021"><ele>176.54</ele><time>2012-09-29T08:15:08Z</time></trkpt>
<trkpt lat="39.468026" lon="3.178089"><ele>177.50</ele><time>2012-09-29T08:15:15Z</time></trkpt>
<trkpt lat="39.467842" lon="3.178190"><ele>178.94</ele><time>2012-09-29T08:15:24Z</time></trkpt>
<trkpt lat="39.467704" lon="3.178251"><ele>177.98</ele><time>2012-09-29T08:15:28Z</time></trkpt>
<trkpt lat="39.467574" lon="3.178337"><ele>177.02</ele><time>2012-09-29T08:15:31Z</time></trkpt>
<trkpt lat="39.467266" lon="3.178501"><ele>177.98</ele><time>2012-09-29T08:15:39Z</time></trkpt>
<trkpt lat="39.467028" lon="3.178614"><ele>180.87</ele><time>2012-09-29T08:15:49Z</time></trkpt>
<trkpt lat="39.467007" lon="3.178625"><ele>180.87</ele><time>2012-09-29T08:15:50Z</time></trkpt>
<trkpt lat="39.466756" lon="3.178750"><ele>182.31</ele><time>2012-09-29T08:16:01Z</time></trkpt>
<trkpt lat="39.466529" lon="3.178877"><ele>184.71</ele><time>2012-09-29T08:16:12Z</time></trkpt>
<trkpt lat="39.466312" lon="3.178991"><ele>186.63</ele><time>2012-09-29T08:16:22Z</time></trkpt>
<trkpt lat="39.466038" lon="3.179134"><ele>186.63</ele><time>2012-09-29T08:16:34Z</time></trkpt>
<trkpt lat="39.465787" lon="3.179259"><ele>188.56</ele><time>2012-09-29T08:16:44Z</time></trkpt>
<trkpt lat="39.465560" lon="3.179358"><ele>190.96</ele><time>2012-09-29T08:16:55Z</time></trkpt>
<trkpt lat="39.465518" lon="3.179388"><ele>191.44</ele><time>2012-09-29T08:16:57Z</time></trkpt>
<trkpt lat="39.465327" lon="3.179495"><ele>192.40</ele><time>2012-09-29T08:17:06Z</time></trkpt>
<trkpt lat="39.465111" lon="3.179621"><ele>192.88</ele><time>2012-09-29T08:17:15Z</time></trkpt>
<trkpt lat="39.464858" lon="3.179743"><ele>194.80</ele><time>2012-09-29T08:17:26Z</time></trkpt>
<trkpt lat="39.464681" lon="3.179841"><ele>196.73</ele><time>2012-09-29T08:17:36Z</time></trkpt>
<trkpt lat="39.464609" lon="3.179886"><ele>198.65</ele><time>2012-09-29T08:17:40Z</time></trkpt>
<trkpt lat="39.464496" lon="3.179941"><ele>200.09</ele><time>2012-09-29T08:17:46Z</time></trkpt>
<trkpt lat="39.464212" lon="3.180072"><ele>201.05</ele><time>2012-09-29T08:18:01Z</time></trkpt>
<trkpt lat="39.464064" lon="3.180160"><ele>203.46</ele><time>2012-09-29T08:18:11Z</time></trkpt>
<trkpt lat="39.463998" lon="3.180196"><ele>205.38</ele><time>2012-09-29T08:18:15Z</time></trkpt>
<trkpt lat="39.463942" lon="3.180198"><ele>206.82</ele><time>2012-09-29T08:18:19Z</time></trkpt>
<trkpt lat="39.463844" lon="3.180237"><ele>207.78</ele><time>2012-09-29T08:18:25Z</time></trkpt>
<trkpt lat="39.463779" lon="3.180293"><ele>208.74</ele><time>2012-09-29T08:18:31Z</time></trkpt>
<trkpt lat="39.463647" lon="3.180315"><ele>209.70</ele><time>2012-09-29T08:18:38Z</time></trkpt>
<trkpt lat="39.463590" lon="3.180329"><ele>210.19</ele><time>2012-09-29T08:18:41Z</time></trkpt>
<trkpt lat="39.463473" lon="3.180339"><ele>212.11</ele><time>2012-09-29T08:18:50Z</time></trkpt>
<trkpt lat="39.463365" lon="3.180330"><ele>214.03</ele><time>2012-09-29T08:18:58Z</time></trkpt>
<trkpt lat="39.463256" lon="3.180378"><ele>214.99</ele><time>2012-09-29T08:19:06Z</time></trkpt>
<trkpt lat="39.463080" lon="3.180485"><ele>215.95</ele><time>2012-09-29T08:19:19Z</time></trkpt>
<trkpt lat="39.462944" lon="3.180571"><ele>216.91</ele><time>2012-09-29T08:19:30Z</time></trkpt>
<trkpt lat="39.462804" lon="3.180624"><ele>218.36</ele><time>2012-09-29T08:19:39Z</time></trkpt>
<trkpt lat="39.462612" lon="3.180764"><ele>221.72</ele><time>2012-09-29T08:19:52Z</time></trkpt>
<trkpt lat="39.462472" lon="3.180834"><ele>224.12</ele><time>2012-09-29T08:20:03Z</time></trkpt>
<trkpt lat="39.462336" lon="3.180891"><ele>226.53</ele><time>2012-09-29T08:20:13Z</time></trkpt>
<trkpt lat="39.462154" lon="3.180959"><ele>228.45</ele><time>2012-09-29T08:20:26Z</time></trkpt>
<trkpt lat="39.461991" lon="3.181020"><ele>229.89</ele><time>2012-09-29T08:20:37Z</time></trkpt>
<trkpt lat="39.461890" lon="3.181120"><ele>232.30</ele><time>2012-09-29T08:20:46Z</time></trkpt>
<trkpt lat="39.461808" lon="3.181136"><ele>232.78</ele><time>2012-09-29T08:20:52Z</time></trkpt>
<trkpt lat="39.461699" lon="3.181108"><ele>233.74</ele><time>2012-09-29T08:21:00Z</time></trkpt>
<trkpt lat="39.461565" lon="3.181099"><ele>233.74</ele><time>2012-09-29T08:21:07Z</time></trkpt>
<trkpt lat="39.461425" lon="3.181111"><ele>235.18</ele><time>2012-09-29T08:21:13Z</time></trkpt>
<trkpt lat="39.461326" lon="3.180974"><ele>236.62</ele><time>2012-09-29T08:21:21Z</time></trkpt>
<trkpt lat="39.461243" lon="3.180827"><ele>237.58</ele><time>2012-09-29T08:21:30Z</time></trkpt>
<trkpt lat="39.461144" lon="3.180888"><ele>239.99</ele><time>2012-09-29T08:21:40Z</time></trkpt>
<trkpt lat="39.461032" lon="3.180938"><ele>242.39</ele><time>2012-09-29T08:21:51Z</time></trkpt>
<trkpt lat="39.460941" lon="3.180987"><ele>244.79</ele><time>2012-09-29T08:22:01Z</time></trkpt>
<trkpt lat="39.460851" lon="3.181024"><ele>247.20</ele><time>2012-09-29T08:22:12Z</time></trkpt>
<trkpt lat="39.460802" lon="3.181046"><ele>248.64</ele><time>2012-09-29T08:22:19Z</time></trkpt>
<trkpt lat="39.460717" lon="3.181087"><ele>250.56</ele><time>2012-09-29T08:22:28Z</time></trkpt>
<trkpt lat="39.460610" lon="3.181148"><ele>252.96</ele><time>2012-09-29T08:22:38Z</time></trkpt>
<trkpt lat="39.460594" lon="3.181156"><ele>252.96</ele><time>2012-09-29T08:22:40Z</time></trkpt>
<trkpt lat="39.460478" lon="3.181156"><ele>253.93</ele><time>2012-09-29T08:22:50Z</time></trkpt>
<trkpt lat="39.460347" lon="3.181143"><ele>256.33</ele><time>2012-09-29T08:23:01Z</time></trkpt>
<trkpt lat="39.460287" lon="3.181146"><ele>256.81</ele><time>2012-09-29T08:23:06Z</time></trkpt>
<trkpt lat="39.460245" lon="3.181193"><ele>256.81</ele><time>2012-09-29T08:23:10Z</time></trkpt>
<trkpt lat="39.460204" lon="3.181201"><ele>258.25</ele><time>2012-09-29T08:23:14Z</time></trkpt>
<trkpt lat="39.460116" lon="3.181159"><ele>259.21</ele><time>2012-09-29T08:23:24Z</time></trkpt>
<trkpt lat="39.460002" lon="3.181206"><ele>260.65</ele><time>2012-09-29T08:23:32Z</time></trkpt>
<trkpt lat="39.459980" lon="3.181219"><ele>261.14</ele><time>2012-09-29T08:23:34Z</time></trkpt>
<trkpt lat="39.459885" lon="3.181214"><ele>261.62</ele><time>2012-09-29T08:23:41Z</time></trkpt>
<trkpt lat="39.459737" lon="3.181116"><ele>263.54</ele><time>2012-09-29T08:23:53Z</time></trkpt>
<trkpt lat="39.459614" lon="3.181011"><ele>264.98</ele><time>2012-09-29T08:24:04Z</time></trkpt>
<trkpt lat="39.459465" lon="3.180889"><ele>265.94</ele><time>2012-09-29T08:24:15Z</time></trkpt>
<trkpt lat="39.459290" lon="3.180814"><ele>264.50</ele><time>2012-09-29T08:24:22Z</time></trkpt>
<trkpt lat="39.459247" lon="3.180804"><ele>264.50</ele><time>2012-09-29T08:24:23Z</time></trkpt>
<trkpt lat="39.459175" lon="3.180800"><ele>263.06</ele><time>2012-09-29T08:24:25Z</time></trkpt>
<trkpt lat="39.458996" lon="3.180762"><ele>261.62</ele><time>2012-09-29T08:24:29Z</time></trkpt>
<trkpt lat="39.458758" lon="3.180594"><ele>261.62</ele><time>2012-09-29T08:24:35Z</time></trkpt>
<trkpt lat="39.458753" lon="3.180403"><ele>263.06</ele><time>2012-09-29T08:24:40Z</time></trkpt>
<trkpt lat="39.458775" lon="3.180097"><ele>264.50</ele><time>2012-09-29T08:24:49Z</time></trkpt>
<trkpt lat="39.458628" lon="3.179980"><ele>264.98</ele><time>2012-09-29T08:24:56Z</time></trkpt>
<trkpt lat="39.458424" lon="3.179824"><ele>265.46</ele><time>2012-09-29T08:25:05Z</time></trkpt>
<trkpt lat="39.458194" lon="3.179851"><ele>266.42</ele><time>2012-09-29T08:25:13Z</time></trkpt>
<trkpt lat="39.458030" lon="3.179942"><ele>267.86</ele><time>2012-09-29T08:25:20Z</time></trkpt>
<trkpt lat="39.457843" lon="3.180018"><ele>268.83</ele><time>2012-09-29T08:25:27Z</time></trkpt>
<trkpt lat="39.457617" lon="3.180116"><ele>269.79</ele><time>2012-09-29T08:25:37Z</time></trkpt>
<trkpt lat="39.457505" lon="3.180192"><ele>271.23</ele><time>2012-09-29T08:25:43Z</time></trkpt>
<trkpt lat="39.457489" lon="3.180202"><ele>271.23</ele><time>2012-09-29T08:25:44Z</time></trkpt>
<trkpt lat="39.457364" lon="3.180301"><ele>271.23</ele><time>2012-09-29T08:25:52Z</time></trkpt>
<trkpt lat="39.457309" lon="3.180367"><ele>272.19</ele><time>2012-09-29T08:25:55Z</time></trkpt>
<trkpt lat="39.457340" lon="3.180496"><ele>272.19</ele><time>2012-09-29T08:26:02Z</time></trkpt>
<trkpt lat="39.457341" lon="3.180588"><ele>273.15</ele><time>2012-09-29T08:26:08Z</time></trkpt>
<trkpt lat="39.457321" lon="3.180809"><ele>274.11</ele><time>2012-09-29T08:26:18Z</time></trkpt>
<trkpt lat="39.457320" lon="3.180827"><ele>275.07</ele><time>2012-09-29T08:26:20Z</time></trkpt>
<trkpt lat="39.457333" lon="3.180893"><ele>276.52</ele><time>2012-09-29T08:26:25Z</time></trkpt>
<trkpt lat="39.457295" lon="3.180994"><ele>277.48</ele><time>2012-09-29T08:26:32Z</time></trkpt>
<trkpt lat="39.457300" lon="3.181100"><ele>280.84</ele><time>2012-09-29T08:26:37Z</time></trkpt>
<trkpt lat="39.457294" lon="3.181204"><ele>283.25</ele><time>2012-09-29T08:26:45Z</time></trkpt>
<trkpt lat="39.457260" lon="3.181390"><ele>283.25</ele><time>2012-09-29T08:26:54Z</time></trkpt>
<trkpt lat="39.457299" lon="3.181499"><ele>284.21</ele><time>2012-09-29T08:27:02Z</time></trkpt>
<trkpt lat="39.457368" lon="3.181617"><ele>285.65</ele><time>2012-09-29T08:27:11Z</time></trkpt>
<trkpt lat="39.457382" lon="3.181652"><ele>286.13</ele><time>2012-09-29T08:27:13Z</time></trkpt>
<trkpt lat="39.457365" lon="3.181922"><ele>288.53</ele><time>2012-09-29T08:27:24Z</time></trkpt>
<trkpt lat="39.457384" lon="3.181995"><ele>290.46</ele><time>2012-09-29T08:27:32Z</time></trkpt>
<trkpt lat="39.457378" lon="3.182000"><ele>290.46</ele><time>2012-09-29T08:27:33Z</time></trkpt>
<trkpt lat="39.457302" lon="3.181977"><ele>291.42</ele><time>2012-09-29T08:27:41Z</time></trkpt>
<trkpt lat="39.457313" lon="3.181987"><ele>291.42</ele><time>2012-09-29T08:27:50Z</time></trkpt>
<trkpt lat="39.457190" lon="3.181995"><ele>293.82</ele><time>2012-09-29T08:28:06Z</time></trkpt>
<trkpt lat="39.457098" lon="3.182018"><ele>295.74</ele><time>2012-09-29T08:28:16Z</time></trkpt>
<trkpt lat="39.457043" lon="3.182032"><ele>296.22</ele><time>2012-09-29T08:28:25Z</time></trkpt>
<trkpt lat="39.456997" lon="3.182095"><ele>298.63</ele><time>2012-09-29T08:28:37Z</time></trkpt>
<trkpt lat="39.456963" lon="3.182149"><ele>300.55</ele><time>2012-09-29T08:28:57Z</time></trkpt>
<trkpt lat="39.456856" lon="3.182234"><ele>303.43</ele><time>2012-09-29T08:29:15Z</time></trkpt>
<trkpt lat="39.456768" lon="3.182206"><ele>305.84</ele><time>2012-09-29T08:29:34Z</time></trkpt>
<trkpt lat="39.456676" lon="3.182203"><ele>308.72</ele><time>2012-09-29T08:29:48Z</time></trkpt>
<trkpt lat="39.456677" lon="3.182146"><ele>308.24</ele><time>2012-09-29T08:30:00Z</time></trkpt>
<trkpt lat="39.456565" lon="3.182194"><ele>308.72</ele><time>2012-09-29T08:30:39Z</time></trkpt>
<trkpt lat="39.456585" lon="3.182176"><ele>309.20</ele><time>2012-09-29T08:31:03Z</time></trkpt>
<trkpt lat="39.456585" lon="3.182170"><ele>310.16</ele><time>2012-09-29T08:31:48Z</time></trkpt>
<trkpt lat="39.456563" lon="3.181959"><ele>311.60</ele><time>2012-09-29T08:31:57Z</time></trkpt>
<trkpt lat="39.456575" lon="3.181907"><ele>312.57</ele><time>2012-09-29T08:32:00Z</time></trkpt>
<trkpt lat="39.456580" lon="3.181868"><ele>312.57</ele><time>2012-09-29T08:32:02Z</time></trkpt>
<trkpt lat="39.456614" lon="3.181671"><ele>314.49</ele><time>2012-09-29T08:32:13Z</time></trkpt>
<trkpt lat="39.456526" lon="3.181590"><ele>315.45</ele><time>2012-09-29T08:32:21Z</time></trkpt>
<trkpt lat="39.456374" lon="3.181591"><ele>316.89</ele><time>2012-09-29T08:32:31Z</time></trkpt>
<trkpt lat="39.456195" lon="3.181664"><ele>318.33</ele><time>2012-09-29T08:32:43Z</time></trkpt>
<trkpt lat="39.456066" lon="3.181767"><ele>320.26</ele><time>2012-09-29T08:32:54Z</time></trkpt>
<trkpt lat="39.455942" lon="3.181893"><ele>322.18</ele><time>2012-09-29T08:33:05Z</time></trkpt>
<trkpt lat="39.455927" lon="3.181955"><ele>323.62</ele><time>2012-09-29T08:33:09Z</time></trkpt>
<trkpt lat="39.455983" lon="3.182081"><ele>325.06</ele><time>2012-09-29T08:33:17Z</time></trkpt>
<trkpt lat="39.455999" lon="3.182242"><ele>326.50</ele><time>2012-09-29T08:33:25Z</time></trkpt>
<trkpt lat="39.456083" lon="3.182377"><ele>328.43</ele><time>2012-09-29T08:33:35Z</time></trkpt>
<trkpt lat="39.456075" lon="3.182407"><ele>329.39</ele><time>2012-09-29T08:33:39Z</time></trkpt>
<trkpt lat="39.455992" lon="3.182388"><ele>330.83</ele><time>2012-09-29T08:33:44Z</time></trkpt>
<trkpt lat="39.455928" lon="3.182358"><ele>332.27</ele><time>2012-09-29T08:33:49Z</time></trkpt>
<trkpt lat="39.455825" lon="3.182318"><ele>333.71</ele><time>2012-09-29T08:33:58Z</time></trkpt>
<trkpt lat="39.455780" lon="3.182314"><ele>334.20</ele><time>2012-09-29T08:34:01Z</time></trkpt>
<trkpt lat="39.455740" lon="3.182322"><ele>334.20</ele><time>2012-09-29T08:34:04Z</time></trkpt>
<trkpt lat="39.455640" lon="3.182382"><ele>334.68</ele><time>2012-09-29T08:34:13Z</time></trkpt>
<trkpt lat="39.455625" lon="3.182389"><ele>334.68</ele><time>2012-09-29T08:34:14Z</time></trkpt>
<trkpt lat="39.455628" lon="3.182416"><ele>336.12</ele><time>2012-09-29T08:34:20Z</time></trkpt>
<trkpt lat="39.455687" lon="3.182386"><ele>337.56</ele><time>2012-09-29T08:34:30Z</time></trkpt>
<trkpt lat="39.455682" lon="3.182392"><ele>339.00</ele><time>2012-09-29T08:34:41Z</time></trkpt>
<trkpt lat="39.455617" lon="3.182402"><ele>339.96</ele><time>2012-09-29T08:34:50Z</time></trkpt>
<trkpt lat="39.455610" lon="3.182402"><ele>339.96</ele><time>2012-09-29T08:34:51Z</time></trkpt>
<trkpt lat="39.455478" lon="3.182469"><ele>340.92</ele><time>2012-09-29T08:35:03Z</time></trkpt>
<trkpt lat="39.455367" lon="3.182515"><ele>341.89</ele><time>2012-09-29T08:35:11Z</time></trkpt>
<trkpt lat="39.455232" lon="3.182555"><ele>342.37</ele><time>2012-09-29T08:35:20Z</time></trkpt>
<trkpt lat="39.455189" lon="3.182679"><ele>342.37</ele><time>2012-09-29T08:35:30Z</time></trkpt>
<trkpt lat="39.455179" lon="3.182743"><ele>342.85</ele><time>2012-09-29T08:35:37Z</time></trkpt>
<trkpt lat="39.455167" lon="3.182826"><ele>344.77</ele><time>2012-09-29T08:35:46Z</time></trkpt>
<trkpt lat="39.455172" lon="3.182844"><ele>345.73</ele><time>2012-09-29T08:35:54Z</time></trkpt>
<trkpt lat="39.455137" lon="3.182875"><ele>346.69</ele><time>2012-09-29T08:36:04Z</time></trkpt>
<trkpt lat="39.455131" lon="3.182874"><ele>346.21</ele><time>2012-09-29T08:36:17Z</time></trkpt>
<trkpt lat="39.455071" lon="3.182928"><ele>347.65</ele><time>2012-09-29T08:36:22Z</time></trkpt>
<trkpt lat="39.454979" lon="3.183051"><ele>348.13</ele><time>2012-09-29T08:36:32Z</time></trkpt>
<trkpt lat="39.454911" lon="3.183149"><ele>349.58</ele><time>2012-09-29T08:36:40Z</time></trkpt>
<trkpt lat="39.454890" lon="3.183172"><ele>350.06</ele><time>2012-09-29T08:36:42Z</time></trkpt>
<trkpt lat="39.454853" lon="3.183279"><ele>351.98</ele><time>2012-09-29T08:36:50Z</time></trkpt>
<trkpt lat="39.454908" lon="3.183267"><ele>353.42</ele><time>2012-09-29T08:36:56Z</time></trkpt>
<trkpt lat="39.454988" lon="3.183191"><ele>353.90</ele><time>2012-09-29T08:37:04Z</time></trkpt>
<trkpt lat="39.455073" lon="3.183140"><ele>354.86</ele><time>2012-09-29T08:37:13Z</time></trkpt>
<trkpt lat="39.455084" lon="3.183127"><ele>355.34</ele><time>2012-09-29T08:37:14Z</time></trkpt>
<trkpt lat="39.455102" lon="3.183142"><ele>355.83</ele><time>2012-09-29T08:37:18Z</time></trkpt>
<trkpt lat="39.455039" lon="3.183228"><ele>356.31</ele><time>2012-09-29T08:37:25Z</time></trkpt>
<trkpt lat="39.455025" lon="3.183287"><ele>357.75</ele><time>2012-09-29T08:37:31Z</time></trkpt>
<trkpt lat="39.454991" lon="3.183320"><ele>358.71</ele><time>2012-09-29T08:37:35Z</time></trkpt>
<trkpt lat="39.454947" lon="3.183442"><ele>360.15</ele><time>2012-09-29T08:37:45Z</time></trkpt>
<trkpt lat="39.454944" lon="3.183462"><ele>360.15</ele><time>2012-09-29T08:37:47Z</time></trkpt>
<trkpt lat="39.454917" lon="3.183495"><ele>360.63</ele><time>2012-09-29T08:37:50Z</time></trkpt>
<trkpt lat="39.454925" lon="3.183517"><ele>362.07</ele><time>2012-09-29T08:37:57Z</time></trkpt>
<trkpt lat="39.454945" lon="3.183497"><ele>363.04</ele><time>2012-09-29T08:38:00Z</time></trkpt>
<trkpt lat="39.454983" lon="3.183454"><ele>363.04</ele><time>2012-09-29T08:38:04Z</time></trkpt>
<trkpt lat="39.455035" lon="3.183422"><ele>363.52</ele><time>2012-09-29T08:38:09Z</time></trkpt>
<trkpt lat="39.455135" lon="3.183323"><ele>364.96</ele><time>2012-09-29T08:38:19Z</time></trkpt>
<trkpt lat="39.455247" lon="3.183273"><ele>368.32</ele><time>2012-09-29T08:38:27Z</time></trkpt>
<trkpt lat="39.455331" lon="3.183235"><ele>368.80</ele><time>2012-09-29T08:38:34Z</time></trkpt>
<trkpt lat="39.455452" lon="3.183184"><ele>370.73</ele><time>2012-09-29T08:38:43Z</time></trkpt>
<trkpt lat="39.455611" lon="3.183095"><ele>372.65</ele><time>2012-09-29T08:38:55Z</time></trkpt>
<trkpt lat="39.455639" lon="3.183070"><ele>372.65</ele><time>2012-09-29T08:39:01Z</time></trkpt>
<trkpt lat="39.455659" lon="3.183067"><ele>375.53</ele><time>2012-09-29T08:39:09Z</time></trkpt>
<trkpt lat="39.455684" lon="3.183106"><ele>376.49</ele><time>2012-09-29T08:39:17Z</time></trkpt>
<trkpt lat="39.455702" lon="3.183129"><ele>377.94</ele><time>2012-09-29T08:39:28Z</time></trkpt>
<trkpt lat="39.455663" lon="3.183181"><ele>377.94</ele><time>2012-09-29T08:39:39Z</time></trkpt>
<trkpt lat="39.455632" lon="3.183235"><ele>377.45</ele><time>2012-09-29T08:39:50Z</time></trkpt>
<trkpt lat="39.455609" lon="3.183265"><ele>377.94</ele><time>2012-09-29T08:39:53Z</time></trkpt>
<trkpt lat="39.455566" lon="3.183309"><ele>378.42</ele><time>2012-09-29T08:39:57Z</time></trkpt>
<trkpt lat="39.455537" lon="3.183331"><ele>379.38</ele><time>2012-09-29T08:40:00Z</time></trkpt>
<trkpt lat="39.455431" lon="3.183427"><ele>380.34</ele><time>2012-09-29T08:40:10Z</time></trkpt>
<trkpt lat="39.455409" lon="3.183453"><ele>381.30</ele><time>2012-09-29T08:40:12Z</time></trkpt>
<trkpt lat="39.455329" lon="3.183522"><ele>382.74</ele><time>2012-09-29T08:40:20Z</time></trkpt>
<trkpt lat="39.455330" lon="3.183565"><ele>383.22</ele><time>2012-09-29T08:40:23Z</time></trkpt>
<trkpt lat="39.455221" lon="3.183692"><ele>384.66</ele><time>2012-09-29T08:40:34Z</time></trkpt>
<trkpt lat="39.455166" lon="3.183733"><ele>385.63</ele><time>2012-09-29T08:40:42Z</time></trkpt>
<trkpt lat="39.455148" lon="3.183765"><ele>385.63</ele><time>2012-09-29T08:40:50Z</time></trkpt>
<trkpt lat="39.455139" lon="3.183791"><ele>387.07</ele><time>2012-09-29T08:41:04Z</time></trkpt>
<trkpt lat="39.455172" lon="3.183779"><ele>387.55</ele><time>2012-09-29T08:41:10Z</time></trkpt>
<trkpt lat="39.455208" lon="3.183753"><ele>388.03</ele><time>2012-09-29T08:41:14Z</time></trkpt>
<trkpt lat="39.455351" lon="3.183676"><ele>389.47</ele><time>2012-09-29T08:41:26Z</time></trkpt>
<trkpt lat="39.455485" lon="3.183615"><ele>391.87</ele><time>2012-09-29T08:41:40Z</time></trkpt>
<trkpt lat="39.455510" lon="3.183602"><ele>392.36</ele><time>2012-09-29T08:41:51Z</time></trkpt>
<trkpt lat="39.455541" lon="3.183605"><ele>393.32</ele><time>2012-09-29T08:42:00Z</time></trkpt>
<trkpt lat="39.455594" lon="3.183592"><ele>393.80</ele><time>2012-09-29T08:42:11Z</time></trkpt>
<trkpt lat="39.455669" lon="3.183568"><ele>396.20</ele><time>2012-09-29T08:42:23Z</time></trkpt>
<trkpt lat="39.455755" lon="3.183544"><ele>398.12</ele><time>2012-09-29T08:42:33Z</time></trkpt>
<trkpt lat="39.455801" lon="3.183571"><ele>399.08</ele><time>2012-09-29T08:42:40Z</time></trkpt>
<trkpt lat="39.455870" lon="3.183698"><ele>401.01</ele><time>2012-09-29T08:42:52Z</time></trkpt>
<trkpt lat="39.455896" lon="3.183749"><ele>402.93</ele><time>2012-09-29T08:43:01Z</time></trkpt>
<trkpt lat="39.455893" lon="3.183745"><ele>402.45</ele><time>2012-09-29T08:43:09Z</time></trkpt>
<trkpt lat="39.455992" lon="3.183846"><ele>405.81</ele><time>2012-09-29T08:43:20Z</time></trkpt>
<trkpt lat="39.456036" lon="3.183901"><ele>406.29</ele><time>2012-09-29T08:43:25Z</time></trkpt>
<trkpt lat="39.456116" lon="3.184078"><ele>408.22</ele><time>2012-09-29T08:43:38Z</time></trkpt>
<trkpt lat="39.456134" lon="3.184188"><ele>409.66</ele><time>2012-09-29T08:43:45Z</time></trkpt>
<trkpt lat="39.456174" lon="3.184295"><ele>411.10</ele><time>2012-09-29T08:43:53Z</time></trkpt>
<trkpt lat="39.456199" lon="3.184362"><ele>411.58</ele><time>2012-09-29T08:43:57Z</time></trkpt>
<trkpt lat="39.456232" lon="3.184538"><ele>412.54</ele><time>2012-09-29T08:44:08Z</time></trkpt>
<trkpt lat="39.456234" lon="3.184554"><ele>412.54</ele><time>2012-09-29T08:44:09Z</time></trkpt>
<trkpt lat="39.456258" lon="3.184603"><ele>413.50</ele><time>2012-09-29T08:44:13Z</time></trkpt>
<trkpt lat="39.456287" lon="3.184681"><ele>414.47</ele><time>2012-09-29T08:44:19Z</time></trkpt>
<trkpt lat="39.456301" lon="3.184703"><ele>414.95</ele><time>2012-09-29T08:44:21Z</time></trkpt>
<trkpt lat="39.456326" lon="3.184728"><ele>415.43</ele><time>2012-09-29T08:44:24Z</time></trkpt>
<trkpt lat="39.456369" lon="3.184880"><ele>418.31</ele><time>2012-09-29T08:44:35Z</time></trkpt>
<trkpt lat="39.456400" lon="3.184961"><ele>419.27</ele><time>2012-09-29T08:44:40Z</time></trkpt>
<trkpt lat="39.456438" lon="3.184999"><ele>419.75</ele><time>2012-09-29T08:44:44Z</time></trkpt>
<trkpt lat="39.456419" lon="3.185022"><ele>420.23</ele><time>2012-09-29T08:44:47Z</time></trkpt>
<trkpt lat="39.456375" lon="3.184975"><ele>421.19</ele><time>2012-09-29T08:44:52Z</time></trkpt>
<trkpt lat="39.456345" lon="3.184951"><ele>422.16</ele><time>2012-09-29T08:44:55Z</time></trkpt>
<trkpt lat="39.456257" lon="3.184873"><ele>423.60</ele><time>2012-09-29T08:45:04Z</time></trkpt>
<trkpt lat="39.456230" lon="3.184877"><ele>424.08</ele><time>2012-09-29T08:45:06Z</time></trkpt>
<trkpt lat="39.456130" lon="3.184787"><ele>426.00</ele><time>2012-09-29T08:45:16Z</time></trkpt>
<trkpt lat="39.456097" lon="3.184754"><ele>426.48</ele><time>2012-09-29T08:45:23Z</time></trkpt>
<trkpt lat="39.456085" lon="3.184757"><ele>426.00</ele><time>2012-09-29T08:45:33Z</time></trkpt>
<trkpt lat="39.456088" lon="3.184801"><ele>426.96</ele><time>2012-09-29T08:45:38Z</time></trkpt>
<trkpt lat="39.456135" lon="3.184829"><ele>427.92</ele><time>2012-09-29T08:45:48Z</time></trkpt>
<trkpt lat="39.456183" lon="3.184886"><ele>428.40</ele><time>2012-09-29T08:45:56Z</time></trkpt>
<trkpt lat="39.456189" lon="3.184901"><ele>428.40</ele><time>2012-09-29T08:45:57Z</time></trkpt>
<trkpt lat="39.456249" lon="3.184978"><ele>428.40</ele><time>2012-09-29T08:46:04Z</time></trkpt>
<trkpt lat="39.456356" lon="3.185139"><ele>429.85</ele><time>2012-09-29T08:46:16Z</time></trkpt>
<trkpt lat="39.456393" lon="3.185171"><ele>431.29</ele><time>2012-09-29T08:46:20Z</time></trkpt>
<trkpt lat="39.456411" lon="3.185225"><ele>431.77</ele><time>2012-09-29T08:46:24Z</time></trkpt>
<trkpt lat="39.456441" lon="3.185289"><ele>432.73</ele><time>2012-09-29T08:46:28Z</time></trkpt>
<trkpt lat="39.456438" lon="3.185351"><ele>433.21</ele><time>2012-09-29T08:46:34Z</time></trkpt>
<trkpt lat="39.456425" lon="3.185398"><ele>433.69</ele><time>2012-09-29T08:46:40Z</time></trkpt>
<trkpt lat="39.456403" lon="3.185459"><ele>434.65</ele><time>2012-09-29T08:46:50Z</time></trkpt>
<trkpt lat="39.456371" lon="3.185485"><ele>435.13</ele><time>2012-09-29T08:47:02Z</time></trkpt>
<trkpt lat="39.456369" lon="3.185537"><ele>434.65</ele><time>2012-09-29T08:47:11Z</time></trkpt>
<trkpt lat="39.456376" lon="3.185611"><ele>435.61</ele><time>2012-09-29T08:47:37Z</time></trkpt>
<trkpt lat="39.456388" lon="3.185620"><ele>436.10</ele><time>2012-09-29T08:47:49Z</time></trkpt>
<trkpt lat="39.456387" lon="3.185602"><ele>436.10</ele><time>2012-09-29T08:48:05Z</time></trkpt>
<trkpt lat="39.456409" lon="3.185627"><ele>436.10</ele><time>2012-09-29T08:48:12Z</time></trkpt>
<trkpt lat="39.456461" lon="3.185750"><ele>437.54</ele><time>2012-09-29T08:48:21Z</time></trkpt>
<trkpt lat="39.456471" lon="3.185778"><ele>437.54</ele><time>2012-09-29T08:48:23Z</time></trkpt>
<trkpt lat="39.456482" lon="3.185792"><ele>437.54</ele><time>2012-09-29T08:48:25Z</time></trkpt>
<trkpt lat="39.456521" lon="3.185843"><ele>437.54</ele><time>2012-09-29T08:48:32Z</time></trkpt>
<trkpt lat="39.456550" lon="3.185868"><ele>438.02</ele><time>2012-09-29T08:48:36Z</time></trkpt>
<trkpt lat="39.456570" lon="3.185874"><ele>438.50</ele><time>2012-09-29T08:48:38Z</time></trkpt>
<trkpt lat="39.456635" lon="3.185902"><ele>439.46</ele><time>2012-09-29T08:48:47Z</time></trkpt>
<trkpt lat="39.456663" lon="3.185924"><ele>439.46</ele><time>2012-09-29T08:49:06Z</time></trkpt>
<trkpt lat="39.456645" lon="3.185989"><ele>442.34</ele><time>2012-09-29T08:49:16Z</time></trkpt>
<trkpt lat="39.456607" lon="3.186081"><ele>443.79</ele><time>2012-09-29T08:49:31Z</time></trkpt>
<trkpt lat="39.456660" lon="3.186145"><ele>446.19</ele><time>2012-09-29T08:49:45Z</time></trkpt>
<trkpt lat="39.456644" lon="3.186249"><ele>448.11</ele><time>2012-09-29T08:49:56Z</time></trkpt>
<trkpt lat="39.456592" lon="3.186255"><ele>449.55</ele><time>2012-09-29T08:50:06Z</time></trkpt>
<trkpt lat="39.456492" lon="3.186327"><ele>451.00</ele><time>2012-09-29T08:50:22Z</time></trkpt>
<trkpt lat="39.456467" lon="3.186350"><ele>451.48</ele><time>2012-09-29T08:50:30Z</time></trkpt>
<trkpt lat="39.456437" lon="3.186356"><ele>453.40</ele><time>2012-09-29T08:50:44Z</time></trkpt>
<trkpt lat="39.456367" lon="3.186396"><ele>454.84</ele><time>2012-09-29T08:50:55Z</time></trkpt>
<trkpt lat="39.456339" lon="3.186408"><ele>454.84</ele><time>2012-09-29T08:51:10Z</time></trkpt>
<trkpt lat="39.456315" lon="3.186444"><ele>455.32</ele><time>2012-09-29T08:51:22Z</time></trkpt>
<trkpt lat="39.456295" lon="3.186411"><ele>455.32</ele><time>2012-09-29T08:51:28Z</time></trkpt>
<trkpt lat="39.456280" lon="3.186398"><ele>455.32</ele><time>2012-09-29T08:51:30Z</time></trkpt>
<trkpt lat="39.456218" lon="3.186439"><ele>456.28</ele><time>2012-09-29T08:51:35Z</time></trkpt>
<trkpt lat="39.456150" lon="3.186512"><ele>458.69</ele><time>2012-09-29T08:51:43Z</time></trkpt>
<trkpt lat="39.456090" lon="3.186528"><ele>460.13</ele><time>2012-09-29T08:51:52Z</time></trkpt>
<trkpt lat="39.455986" lon="3.186590"><ele>460.13</ele><time>2012-09-29T08:51:59Z</time></trkpt>
<trkpt lat="39.455910" lon="3.186579"><ele>460.61</ele><time>2012-09-29T08:52:05Z</time></trkpt>
<trkpt lat="39.455854" lon="3.186563"><ele>461.09</ele><time>2012-09-29T08:52:11Z</time></trkpt>
<trkpt lat="39.455810" lon="3.186567"><ele>462.05</ele><time>2012-09-29T08:52:16Z</time></trkpt>
<trkpt lat="39.455722" lon="3.186575"><ele>463.49</ele><time>2012-09-29T08:52:21Z</time></trkpt>
<trkpt lat="39.455657" lon="3.186602"><ele>463.97</ele><time>2012-09-29T08:52:28Z</time></trkpt>
<trkpt lat="39.455634" lon="3.186638"><ele>463.97</ele><time>2012-09-29T08:52:35Z</time></trkpt>
<trkpt lat="39.455580" lon="3.186692"><ele>464.93</ele><time>2012-09-29T08:52:44Z</time></trkpt>
<trkpt lat="39.455535" lon="3.186763"><ele>465.90</ele><time>2012-09-29T08:52:50Z</time></trkpt>
<trkpt lat="39.455473" lon="3.186920"><ele>467.34</ele><time>2012-09-29T08:53:01Z</time></trkpt>
<trkpt lat="39.455475" lon="3.187001"><ele>468.78</ele><time>2012-09-29T08:53:10Z</time></trkpt>
<trkpt lat="39.455436" lon="3.187030"><ele>469.74</ele><time>2012-09-29T08:53:17Z</time></trkpt>
<trkpt lat="39.455409" lon="3.187133"><ele>471.18</ele><time>2012-09-29T08:53:26Z</time></trkpt>
<trkpt lat="39.455534" lon="3.187095"><ele>470.70</ele><time>2012-09-29T08:53:38Z</time></trkpt>
<trkpt lat="39.455532" lon="3.187103"><ele>470.70</ele><time>2012-09-29T08:53:50Z</time></trkpt>
<trkpt lat="39.455524" lon="3.187101"><ele>470.22</ele><time>2012-09-29T08:54:01Z</time></trkpt>
<trkpt lat="39.455526" lon="3.187113"><ele>467.34</ele><time>2012-09-29T08:57:49Z</time></trkpt>
<trkpt lat="39.455526" lon="3.187114"><ele>467.82</ele><time>2012-09-29T08:59:14Z</time></trkpt>
<trkpt lat="39.455524" lon="3.187115"><ele>468.30</ele><time>2012-09-29T08:59:54Z</time></trkpt>
<trkpt lat="39.455523" lon="3.187124"><ele>467.34</ele><time>2012-09-29T09:03:08Z</time></trkpt>
<trkpt lat="39.455525" lon="3.187129"><ele>465.90</ele><time>2012-09-29T09:05:58Z</time></trkpt>
<trkpt lat="39.455524" lon="3.187129"><ele>465.42</ele><time>2012-09-29T09:06:13Z</time></trkpt>
<trkpt lat="39.455515" lon="3.187178"><ele>465.42</ele><time>2012-09-29T09:12:37Z</time></trkpt>
<trkpt lat="39.455479" lon="3.187239"><ele>466.38</ele><time>2012-09-29T09:12:44Z</time></trkpt>
<trkpt lat="39.455466" lon="3.187275"><ele>466.86</ele><time>2012-09-29T09:12:53Z</time></trkpt>
<trkpt lat="39.455439" lon="3.187291"><ele>466.86</ele><time>2012-09-29T09:12:58Z</time></trkpt>
<trkpt lat="39.455364" lon="3.187288"><ele>466.38</ele><time>2012-09-29T09:13:04Z</time></trkpt>
<trkpt lat="39.455312" lon="3.187312"><ele>466.38</ele><time>2012-09-29T09:13:08Z</time></trkpt>
<trkpt lat="39.455292" lon="3.187383"><ele>467.34</ele><time>2012-09-29T09:13:19Z</time></trkpt>
<trkpt lat="39.455251" lon="3.187455"><ele>467.34</ele><time>2012-09-29T09:13:29Z</time></trkpt>
<trkpt lat="39.455180" lon="3.187559"><ele>467.34</ele><time>2012-09-29T09:13:35Z</time></trkpt>
<trkpt lat="39.455148" lon="3.187503"><ele>466.86</ele><time>2012-09-29T09:13:40Z</time></trkpt>
<trkpt lat="39.455181" lon="3.187452"><ele>465.90</ele><time>2012-09-29T09:13:46Z</time></trkpt>
<trkpt lat="39.455196" lon="3.187420"><ele>465.42</ele><time>2012-09-29T09:14:05Z</time></trkpt>
<trkpt lat="39.455295" lon="3.187239"><ele>463.97</ele><time>2012-09-29T09:14:12Z</time></trkpt>
<trkpt lat="39.455316" lon="3.187099"><ele>462.53</ele><time>2012-09-29T09:14:15Z</time></trkpt>
<trkpt lat="39.455322" lon="3.187038"><ele>462.05</ele><time>2012-09-29T09:14:17Z</time></trkpt>
<trkpt lat="39.455262" lon="3.187051"><ele>460.61</ele><time>2012-09-29T09:14:21Z</time></trkpt>
<trkpt lat="39.455190" lon="3.187157"><ele>459.65</ele><time>2012-09-29T09:14:24Z</time></trkpt>
<trkpt lat="39.454922" lon="3.187379"><ele>455.80</ele><time>2012-09-29T09:14:30Z</time></trkpt>
<trkpt lat="39.454756" lon="3.187484"><ele>453.40</ele><time>2012-09-29T09:14:33Z</time></trkpt>
<trkpt lat="39.454634" lon="3.187536"><ele>452.92</ele><time>2012-09-29T09:14:35Z</time></trkpt>
<trkpt lat="39.454363" lon="3.187650"><ele>450.52</ele><time>2012-09-29T09:14:39Z</time></trkpt>
<trkpt lat="39.454103" lon="3.187748"><ele>448.11</ele><time>2012-09-29T09:14:43Z</time></trkpt>
<trkpt lat="39.453844" lon="3.187800"><ele>445.23</ele><time>2012-09-29T09:14:48Z</time></trkpt>
<trkpt lat="39.453552" lon="3.187886"><ele>442.34</ele><time>2012-09-29T09:14:55Z</time></trkpt>
<trkpt lat="39.453449" lon="3.187918"><ele>441.86</ele><time>2012-09-29T09:15:00Z</time></trkpt>
<trkpt lat="39.453285" lon="3.187885"><ele>439.94</ele><time>2012-09-29T09:15:06Z</time></trkpt>
<trkpt lat="39.453234" lon="3.187786"><ele>438.50</ele><time>2012-09-29T09:15:08Z</time></trkpt>
<trkpt lat="39.453178" lon="3.187677"><ele>438.02</ele><time>2012-09-29T09:15:10Z</time></trkpt>
<trkpt lat="39.453082" lon="3.187572"><ele>436.10</ele><time>2012-09-29T09:15:13Z</time></trkpt>
<trkpt lat="39.453004" lon="3.187502"><ele>435.61</ele><time>2012-09-29T09:15:16Z</time></trkpt>
<trkpt lat="39.452953" lon="3.187483"><ele>435.13</ele><time>2012-09-29T09:15:19Z</time></trkpt>
<trkpt lat="39.452948" lon="3.187447"><ele>434.17</ele><time>2012-09-29T09:15:25Z</time></trkpt>
<trkpt lat="39.452948" lon="3.187447"><ele>434.65</ele><time>2012-09-29T09:15:26Z</time></trkpt>
<trkpt lat="39.452962" lon="3.187355"><ele>431.77</ele><time>2012-09-29T09:15:30Z</time></trkpt>
<trkpt lat="39.452948" lon="3.187293"><ele>429.37</ele><time>2012-09-29T09:15:32Z</time></trkpt>
<trkpt lat="39.452863" lon="3.187221"><ele>426.48</ele><time>2012-09-29T09:15:36Z</time></trkpt>
<trkpt lat="39.452683" lon="3.187264"><ele>424.56</ele><time>2012-09-29T09:15:42Z</time></trkpt>
<trkpt lat="39.452547" lon="3.187464"><ele>421.68</ele><time>2012-09-29T09:15:50Z</time></trkpt>
<trkpt lat="39.452524" lon="3.187481"><ele>421.19</ele><time>2012-09-29T09:15:56Z</time></trkpt>
<trkpt lat="39.452501" lon="3.187408"><ele>419.75</ele><time>2012-09-29T09:16:00Z</time></trkpt>
<trkpt lat="39.452498" lon="3.187334"><ele>419.75</ele><time>2012-09-29T09:16:03Z</time></trkpt>
<trkpt lat="39.452492" lon="3.187303"><ele>418.31</ele><time>2012-09-29T09:16:10Z</time></trkpt>
<trkpt lat="39.452482" lon="3.187349"><ele>418.31</ele><time>2012-09-29T09:16:17Z</time></trkpt>
<trkpt lat="39.452483" lon="3.187350"><ele>419.27</ele><time>2012-09-29T09:17:18Z</time></trkpt>
<trkpt lat="39.452483" lon="3.187350"><ele>418.79</ele><time>2012-09-29T09:17:29Z</time></trkpt>
<trkpt lat="39.452471" lon="3.187429"><ele>418.79</ele><time>2012-09-29T09:17:34Z</time></trkpt>
<trkpt lat="39.452468" lon="3.187483"><ele>419.27</ele><time>2012-09-29T09:17:36Z</time></trkpt>
<trkpt lat="39.452503" lon="3.187564"><ele>417.35</ele><time>2012-09-29T09:17:39Z</time></trkpt>
<trkpt lat="39.452600" lon="3.187772"><ele>414.47</ele><time>2012-09-29T09:17:45Z</time></trkpt>
<trkpt lat="39.452654" lon="3.187913"><ele>411.10</ele><time>2012-09-29T09:17:49Z</time></trkpt>
<trkpt lat="39.452737" lon="3.188085"><ele>407.26</ele><time>2012-09-29T09:17:55Z</time></trkpt>
<trkpt lat="39.452759" lon="3.188137"><ele>406.77</ele><time>2012-09-29T09:17:57Z</time></trkpt>
<trkpt lat="39.452787" lon="3.188195"><ele>405.33</ele><time>2012-09-29T09:17:59Z</time></trkpt>
<trkpt lat="39.452839" lon="3.188257"><ele>403.41</ele><time>2012-09-29T09:18:02Z</time></trkpt>
<trkpt lat="39.452864" lon="3.188329"><ele>402.45</ele><time>2012-09-29T09:18:08Z</time></trkpt>
<trkpt lat="39.452842" lon="3.188309"><ele>401.97</ele><time>2012-09-29T09:18:15Z</time></trkpt>
<trkpt lat="39.452807" lon="3.188292"><ele>400.53</ele><time>2012-09-29T09:18:22Z</time></trkpt>
<trkpt lat="39.452761" lon="3.188269"><ele>400.05</ele><time>2012-09-29T09:18:32Z</time></trkpt>
<trkpt lat="39.452773" lon="3.188290"><ele>398.60</ele><time>2012-09-29T09:18:41Z</time></trkpt>
<trkpt lat="39.452773" lon="3.188303"><ele>398.60</ele><time>2012-09-29T09:18:43Z</time></trkpt>
<trkpt lat="39.452807" lon="3.188419"><ele>396.20</ele><time>2012-09-29T09:18:51Z</time></trkpt>
<trkpt lat="39.452822" lon="3.188507"><ele>393.80</ele><time>2012-09-29T09:18:57Z</time></trkpt>
<trkpt lat="39.452736" lon="3.188438"><ele>391.39</ele><time>2012-09-29T09:19:03Z</time></trkpt>
<trkpt lat="39.452656" lon="3.188406"><ele>389.95</ele><time>2012-09-29T09:19:07Z</time></trkpt>
<trkpt lat="39.452595" lon="3.188375"><ele>388.03</ele><time>2012-09-29T09:19:13Z</time></trkpt>
<trkpt lat="39.452552" lon="3.188383"><ele>386.59</ele><time>2012-09-29T09:19:20Z</time></trkpt>
<trkpt lat="39.452543" lon="3.188396"><ele>386.11</ele><time>2012-09-29T09:19:24Z</time></trkpt>
<trkpt lat="39.452557" lon="3.188471"><ele>384.66</ele><time>2012-09-29T09:19:27Z</time></trkpt>
<trkpt lat="39.452617" lon="3.188627"><ele>382.74</ele><time>2012-09-29T09:19:31Z</time></trkpt>
<trkpt lat="39.452638" lon="3.188684"><ele>382.26</ele><time>2012-09-29T09:19:32Z</time></trkpt>
<trkpt lat="39.452721" lon="3.188885"><ele>378.42</ele><time>2012-09-29T09:19:37Z</time></trkpt>
<trkpt lat="39.452744" lon="3.188972"><ele>377.45</ele><time>2012-09-29T09:19:39Z</time></trkpt>
<trkpt lat="39.452811" lon="3.189110"><ele>376.01</ele><time>2012-09-29T09:19:42Z</time></trkpt>
<trkpt lat="39.452916" lon="3.189412"><ele>372.65</ele><time>2012-09-29T09:19:48Z</time></trkpt>
<trkpt lat="39.452952" lon="3.189498"><ele>371.21</ele><time>2012-09-29T09:19:52Z</time></trkpt>
<trkpt lat="39.452906" lon="3.189608"><ele>367.36</ele><time>2012-09-29T09:19:58Z</time></trkpt>
<trkpt lat="39.452821" lon="3.189667"><ele>364.48</ele><time>2012-09-29T09:20:03Z</time></trkpt>
<trkpt lat="39.452769" lon="3.189735"><ele>362.55</ele><time>2012-09-29T09:20:06Z</time></trkpt>
<trkpt lat="39.452708" lon="3.189821"><ele>359.19</ele><time>2012-09-29T09:20:09Z</time></trkpt>
<trkpt lat="39.452613" lon="3.189988"><ele>355.83</ele><time>2012-09-29T09:20:15Z</time></trkpt>
<trkpt lat="39.452537" lon="3.190171"><ele>352.46</ele><time>2012-09-29T09:20:20Z</time></trkpt>
<trkpt lat="39.452502" lon="3.190214"><ele>351.98</ele><time>2012-09-29T09:20:22Z</time></trkpt>
<trkpt lat="39.452493" lon="3.190231"><ele>352.46</ele><time>2012-09-29T09:20:29Z</time></trkpt>
<trkpt lat="39.452426" lon="3.190277"><ele>350.06</ele><time>2012-09-29T09:23:00Z</time></trkpt>
<trkpt lat="39.452383" lon="3.190313"><ele>348.62</ele><time>2012-09-29T09:23:04Z</time></trkpt>
<trkpt lat="39.452341" lon="3.190349"><ele>347.65</ele><time>2012-09-29T09:23:06Z</time></trkpt>
<trkpt lat="39.452305" lon="3.190393"><ele>346.69</ele><time>2012-09-29T09:23:08Z</time></trkpt>
<trkpt lat="39.452298" lon="3.190609"><ele>344.77</ele><time>2012-09-29T09:23:14Z</time></trkpt>
<trkpt lat="39.452313" lon="3.190781"><ele>341.89</ele><time>2012-09-29T09:23:20Z</time></trkpt>
<trkpt lat="39.452232" lon="3.190900"><ele>342.85</ele><time>2012-09-29T09:23:25Z</time></trkpt>
<trkpt lat="39.452194" lon="3.190938"><ele>343.33</ele><time>2012-09-29T09:23:28Z</time></trkpt>
<trkpt lat="39.452167" lon="3.190984"><ele>342.85</ele><time>2012-09-29T09:23:31Z</time></trkpt>
<trkpt lat="39.452128" lon="3.191029"><ele>343.81</ele><time>2012-09-29T09:23:34Z</time></trkpt>
<trkpt lat="39.452103" lon="3.191056"><ele>343.81</ele><time>2012-09-29T09:23:36Z</time></trkpt>
<trkpt lat="39.451954" lon="3.191214"><ele>341.89</ele><time>2012-09-29T09:23:45Z</time></trkpt>
<trkpt lat="39.451840" lon="3.191342"><ele>341.89</ele><time>2012-09-29T09:23:50Z</time></trkpt>
<trkpt lat="39.451710" lon="3.191420"><ele>341.89</ele><time>2012-09-29T09:23:55Z</time></trkpt>
<trkpt lat="39.451669" lon="3.191458"><ele>342.37</ele><time>2012-09-29T09:23:57Z</time></trkpt>
<trkpt lat="39.451553" lon="3.191608"><ele>342.37</ele><time>2012-09-29T09:24:06Z</time></trkpt>
<trkpt lat="39.451509" lon="3.191686"><ele>340.92</ele><time>2012-09-29T09:24:09Z</time></trkpt>
<trkpt lat="39.451434" lon="3.191959"><ele>341.89</ele><time>2012-09-29T09:24:16Z</time></trkpt>
<trkpt lat="39.451395" lon="3.192015"><ele>342.37</ele><time>2012-09-29T09:24:18Z</time></trkpt>
<trkpt lat="39.451258" lon="3.192103"><ele>341.89</ele><time>2012-09-29T09:24:23Z</time></trkpt>
<trkpt lat="39.451052" lon="3.192135"><ele>341.41</ele><time>2012-09-29T09:24:30Z</time></trkpt>
<trkpt lat="39.450925" lon="3.192180"><ele>340.92</ele><time>2012-09-29T09:24:35Z</time></trkpt>
<trkpt lat="39.450809" lon="3.192185"><ele>339.48</ele><time>2012-09-29T09:24:41Z</time></trkpt>
<trkpt lat="39.450749" lon="3.192177"><ele>338.52</ele><time>2012-09-29T09:24:43Z</time></trkpt>
<trkpt lat="39.450642" lon="3.192137"><ele>337.56</ele><time>2012-09-29T09:24:49Z</time></trkpt>
<trkpt lat="39.450580" lon="3.192124"><ele>336.60</ele><time>2012-09-29T09:25:43Z</time></trkpt>
<trkpt lat="39.450405" lon="3.192079"><ele>336.60</ele><time>2012-09-29T09:25:50Z</time></trkpt>
<trkpt lat="39.450281" lon="3.191972"><ele>337.08</ele><time>2012-09-29T09:25:55Z</time></trkpt>
<trkpt lat="39.450090" lon="3.191879"><ele>337.08</ele><time>2012-09-29T09:26:02Z</time></trkpt>
<trkpt lat="39.449997" lon="3.191850"><ele>336.12</ele><time>2012-09-29T09:26:06Z</time></trkpt>
<trkpt lat="39.449865" lon="3.191764"><ele>335.16</ele><time>2012-09-29T09:26:11Z</time></trkpt>
<trkpt lat="39.449645" lon="3.191611"><ele>334.20</ele><time>2012-09-29T09:26:17Z</time></trkpt>
<trkpt lat="39.449465" lon="3.191582"><ele>331.31</ele><time>2012-09-29T09:26:22Z</time></trkpt>
<trkpt lat="39.449270" lon="3.191584"><ele>327.47</ele><time>2012-09-29T09:26:27Z</time></trkpt>
<trkpt lat="39.449110" lon="3.191558"><ele>324.58</ele><time>2012-09-29T09:26:30Z</time></trkpt>
<trkpt lat="39.448956" lon="3.191733"><ele>322.18</ele><time>2012-09-29T09:26:34Z</time></trkpt>
<trkpt lat="39.448945" lon="3.191975"><ele>321.22</ele><time>2012-09-29T09:26:38Z</time></trkpt>
<trkpt lat="39.448921" lon="3.192068"><ele>320.74</ele><time>2012-09-29T09:26:40Z</time></trkpt>
<trkpt lat="39.448932" lon="3.192432"><ele>319.78</ele><time>2012-09-29T09:26:46Z</time></trkpt>
<trkpt lat="39.448822" lon="3.192695"><ele>316.89</ele><time>2012-09-29T09:26:51Z</time></trkpt>
<trkpt lat="39.448772" lon="3.192756"><ele>316.41</ele><time>2012-09-29T09:26:52Z</time></trkpt>
<trkpt lat="39.448586" lon="3.192932"><ele>313.53</ele><time>2012-09-29T09:26:55Z</time></trkpt>
<trkpt lat="39.448552" lon="3.193131"><ele>311.60</ele><time>2012-09-29T09:26:59Z</time></trkpt>
<trkpt lat="39.448575" lon="3.193180"><ele>310.64</ele><time>2012-09-29T09:27:01Z</time></trkpt>
<trkpt lat="39.448621" lon="3.193343"><ele>306.32</ele><time>2012-09-29T09:27:08Z</time></trkpt>
<trkpt lat="39.448695" lon="3.193460"><ele>302.95</ele><time>2012-09-29T09:27:12Z</time></trkpt>
<trkpt lat="39.448770" lon="3.193597"><ele>299.59</ele><time>2012-09-29T09:27:16Z</time></trkpt>
<trkpt lat="39.448822" lon="3.193696"><ele>297.67</ele><time>2012-09-29T09:27:19Z</time></trkpt>
<trkpt lat="39.448937" lon="3.193688"><ele>294.78</ele><time>2012-09-29T09:27:24Z</time></trkpt>
<trkpt lat="39.449069" lon="3.193597"><ele>291.90</ele><time>2012-09-29T09:27:28Z</time></trkpt>
<trkpt lat="39.449125" lon="3.193685"><ele>289.49</ele><time>2012-09-29T09:27:32Z</time></trkpt>
<trkpt lat="39.449144" lon="3.193704"><ele>289.49</ele><time>2012-09-29T09:27:33Z</time></trkpt>
<trkpt lat="39.449318" lon="3.193744"><ele>285.17</ele><time>2012-09-29T09:27:38Z</time></trkpt>
<trkpt lat="39.449452" lon="3.193860"><ele>282.28</ele><time>2012-09-29T09:27:43Z</time></trkpt>
<trkpt lat="39.449466" lon="3.193851"><ele>282.28</ele><time>2012-09-29T09:27:44Z</time></trkpt>
<trkpt lat="39.449575" lon="3.193820"><ele>281.80</ele><time>2012-09-29T09:27:53Z</time></trkpt>
<trkpt lat="39.449589" lon="3.193816"><ele>281.32</ele><time>2012-09-29T09:28:08Z</time></trkpt>
<trkpt lat="39.449610" lon="3.193826"><ele>280.84</ele><time>2012-09-29T09:28:32Z</time></trkpt>
<trkpt lat="39.449598" lon="3.193832"><ele>278.92</ele><time>2012-09-29T09:31:00Z</time></trkpt>
<trkpt lat="39.449599" lon="3.193832"><ele>282.28</ele><time>2012-09-29T09:31:11Z</time></trkpt>
<trkpt lat="39.449599" lon="3.193832"><ele>283.25</ele><time>2012-09-29T09:31:13Z</time></trkpt>
<trkpt lat="39.449608" lon="3.193830"><ele>280.36</ele><time>2012-09-29T09:33:19Z</time></trkpt>
<trkpt lat="39.449610" lon="3.193831"><ele>281.80</ele><time>2012-09-29T09:34:09Z</time></trkpt>
<trkpt lat="39.449628" lon="3.193821"><ele>281.80</ele><time>2012-09-29T09:40:11Z</time></trkpt>
<trkpt lat="39.449710" lon="3.193783"><ele>281.32</ele><time>2012-09-29T09:40:17Z</time></trkpt>
<trkpt lat="39.449754" lon="3.193763"><ele>280.36</ele><time>2012-09-29T09:40:18Z</time></trkpt>
<trkpt lat="39.449854" lon="3.193605"><ele>280.36</ele><time>2012-09-29T09:40:22Z</time></trkpt>
<trkpt lat="39.449947" lon="3.193636"><ele>281.32</ele><time>2012-09-29T09:40:26Z</time></trkpt>
<trkpt lat="39.449967" lon="3.193676"><ele>281.80</ele><time>2012-09-29T09:40:27Z</time></trkpt>
<trkpt lat="39.449977" lon="3.193841"><ele>281.32</ele><time>2012-09-29T09:40:31Z</time></trkpt>
<trkpt lat="39.450092" lon="3.193975"><ele>279.40</ele><time>2012-09-29T09:40:35Z</time></trkpt>
<trkpt lat="39.450136" lon="3.194227"><ele>276.04</ele><time>2012-09-29T09:40:39Z</time></trkpt>
<trkpt lat="39.450167" lon="3.194490"><ele>272.67</ele><time>2012-09-29T09:40:42Z</time></trkpt>
<trkpt lat="39.450282" lon="3.194840"><ele>270.27</ele><time>2012-09-29T09:40:46Z</time></trkpt>
<trkpt lat="39.450357" lon="3.195082"><ele>270.75</ele><time>2012-09-29T09:40:50Z</time></trkpt>
<trkpt lat="39.450442" lon="3.195404"><ele>271.23</ele><time>2012-09-29T09:40:56Z</time></trkpt>
<trkpt lat="39.450413" lon="3.195590"><ele>271.23</ele><time>2012-09-29T09:40:59Z</time></trkpt>
<trkpt lat="39.450396" lon="3.195781"><ele>271.23</ele><time>2012-09-29T09:41:02Z</time></trkpt>
<trkpt lat="39.450271" lon="3.196170"><ele>270.75</ele><time>2012-09-29T09:41:08Z</time></trkpt>
<trkpt lat="39.450231" lon="3.196324"><ele>270.75</ele><time>2012-09-29T09:41:10Z</time></trkpt>
<trkpt lat="39.450319" lon="3.196602"><ele>270.27</ele><time>2012-09-29T09:41:14Z</time></trkpt>
<trkpt lat="39.450539" lon="3.196794"><ele>269.31</ele><time>2012-09-29T09:41:18Z</time></trkpt>
<trkpt lat="39.450841" lon="3.196911"><ele>266.42</ele><time>2012-09-29T09:41:22Z</time></trkpt>
<trkpt lat="39.450922" lon="3.196927"><ele>266.42</ele><time>2012-09-29T09:41:23Z</time></trkpt>
<trkpt lat="39.451085" lon="3.196945"><ele>265.94</ele><time>2012-09-29T09:41:25Z</time></trkpt>
<trkpt lat="39.451297" lon="3.196937"><ele>264.50</ele><time>2012-09-29T09:41:28Z</time></trkpt>
<trkpt lat="39.451507" lon="3.197103"><ele>262.10</ele><time>2012-09-29T09:41:32Z</time></trkpt>
<trkpt lat="39.451528" lon="3.197316"><ele>257.77</ele><time>2012-09-29T09:41:36Z</time></trkpt>
<trkpt lat="39.451320" lon="3.197681"><ele>254.89</ele><time>2012-09-29T09:41:41Z</time></trkpt>
<trkpt lat="39.451195" lon="3.197927"><ele>253.44</ele><time>2012-09-29T09:41:44Z</time></trkpt>
<trkpt lat="39.451179" lon="3.198016"><ele>252.96</ele><time>2012-09-29T09:41:45Z</time></trkpt>
<trkpt lat="39.451165" lon="3.198187"><ele>252.00</ele><time>2012-09-29T09:41:47Z</time></trkpt>
<trkpt lat="39.451253" lon="3.198785"><ele>250.56</ele><time>2012-09-29T09:41:54Z</time></trkpt>
<trkpt lat="39.451266" lon="3.198870"><ele>250.56</ele><time>2012-09-29T09:41:55Z</time></trkpt>
<trkpt lat="39.451293" lon="3.199143"><ele>249.60</ele><time>2012-09-29T09:41:58Z</time></trkpt>
<trkpt lat="39.451458" lon="3.199471"><ele>249.60</ele><time>2012-09-29T09:42:03Z</time></trkpt>
<trkpt lat="39.451609" lon="3.199493"><ele>249.12</ele><time>2012-09-29T09:42:06Z</time></trkpt>
<trkpt lat="39.451643" lon="3.199456"><ele>248.16</ele><time>2012-09-29T09:42:07Z</time></trkpt>
<trkpt lat="39.451889" lon="3.199395"><ele>243.35</ele><time>2012-09-29T09:42:12Z</time></trkpt>
<trkpt lat="39.452090" lon="3.199749"><ele>238.06</ele><time>2012-09-29T09:42:18Z</time></trkpt>
<trkpt lat="39.452233" lon="3.200209"><ele>233.26</ele><time>2012-09-29T09:42:23Z</time></trkpt>
<trkpt lat="39.452253" lon="3.200290"><ele>232.30</ele><time>2012-09-29T09:42:24Z</time></trkpt>
<trkpt lat="39.452457" lon="3.200530"><ele>228.45</ele><time>2012-09-29T09:42:28Z</time></trkpt>
<trkpt lat="39.452512" lon="3.200586"><ele>227.49</ele><time>2012-09-29T09:42:29Z</time></trkpt>
<trkpt lat="39.452656" lon="3.200839"><ele>224.12</ele><time>2012-09-29T09:42:33Z</time></trkpt>
<trkpt lat="39.452735" lon="3.200995"><ele>221.72</ele><time>2012-09-29T09:42:35Z</time></trkpt>
<trkpt lat="39.452928" lon="3.201216"><ele>217.40</ele><time>2012-09-29T09:42:39Z</time></trkpt>
<trkpt lat="39.453104" lon="3.201320"><ele>212.59</ele><time>2012-09-29T09:42:42Z</time></trkpt>
<trkpt lat="39.453348" lon="3.201395"><ele>208.26</ele><time>2012-09-29T09:42:46Z</time></trkpt>
<trkpt lat="39.453517" lon="3.201549"><ele>204.42</ele><time>2012-09-29T09:42:51Z</time></trkpt>
<trkpt lat="39.453636" lon="3.201554"><ele>203.46</ele><time>2012-09-29T09:42:57Z</time></trkpt>
<trkpt lat="39.453646" lon="3.201555"><ele>203.46</ele><time>2012-09-29T09:42:58Z</time></trkpt>
<trkpt lat="39.453780" lon="3.201639"><ele>202.98</ele><time>2012-09-29T09:43:08Z</time></trkpt>
<trkpt lat="39.453827" lon="3.201681"><ele>202.01</ele><time>2012-09-29T09:43:28Z</time></trkpt>
<trkpt lat="39.454008" lon="3.201770"><ele>200.09</ele><time>2012-09-29T09:43:33Z</time></trkpt>
<trkpt lat="39.454054" lon="3.201788"><ele>200.09</ele><time>2012-09-29T09:43:34Z</time></trkpt>
<trkpt lat="39.454279" lon="3.201887"><ele>199.61</ele><time>2012-09-29T09:43:38Z</time></trkpt>
<trkpt lat="39.454553" lon="3.201930"><ele>198.17</ele><time>2012-09-29T09:43:43Z</time></trkpt>
<trkpt lat="39.454771" lon="3.201905"><ele>197.69</ele><time>2012-09-29T09:43:47Z</time></trkpt>
<trkpt lat="39.454969" lon="3.201843"><ele>197.21</ele><time>2012-09-29T09:43:51Z</time></trkpt>
<trkpt lat="39.455147" lon="3.201846"><ele>197.21</ele><time>2012-09-29T09:43:54Z</time></trkpt>
<trkpt lat="39.455436" lon="3.201910"><ele>201.05</ele><time>2012-09-29T09:44:01Z</time></trkpt>
<trkpt lat="39.455637" lon="3.202017"><ele>204.42</ele><time>2012-09-29T09:44:07Z</time></trkpt>
<trkpt lat="39.455850" lon="3.202209"><ele>206.34</ele><time>2012-09-29T09:44:15Z</time></trkpt>
<trkpt lat="39.456015" lon="3.202280"><ele>205.38</ele><time>2012-09-29T09:44:22Z</time></trkpt>
<trkpt lat="39.456044" lon="3.202280"><ele>204.42</ele><time>2012-09-29T09:44:29Z</time></trkpt>
<trkpt lat="39.456122" lon="3.202318"><ele>202.01</ele><time>2012-09-29T09:44:41Z</time></trkpt>
<trkpt lat="39.456286" lon="3.202328"><ele>200.57</ele><time>2012-09-29T09:44:47Z</time></trkpt>
<trkpt lat="39.456507" lon="3.202228"><ele>200.57</ele><time>2012-09-29T09:44:53Z</time></trkpt>
<trkpt lat="39.456619" lon="3.202190"><ele>202.01</ele><time>2012-09-29T09:44:57Z</time></trkpt>
<trkpt lat="39.456662" lon="3.202201"><ele>202.01</ele><time>2012-09-29T09:45:00Z</time></trkpt>
<trkpt lat="39.456672" lon="3.202406"><ele>199.13</ele><time>2012-09-29T09:45:05Z</time></trkpt>
<trkpt lat="39.456817" lon="3.202739"><ele>196.25</ele><time>2012-09-29T09:45:10Z</time></trkpt>
<trkpt lat="39.456856" lon="3.202790"><ele>195.77</ele><time>2012-09-29T09:45:11Z</time></trkpt>
<trkpt lat="39.457003" lon="3.202756"><ele>194.80</ele><time>2012-09-29T09:45:16Z</time></trkpt>
<trkpt lat="39.457058" lon="3.202730"><ele>194.32</ele><time>2012-09-29T09:45:18Z</time></trkpt>
<trkpt lat="39.457144" lon="3.202780"><ele>192.40</ele><time>2012-09-29T09:45:22Z</time></trkpt>
<trkpt lat="39.457280" lon="3.202806"><ele>190.00</ele><time>2012-09-29T09:45:26Z</time></trkpt>
<trkpt lat="39.457399" lon="3.202882"><ele>189.04</ele><time>2012-09-29T09:45:28Z</time></trkpt>
<trkpt lat="39.457530" lon="3.203004"><ele>186.63</ele><time>2012-09-29T09:45:31Z</time></trkpt>
<trkpt lat="39.457608" lon="3.203265"><ele>184.71</ele><time>2012-09-29T09:45:35Z</time></trkpt>
<trkpt lat="39.457725" lon="3.203462"><ele>182.79</ele><time>2012-09-29T09:45:38Z</time></trkpt>
<trkpt lat="39.457938" lon="3.203691"><ele>181.35</ele><time>2012-09-29T09:45:42Z</time></trkpt>
<trkpt lat="39.458173" lon="3.203912"><ele>180.87</ele><time>2012-09-29T09:45:48Z</time></trkpt>
<trkpt lat="39.458272" lon="3.204005"><ele>180.87</ele><time>2012-09-29T09:45:51Z</time></trkpt>
<trkpt lat="39.458527" lon="3.204110"><ele>179.42</ele><time>2012-09-29T09:45:56Z</time></trkpt>
<trkpt lat="39.458905" lon="3.204141"><ele>177.50</ele><time>2012-09-29T09:46:02Z</time></trkpt>
<trkpt lat="39.459231" lon="3.204174"><ele>174.14</ele><time>2012-09-29T09:46:07Z</time></trkpt>
<trkpt lat="39.459264" lon="3.204179"><ele>173.66</ele><time>2012-09-29T09:46:08Z</time></trkpt>
<trkpt lat="39.459294" lon="3.204144"><ele>172.21</ele><time>2012-09-29T09:46:10Z</time></trkpt>
<trkpt lat="39.459342" lon="3.203959"><ele>172.69</ele><time>2012-09-29T09:46:15Z</time></trkpt>
<trkpt lat="39.459403" lon="3.203530"><ele>175.58</ele><time>2012-09-29T09:46:24Z</time></trkpt>
<trkpt lat="39.459263" lon="3.203356"><ele>176.54</ele><time>2012-09-29T09:46:29Z</time></trkpt>
<trkpt lat="39.459179" lon="3.203245"><ele>178.46</ele><time>2012-09-29T09:46:33Z</time></trkpt>
<trkpt lat="39.459161" lon="3.203087"><ele>179.90</ele><time>2012-09-29T09:46:38Z</time></trkpt>
<trkpt lat="39.459173" lon="3.203054"><ele>179.90</ele><time>2012-09-29T09:46:39Z</time></trkpt>
<trkpt lat="39.459346" lon="3.202919"><ele>178.46</ele><time>2012-09-29T09:46:44Z</time></trkpt>
<trkpt lat="39.459397" lon="3.202882"><ele>177.50</ele><time>2012-09-29T09:46:45Z</time></trkpt>
<trkpt lat="39.459583" lon="3.202744"><ele>175.10</ele><time>2012-09-29T09:46:48Z</time></trkpt>
<trkpt lat="39.459904" lon="3.202542"><ele>172.69</ele><time>2012-09-29T09:46:52Z</time></trkpt>
<trkpt lat="39.460012" lon="3.202468"><ele>173.17</ele><time>2012-09-29T09:46:54Z</time></trkpt>
<trkpt lat="39.460148" lon="3.202645"><ele>173.17</ele><time>2012-09-29T09:46:59Z</time></trkpt>
<trkpt lat="39.460330" lon="3.202900"><ele>173.66</ele><time>2012-09-29T09:47:05Z</time></trkpt>
<trkpt lat="39.460556" lon="3.203183"><ele>173.17</ele><time>2012-09-29T09:47:11Z</time></trkpt>
<trkpt lat="39.460656" lon="3.203321"><ele>172.69</ele><time>2012-09-29T09:47:14Z</time></trkpt>
<trkpt lat="39.460767" lon="3.203439"><ele>171.25</ele><time>2012-09-29T09:47:17Z</time></trkpt>
<trkpt lat="39.461003" lon="3.203638"><ele>168.37</ele><time>2012-09-29T09:47:22Z</time></trkpt>
<trkpt lat="39.461335" lon="3.203991"><ele>164.52</ele><time>2012-09-29T09:47:27Z</time></trkpt>
<trkpt lat="39.461471" lon="3.204156"><ele>164.04</ele><time>2012-09-29T09:47:29Z</time></trkpt>
<trkpt lat="39.461768" lon="3.204458"><ele>163.08</ele><time>2012-09-29T09:47:34Z</time></trkpt>
<trkpt lat="39.462086" lon="3.204757"><ele>164.04</ele><time>2012-09-29T09:47:40Z</time></trkpt>
<trkpt lat="39.462423" lon="3.205073"><ele>165.00</ele><time>2012-09-29T09:47:48Z</time></trkpt>
<trkpt lat="39.462673" lon="3.205307"><ele>161.16</ele><time>2012-09-29T09:47:54Z</time></trkpt>
<trkpt lat="39.462827" lon="3.205457"><ele>157.31</ele><time>2012-09-29T09:47:59Z</time></trkpt>
<trkpt lat="39.462850" lon="3.205519"><ele>156.83</ele><time>2012-09-29T09:48:01Z</time></trkpt>
<trkpt lat="39.462823" lon="3.205586"><ele>155.87</ele><time>2012-09-29T09:48:03Z</time></trkpt>
<trkpt lat="39.462590" lon="3.205949"><ele>154.91</ele><time>2012-09-29T09:48:10Z</time></trkpt>
<trkpt lat="39.462201" lon="3.206554"><ele>152.51</ele><time>2012-09-29T09:48:19Z</time></trkpt>
<trkpt lat="39.461858" lon="3.207140"><ele>149.14</ele><time>2012-09-29T09:48:27Z</time></trkpt>
<trkpt lat="39.461773" lon="3.207282"><ele>149.14</ele><time>2012-09-29T09:48:29Z</time></trkpt>
<trkpt lat="39.461730" lon="3.207465"><ele>148.66</ele><time>2012-09-29T09:48:34Z</time></trkpt>
<trkpt lat="39.461748" lon="3.207472"><ele>148.66</ele><time>2012-09-29T09:48:36Z</time></trkpt>
<trkpt lat="39.461793" lon="3.207479"><ele>148.66</ele><time>2012-09-29T09:48:45Z</time></trkpt>
<trkpt lat="39.461787" lon="3.207481"><ele>145.78</ele><time>2012-09-29T09:49:03Z</time></trkpt>
<trkpt lat="39.461794" lon="3.207488"><ele>148.66</ele><time>2012-09-29T09:49:10Z</time></trkpt>
<trkpt lat="39.461810" lon="3.207507"><ele>149.14</ele><time>2012-09-29T09:50:01Z</time></trkpt>
<trkpt lat="39.461809" lon="3.207504"><ele>149.14</ele><time>2012-09-29T09:50:17Z</time></trkpt>
<trkpt lat="39.461819" lon="3.207510"><ele>148.18</ele><time>2012-09-29T09:50:36Z</time></trkpt>
<trkpt lat="39.461915" lon="3.207638"><ele>146.26</ele><time>2012-09-29T09:50:55Z</time></trkpt>
<trkpt lat="39.461989" lon="3.207951"><ele>144.82</ele><time>2012-09-29T09:51:00Z</time></trkpt>
<trkpt lat="39.461993" lon="3.208092"><ele>143.85</ele><time>2012-09-29T09:51:02Z</time></trkpt>
<trkpt lat="39.462084" lon="3.208332"><ele>142.41</ele><time>2012-09-29T09:51:06Z</time></trkpt>
<trkpt lat="39.462133" lon="3.208381"><ele>141.93</ele><time>2012-09-29T09:51:07Z</time></trkpt>
<trkpt lat="39.462240" lon="3.208456"><ele>140.97</ele><time>2012-09-29T09:51:09Z</time></trkpt>
<trkpt lat="39.462404" lon="3.208570"><ele>140.01</ele><time>2012-09-29T09:51:12Z</time></trkpt>
<trkpt lat="39.462866" lon="3.208966"><ele>138.57</ele><time>2012-09-29T09:51:20Z</time></trkpt>
<trkpt lat="39.463166" lon="3.209214"><ele>137.61</ele><time>2012-09-29T09:51:26Z</time></trkpt>
<trkpt lat="39.463269" lon="3.209262"><ele>138.09</ele><time>2012-09-29T09:51:31Z</time></trkpt>
<trkpt lat="39.463443" lon="3.209222"><ele>137.13</ele><time>2012-09-29T09:51:36Z</time></trkpt>
<trkpt lat="39.463678" lon="3.209081"><ele>137.13</ele><time>2012-09-29T09:51:42Z</time></trkpt>
<trkpt lat="39.463908" lon="3.209111"><ele>137.13</ele><time>2012-09-29T09:51:47Z</time></trkpt>
<trkpt lat="39.464009" lon="3.209304"><ele>139.53</ele><time>2012-09-29T09:51:53Z</time></trkpt>
<trkpt lat="39.464020" lon="3.209337"><ele>139.53</ele><time>2012-09-29T09:51:54Z</time></trkpt>
<trkpt lat="39.464041" lon="3.209440"><ele>140.97</ele><time>2012-09-29T09:51:57Z</time></trkpt>
<trkpt lat="39.464149" lon="3.209651"><ele>142.41</ele><time>2012-09-29T09:52:05Z</time></trkpt>
<trkpt lat="39.464339" lon="3.209831"><ele>142.89</ele><time>2012-09-29T09:52:12Z</time></trkpt>
<trkpt lat="39.464504" lon="3.209989"><ele>144.82</ele><time>2012-09-29T09:52:19Z</time></trkpt>
<trkpt lat="39.464719" lon="3.210260"><ele>146.74</ele><time>2012-09-29T09:52:31Z</time></trkpt>
<trkpt lat="39.464870" lon="3.210463"><ele>150.10</ele><time>2012-09-29T09:52:41Z</time></trkpt>
<trkpt lat="39.464973" lon="3.210607"><ele>152.51</ele><time>2012-09-29T09:52:49Z</time></trkpt>
<trkpt lat="39.465061" lon="3.210772"><ele>153.95</ele><time>2012-09-29T09:52:56Z</time></trkpt>
<trkpt lat="39.465234" lon="3.210950"><ele>154.91</ele><time>2012-09-29T09:53:05Z</time></trkpt>
<trkpt lat="39.465303" lon="3.211031"><ele>154.43</ele><time>2012-09-29T09:53:08Z</time></trkpt>
<trkpt lat="39.465401" lon="3.211209"><ele>153.47</ele><time>2012-09-29T09:53:12Z</time></trkpt>
<trkpt lat="39.465642" lon="3.211339"><ele>151.06</ele><time>2012-09-29T09:53:17Z</time></trkpt>
<trkpt lat="39.465698" lon="3.211342"><ele>151.06</ele><time>2012-09-29T09:53:18Z</time></trkpt>
<trkpt lat="39.466005" lon="3.211206"><ele>148.18</ele><time>2012-09-29T09:53:24Z</time></trkpt>
<trkpt lat="39.466052" lon="3.211135"><ele>147.22</ele><time>2012-09-29T09:53:25Z</time></trkpt>
<trkpt lat="39.466112" lon="3.210986"><ele>146.26</ele><time>2012-09-29T09:53:27Z</time></trkpt>
<trkpt lat="39.466315" lon="3.210873"><ele>144.82</ele><time>2012-09-29T09:53:31Z</time></trkpt>
<trkpt lat="39.466360" lon="3.210886"><ele>144.82</ele><time>2012-09-29T09:53:32Z</time></trkpt>
<trkpt lat="39.466619" lon="3.210928"><ele>146.74</ele><time>2012-09-29T09:53:39Z</time></trkpt>
<trkpt lat="39.466816" lon="3.211018"><ele>148.66</ele><time>2012-09-29T09:53:45Z</time></trkpt>
<trkpt lat="39.466843" lon="3.211027"><ele>148.66</ele><time>2012-09-29T09:53:46Z</time></trkpt>
<trkpt lat="39.466923" lon="3.211049"><ele>150.10</ele><time>2012-09-29T09:53:49Z</time></trkpt>
<trkpt lat="39.467110" lon="3.211090"><ele>151.54</ele><time>2012-09-29T09:53:56Z</time></trkpt>
<trkpt lat="39.467265" lon="3.211195"><ele>152.99</ele><time>2012-09-29T09:54:03Z</time></trkpt>
<trkpt lat="39.467445" lon="3.211322"><ele>153.47</ele><time>2012-09-29T09:54:11Z</time></trkpt>
<trkpt lat="39.467581" lon="3.211516"><ele>152.99</ele><time>2012-09-29T09:54:18Z</time></trkpt>
<trkpt lat="39.467682" lon="3.211795"><ele>150.58</ele><time>2012-09-29T09:54:25Z</time></trkpt>
<trkpt lat="39.467714" lon="3.211925"><ele>148.18</ele><time>2012-09-29T09:54:28Z</time></trkpt>
<trkpt lat="39.467727" lon="3.212182"><ele>145.78</ele><time>2012-09-29T09:54:32Z</time></trkpt>
<trkpt lat="39.467721" lon="3.212316"><ele>144.82</ele><time>2012-09-29T09:54:34Z</time></trkpt>
<trkpt lat="39.467735" lon="3.212463"><ele>141.93</ele><time>2012-09-29T09:54:36Z</time></trkpt>
<trkpt lat="39.467720" lon="3.212785"><ele>137.61</ele><time>2012-09-29T09:54:41Z</time></trkpt>
<trkpt lat="39.467853" lon="3.212834"><ele>134.72</ele><time>2012-09-29T09:54:46Z</time></trkpt>
<trkpt lat="39.467893" lon="3.212815"><ele>134.24</ele><time>2012-09-29T09:54:47Z</time></trkpt>
<trkpt lat="39.467979" lon="3.212749"><ele>133.28</ele><time>2012-09-29T09:54:49Z</time></trkpt>
<trkpt lat="39.468108" lon="3.212616"><ele>131.36</ele><time>2012-09-29T09:54:52Z</time></trkpt>
<trkpt lat="39.468233" lon="3.212452"><ele>129.92</ele><time>2012-09-29T09:54:55Z</time></trkpt>
<trkpt lat="39.468419" lon="3.212312"><ele>127.51</ele><time>2012-09-29T09:54:59Z</time></trkpt>
<trkpt lat="39.468825" lon="3.212203"><ele>125.11</ele><time>2012-09-29T09:55:05Z</time></trkpt>
<trkpt lat="39.469109" lon="3.212265"><ele>123.19</ele><time>2012-09-29T09:55:10Z</time></trkpt>
<trkpt lat="39.469280" lon="3.212317"><ele>121.26</ele><time>2012-09-29T09:55:13Z</time></trkpt>
<trkpt lat="39.469648" lon="3.212312"><ele>120.30</ele><time>2012-09-29T09:55:20Z</time></trkpt>
<trkpt lat="39.469795" lon="3.212342"><ele>119.82</ele><time>2012-09-29T09:55:23Z</time></trkpt>
<trkpt lat="39.469890" lon="3.212385"><ele>119.34</ele><time>2012-09-29T09:55:25Z</time></trkpt>
<trkpt lat="39.469986" lon="3.212453"><ele>119.34</ele><time>2012-09-29T09:55:27Z</time></trkpt>
<trkpt lat="39.470119" lon="3.212585"><ele>118.38</ele><time>2012-09-29T09:55:30Z</time></trkpt>
<trkpt lat="39.470257" lon="3.212701"><ele>118.38</ele><time>2012-09-29T09:55:33Z</time></trkpt>
<trkpt lat="39.470528" lon="3.212811"><ele>117.90</ele><time>2012-09-29T09:55:39Z</time></trkpt>
<trkpt lat="39.470750" lon="3.212995"><ele>115.50</ele><time>2012-09-29T09:55:44Z</time></trkpt>
<trkpt lat="39.471040" lon="3.213178"><ele>114.05</ele><time>2012-09-29T09:55:49Z</time></trkpt>
<trkpt lat="39.471302" lon="3.213416"><ele>112.61</ele><time>2012-09-29T09:55:54Z</time></trkpt>
<trkpt lat="39.471622" lon="3.213676"><ele>110.69</ele><time>2012-09-29T09:56:00Z</time></trkpt>
<trkpt lat="39.471885" lon="3.214090"><ele>109.25</ele><time>2012-09-29T09:56:06Z</time></trkpt>
<trkpt lat="39.472122" lon="3.214670"><ele>106.36</ele><time>2012-09-29T09:56:13Z</time></trkpt>
<trkpt lat="39.472207" lon="3.214792"><ele>104.92</ele><time>2012-09-29T09:56:16Z</time></trkpt>
<trkpt lat="39.472241" lon="3.214813"><ele>104.44</ele><time>2012-09-29T09:56:22Z</time></trkpt>
<trkpt lat="39.472297" lon="3.214860"><ele>103.48</ele><time>2012-09-29T09:56:35Z</time></trkpt>
<trkpt lat="39.472434" lon="3.214953"><ele>105.40</ele><time>2012-09-29T09:56:42Z</time></trkpt>
<trkpt lat="39.472609" lon="3.215074"><ele>107.81</ele><time>2012-09-29T09:56:51Z</time></trkpt>
<trkpt lat="39.472812" lon="3.215244"><ele>110.21</ele><time>2012-09-29T09:57:02Z</time></trkpt>
<trkpt lat="39.473012" lon="3.215395"><ele>111.65</ele><time>2012-09-29T09:57:12Z</time></trkpt>
<trkpt lat="39.473269" lon="3.215629"><ele>114.53</ele><time>2012-09-29T09:57:25Z</time></trkpt>
<trkpt lat="39.473477" lon="3.215907"><ele>114.05</ele><time>2012-09-29T09:57:35Z</time></trkpt>
<trkpt lat="39.473500" lon="3.215976"><ele>113.57</ele><time>2012-09-29T09:57:36Z</time></trkpt>
<trkpt lat="39.473713" lon="3.216226"><ele>112.61</ele><time>2012-09-29T09:57:41Z</time></trkpt>
<trkpt lat="39.473764" lon="3.216247"><ele>112.61</ele><time>2012-09-29T09:57:42Z</time></trkpt>
<trkpt lat="39.473859" lon="3.216286"><ele>113.09</ele><time>2012-09-29T09:57:44Z</time></trkpt>
<trkpt lat="39.474217" lon="3.216467"><ele>114.53</ele><time>2012-09-29T09:57:54Z</time></trkpt>
<trkpt lat="39.474514" lon="3.216604"><ele>116.94</ele><time>2012-09-29T09:58:05Z</time></trkpt>
<trkpt lat="39.474692" lon="3.216659"><ele>118.38</ele><time>2012-09-29T09:58:14Z</time></trkpt>
<trkpt lat="39.474725" lon="3.216683"><ele>118.38</ele><time>2012-09-29T09:58:17Z</time></trkpt>
<trkpt lat="39.474777" lon="3.216736"><ele>118.86</ele><time>2012-09-29T09:58:25Z</time></trkpt>
<trkpt lat="39.474828" lon="3.216823"><ele>119.34</ele><time>2012-09-29T09:58:39Z</time></trkpt>
<trkpt lat="39.474910" lon="3.217027"><ele>121.26</ele><time>2012-09-29T09:58:47Z</time></trkpt>
<trkpt lat="39.474964" lon="3.217230"><ele>121.74</ele><time>2012-09-29T09:58:55Z</time></trkpt>
<trkpt lat="39.475068" lon="3.217446"><ele>120.30</ele><time>2012-09-29T09:59:01Z</time></trkpt>
<trkpt lat="39.475334" lon="3.217709"><ele>118.86</ele><time>2012-09-29T09:59:08Z</time></trkpt>
<trkpt lat="39.475558" lon="3.217804"><ele>118.38</ele><time>2012-09-29T09:59:15Z</time></trkpt>
<trkpt lat="39.475680" lon="3.217824"><ele>117.90</ele><time>2012-09-29T09:59:18Z</time></trkpt>
<trkpt lat="39.475862" lon="3.217898"><ele>116.94</ele><time>2012-09-29T09:59:23Z</time></trkpt>
<trkpt lat="39.475928" lon="3.218043"><ele>117.42</ele><time>2012-09-29T09:59:27Z</time></trkpt>
<trkpt lat="39.476180" lon="3.218304"><ele>117.90</ele><time>2012-09-29T09:59:35Z</time></trkpt>
<trkpt lat="39.476239" lon="3.218501"><ele>118.38</ele><time>2012-09-29T09:59:39Z</time></trkpt>
<trkpt lat="39.476281" lon="3.218602"><ele>118.86</ele><time>2012-09-29T09:59:41Z</time></trkpt>
<trkpt lat="39.476380" lon="3.218922"><ele>121.26</ele><time>2012-09-29T09:59:47Z</time></trkpt>
<trkpt lat="39.476489" lon="3.219158"><ele>121.26</ele><time>2012-09-29T09:59:53Z</time></trkpt>
<trkpt lat="39.476467" lon="3.219223"><ele>121.74</ele><time>2012-09-29T09:59:55Z</time></trkpt>
<trkpt lat="39.476363" lon="3.219495"><ele>120.30</ele><time>2012-09-29T10:00:01Z</time></trkpt>
<trkpt lat="39.476252" lon="3.219691"><ele>119.82</ele><time>2012-09-29T10:00:04Z</time></trkpt>
<trkpt lat="39.476033" lon="3.219906"><ele>117.90</ele><time>2012-09-29T10:00:08Z</time></trkpt>
<trkpt lat="39.475860" lon="3.220211"><ele>116.94</ele><time>2012-09-29T10:00:12Z</time></trkpt>
<trkpt lat="39.475536" lon="3.220659"><ele>115.01</ele><time>2012-09-29T10:00:18Z</time></trkpt>
<trkpt lat="39.475412" lon="3.220908"><ele>114.05</ele><time>2012-09-29T10:00:21Z</time></trkpt>
<trkpt lat="39.475183" lon="3.221175"><ele>111.65</ele><time>2012-09-29T10:00:25Z</time></trkpt>
<trkpt lat="39.474951" lon="3.221591"><ele>109.73</ele><time>2012-09-29T10:00:30Z</time></trkpt>
<trkpt lat="39.474687" lon="3.221974"><ele>109.25</ele><time>2012-09-29T10:00:35Z</time></trkpt>
<trkpt lat="39.474346" lon="3.222309"><ele>107.32</ele><time>2012-09-29T10:00:40Z</time></trkpt>
<trkpt lat="39.474270" lon="3.222360"><ele>106.84</ele><time>2012-09-29T10:00:41Z</time></trkpt>
<trkpt lat="39.473964" lon="3.222696"><ele>103.96</ele><time>2012-09-29T10:00:46Z</time></trkpt>
<trkpt lat="39.473912" lon="3.222775"><ele>103.48</ele><time>2012-09-29T10:00:47Z</time></trkpt>
<trkpt lat="39.473719" lon="3.223129"><ele>102.52</ele><time>2012-09-29T10:00:51Z</time></trkpt>
<trkpt lat="39.473598" lon="3.223565"><ele>100.60</ele><time>2012-09-29T10:00:55Z</time></trkpt>
<trkpt lat="39.473316" lon="3.224302"><ele>98.67</ele><time>2012-09-29T10:01:02Z</time></trkpt>
<trkpt lat="39.473078" lon="3.224687"><ele>98.19</ele><time>2012-09-29T10:01:07Z</time></trkpt>
<trkpt lat="39.472668" lon="3.225082"><ele>94.35</ele><time>2012-09-29T10:01:13Z</time></trkpt>
<trkpt lat="39.472484" lon="3.225327"><ele>93.39</ele><time>2012-09-29T10:01:16Z</time></trkpt>
<trkpt lat="39.472340" lon="3.225746"><ele>90.98</ele><time>2012-09-29T10:01:21Z</time></trkpt>
<trkpt lat="39.472377" lon="3.225873"><ele>90.98</ele><time>2012-09-29T10:01:23Z</time></trkpt>
<trkpt lat="39.472455" lon="3.226256"><ele>90.50</ele><time>2012-09-29T10:01:31Z</time></trkpt>
<trkpt lat="39.472481" lon="3.226478"><ele>90.98</ele><time>2012-09-29T10:01:37Z</time></trkpt>
<trkpt lat="39.472540" lon="3.226978"><ele>92.90</ele><time>2012-09-29T10:01:46Z</time></trkpt>
<trkpt lat="39.472547" lon="3.227048"><ele>92.90</ele><time>2012-09-29T10:01:47Z</time></trkpt>
<trkpt lat="39.472707" lon="3.227627"><ele>90.02</ele><time>2012-09-29T10:01:54Z</time></trkpt>
<trkpt lat="39.472780" lon="3.227794"><ele>89.06</ele><time>2012-09-29T10:01:56Z</time></trkpt>
<trkpt lat="39.473030" lon="3.228347"><ele>85.21</ele><time>2012-09-29T10:02:02Z</time></trkpt>
<trkpt lat="39.473102" lon="3.228557"><ele>84.73</ele><time>2012-09-29T10:02:04Z</time></trkpt>
<trkpt lat="39.473129" lon="3.228666"><ele>84.25</ele><time>2012-09-29T10:02:05Z</time></trkpt>
<trkpt lat="39.473161" lon="3.228968"><ele>83.77</ele><time>2012-09-29T10:02:08Z</time></trkpt>
<trkpt lat="39.473162" lon="3.229221"><ele>85.21</ele><time>2012-09-29T10:02:11Z</time></trkpt>
<trkpt lat="39.473197" lon="3.229468"><ele>85.69</ele><time>2012-09-29T10:02:14Z</time></trkpt>
<trkpt lat="39.473230" lon="3.229745"><ele>84.25</ele><time>2012-09-29T10:02:17Z</time></trkpt>
<trkpt lat="39.473270" lon="3.229943"><ele>83.77</ele><time>2012-09-29T10:02:19Z</time></trkpt>
<trkpt lat="39.473306" lon="3.230229"><ele>83.77</ele><time>2012-09-29T10:02:22Z</time></trkpt>
<trkpt lat="39.473370" lon="3.230492"><ele>82.81</ele><time>2012-09-29T10:02:25Z</time></trkpt>
<trkpt lat="39.473430" lon="3.230955"><ele>81.85</ele><time>2012-09-29T10:02:30Z</time></trkpt>
<trkpt lat="39.473452" lon="3.231044"><ele>81.85</ele><time>2012-09-29T10:02:33Z</time></trkpt>
<trkpt lat="39.473451" lon="3.231051"><ele>81.85</ele><time>2012-09-29T10:02:45Z</time></trkpt>
<trkpt lat="39.473448" lon="3.231057"><ele>81.85</ele><time>2012-09-29T10:02:47Z</time></trkpt>
<trkpt lat="39.473438" lon="3.231079"><ele>81.85</ele><time>2012-09-29T10:02:49Z</time></trkpt>
<trkpt lat="39.473451" lon="3.231191"><ele>82.33</ele><time>2012-09-29T10:02:56Z</time></trkpt>
<trkpt lat="39.473454" lon="3.231420"><ele>82.33</ele><time>2012-09-29T10:03:04Z</time></trkpt>
<trkpt lat="39.473461" lon="3.231550"><ele>81.85</ele><time>2012-09-29T10:03:12Z</time></trkpt>
<trkpt lat="39.473454" lon="3.231560"><ele>81.85</ele><time>2012-09-29T10:03:32Z</time></trkpt>
<trkpt lat="39.473462" lon="3.231634"><ele>81.85</ele><time>2012-09-29T10:03:48Z</time></trkpt>
<trkpt lat="39.473558" lon="3.231965"><ele>80.89</ele><time>2012-09-29T10:03:57Z</time></trkpt>
<trkpt lat="39.473586" lon="3.232013"><ele>80.41</ele><time>2012-09-29T10:03:58Z</time></trkpt>
<trkpt lat="39.473716" lon="3.232690"><ele>79.45</ele><time>2012-09-29T10:04:08Z</time></trkpt>
<trkpt lat="39.473815" lon="3.233096"><ele>81.85</ele><time>2012-09-29T10:04:14Z</time></trkpt>
<trkpt lat="39.474026" lon="3.234009"><ele>80.41</ele><time>2012-09-29T10:04:27Z</time></trkpt>
<trkpt lat="39.474089" lon="3.234379"><ele>80.41</ele><time>2012-09-29T10:04:32Z</time></trkpt>
<trkpt lat="39.474121" lon="3.235188"><ele>80.41</ele><time>2012-09-29T10:04:43Z</time></trkpt>
<trkpt lat="39.474040" lon="3.235898"><ele>80.41</ele><time>2012-09-29T10:04:52Z</time></trkpt>
<trkpt lat="39.474094" lon="3.236171"><ele>79.93</ele><time>2012-09-29T10:04:56Z</time></trkpt>
<trkpt lat="39.474145" lon="3.236286"><ele>80.41</ele><time>2012-09-29T10:04:58Z</time></trkpt>
<trkpt lat="39.474308" lon="3.236389"><ele>80.89</ele><time>2012-09-29T10:05:03Z</time></trkpt>
<trkpt lat="39.474504" lon="3.236411"><ele>81.37</ele><time>2012-09-29T10:05:08Z</time></trkpt>
<trkpt lat="39.474639" lon="3.236499"><ele>80.89</ele><time>2012-09-29T10:05:14Z</time></trkpt>
<trkpt lat="39.474641" lon="3.236505"><ele>80.89</ele><time>2012-09-29T10:05:22Z</time></trkpt>
<trkpt lat="39.474633" lon="3.236509"><ele>80.89</ele><time>2012-09-29T10:06:23Z</time></trkpt>
<trkpt lat="39.474631" lon="3.236510"><ele>80.89</ele><time>2012-09-29T10:07:39Z</time></trkpt>
<trkpt lat="39.474630" lon="3.236511"><ele>79.93</ele><time>2012-09-29T10:08:10Z</time></trkpt>
<trkpt lat="39.474669" lon="3.236575"><ele>79.93</ele><time>2012-09-29T10:08:14Z</time></trkpt>
<trkpt lat="39.474731" lon="3.236839"><ele>78.00</ele><time>2012-09-29T10:08:20Z</time></trkpt>
<trkpt lat="39.474768" lon="3.237364"><ele>76.56</ele><time>2012-09-29T10:08:28Z</time></trkpt>
<trkpt lat="39.474794" lon="3.237753"><ele>74.64</ele><time>2012-09-29T10:08:33Z</time></trkpt>
<trkpt lat="39.474825" lon="3.237958"><ele>72.24</ele><time>2012-09-29T10:08:38Z</time></trkpt>
<trkpt lat="39.474836" lon="3.237963"><ele>72.72</ele><time>2012-09-29T10:08:45Z</time></trkpt>
<trkpt lat="39.474826" lon="3.237962"><ele>72.72</ele><time>2012-09-29T10:08:53Z</time></trkpt>
<trkpt lat="39.474890" lon="3.238062"><ele>70.79</ele><time>2012-09-29T10:09:00Z</time></trkpt>
<trkpt lat="39.474909" lon="3.238095"><ele>70.79</ele><time>2012-09-29T10:09:01Z</time></trkpt>
<trkpt lat="39.474984" lon="3.238237"><ele>69.83</ele><time>2012-09-29T10:09:04Z</time></trkpt>
<trkpt lat="39.475118" lon="3.238760"><ele>66.47</ele><time>2012-09-29T10:09:11Z</time></trkpt>
<trkpt lat="39.475218" lon="3.239510"><ele>64.55</ele><time>2012-09-29T10:09:20Z</time></trkpt>
<trkpt lat="39.475217" lon="3.239577"><ele>64.07</ele><time>2012-09-29T10:09:21Z</time></trkpt>
<trkpt lat="39.475194" lon="3.240064"><ele>64.07</ele><time>2012-09-29T10:09:28Z</time></trkpt>
<trkpt lat="39.475060" lon="3.240665"><ele>63.10</ele><time>2012-09-29T10:09:37Z</time></trkpt>
<trkpt lat="39.474901" lon="3.241135"><ele>63.10</ele><time>2012-09-29T10:09:44Z</time></trkpt>
<trkpt lat="39.474800" lon="3.241378"><ele>62.62</ele><time>2012-09-29T10:09:48Z</time></trkpt>
<trkpt lat="39.474540" lon="3.241747"><ele>61.66</ele><time>2012-09-29T10:09:55Z</time></trkpt>
<trkpt lat="39.474121" lon="3.242095"><ele>60.70</ele><time>2012-09-29T10:10:05Z</time></trkpt>
<trkpt lat="39.473719" lon="3.242381"><ele>61.18</ele><time>2012-09-29T10:10:14Z</time></trkpt>
<trkpt lat="39.473586" lon="3.242429"><ele>61.18</ele><time>2012-09-29T10:10:17Z</time></trkpt>
<trkpt lat="39.473505" lon="3.242482"><ele>60.70</ele><time>2012-09-29T10:10:19Z</time></trkpt>
<trkpt lat="39.473306" lon="3.242670"><ele>62.14</ele><time>2012-09-29T10:10:25Z</time></trkpt>
<trkpt lat="39.473230" lon="3.242706"><ele>62.62</ele><time>2012-09-29T10:10:27Z</time></trkpt>
<trkpt lat="39.473106" lon="3.242935"><ele>63.58</ele><time>2012-09-29T10:10:33Z</time></trkpt>
<trkpt lat="39.473118" lon="3.243553"><ele>65.51</ele><time>2012-09-29T10:10:46Z</time></trkpt>
<trkpt lat="39.473122" lon="3.243762"><ele>67.43</ele><time>2012-09-29T10:10:54Z</time></trkpt>
<trkpt lat="39.473143" lon="3.243806"><ele>67.43</ele><time>2012-09-29T10:11:00Z</time></trkpt>
<trkpt lat="39.473170" lon="3.243832"><ele>67.91</ele><time>2012-09-29T10:11:10Z</time></trkpt>
<trkpt lat="39.473151" lon="3.243878"><ele>68.39</ele><time>2012-09-29T10:11:17Z</time></trkpt>
<trkpt lat="39.473142" lon="3.243900"><ele>68.39</ele><time>2012-09-29T10:11:27Z</time></trkpt>
<trkpt lat="39.473142" lon="3.243906"><ele>67.43</ele><time>2012-09-29T10:12:58Z</time></trkpt>
<trkpt lat="39.473149" lon="3.243932"><ele>67.43</ele><time>2012-09-29T10:13:17Z</time></trkpt>
<trkpt lat="39.473147" lon="3.243933"><ele>68.39</ele><time>2012-09-29T10:13:59Z</time></trkpt>
<trkpt lat="39.473154" lon="3.243931"><ele>68.39</ele><time>2012-09-29T10:14:50Z</time></trkpt>
<trkpt lat="39.473164" lon="3.244005"><ele>68.39</ele><time>2012-09-29T10:21:07Z</time></trkpt>
<trkpt lat="39.473163" lon="3.244201"><ele>69.83</ele><time>2012-09-29T10:21:15Z</time></trkpt>
<trkpt lat="39.473162" lon="3.244258"><ele>70.31</ele><time>2012-09-29T10:21:17Z</time></trkpt>
<trkpt lat="39.473173" lon="3.244307"><ele>71.27</ele><time>2012-09-29T10:21:19Z</time></trkpt>
<trkpt lat="39.473163" lon="3.244529"><ele>73.20</ele><time>2012-09-29T10:21:26Z</time></trkpt>
<trkpt lat="39.473175" lon="3.244764"><ele>74.64</ele><time>2012-09-29T10:21:33Z</time></trkpt>
<trkpt lat="39.473266" lon="3.245012"><ele>75.12</ele><time>2012-09-29T10:21:41Z</time></trkpt>
<trkpt lat="39.473432" lon="3.245404"><ele>74.64</ele><time>2012-09-29T10:21:51Z</time></trkpt>
<trkpt lat="39.473642" lon="3.245896"><ele>75.12</ele><time>2012-09-29T10:22:03Z</time></trkpt>
<trkpt lat="39.473743" lon="3.246197"><ele>75.12</ele><time>2012-09-29T10:22:10Z</time></trkpt>
<trkpt lat="39.473907" lon="3.246576"><ele>76.08</ele><time>2012-09-29T10:22:19Z</time></trkpt>
<trkpt lat="39.474112" lon="3.246968"><ele>78.48</ele><time>2012-09-29T10:22:30Z</time></trkpt>
<trkpt lat="39.474273" lon="3.247270"><ele>79.45</ele><time>2012-09-29T10:22:38Z</time></trkpt>
<trkpt lat="39.474476" lon="3.247676"><ele>81.37</ele><time>2012-09-29T10:22:48Z</time></trkpt>
<trkpt lat="39.474748" lon="3.247852"><ele>82.33</ele><time>2012-09-29T10:22:56Z</time></trkpt>
<trkpt lat="39.475211" lon="3.248121"><ele>83.77</ele><time>2012-09-29T10:23:09Z</time></trkpt>
<trkpt lat="39.475656" lon="3.248368"><ele>84.73</ele><time>2012-09-29T10:23:22Z</time></trkpt>
<trkpt lat="39.476064" lon="3.248612"><ele>84.73</ele><time>2012-09-29T10:23:33Z</time></trkpt>
<trkpt lat="39.476598" lon="3.248897"><ele>84.73</ele><time>2012-09-29T10:23:45Z</time></trkpt>
<trkpt lat="39.477139" lon="3.249191"><ele>86.66</ele><time>2012-09-29T10:23:58Z</time></trkpt>
<trkpt lat="39.477314" lon="3.249278"><ele>88.10</ele><time>2012-09-29T10:24:02Z</time></trkpt>
<trkpt lat="39.477678" lon="3.249484"><ele>91.46</ele><time>2012-09-29T10:24:11Z</time></trkpt>
<trkpt lat="39.478000" lon="3.249552"><ele>92.90</ele><time>2012-09-29T10:24:19Z</time></trkpt>
<trkpt lat="39.478315" lon="3.249566"><ele>93.39</ele><time>2012-09-29T10:24:29Z</time></trkpt>
<trkpt lat="39.478328" lon="3.249688"><ele>93.39</ele><time>2012-09-29T10:24:34Z</time></trkpt>
<trkpt lat="39.478304" lon="3.249716"><ele>94.35</ele><time>2012-09-29T10:24:35Z</time></trkpt>
<trkpt lat="39.478094" lon="3.249967"><ele>94.35</ele><time>2012-09-29T10:24:42Z</time></trkpt>
<trkpt lat="39.477709" lon="3.250445"><ele>93.39</ele><time>2012-09-29T10:24:52Z</time></trkpt>
<trkpt lat="39.477317" lon="3.250918"><ele>90.50</ele><time>2012-09-29T10:25:01Z</time></trkpt>
<trkpt lat="39.476876" lon="3.251491"><ele>89.06</ele><time>2012-09-29T10:25:10Z</time></trkpt>
<trkpt lat="39.476394" lon="3.252084"><ele>86.18</ele><time>2012-09-29T10:25:19Z</time></trkpt>
<trkpt lat="39.475883" lon="3.252720"><ele>83.29</ele><time>2012-09-29T10:25:29Z</time></trkpt>
<trkpt lat="39.475834" lon="3.252779"><ele>83.29</ele><time>2012-09-29T10:25:30Z</time></trkpt>
<trkpt lat="39.475778" lon="3.252989"><ele>81.37</ele><time>2012-09-29T10:25:34Z</time></trkpt>
<trkpt lat="39.475822" lon="3.253026"><ele>81.37</ele><time>2012-09-29T10:25:35Z</time></trkpt>
<trkpt lat="39.476132" lon="3.253235"><ele>78.97</ele><time>2012-09-29T10:25:40Z</time></trkpt>
<trkpt lat="39.476197" lon="3.253304"><ele>78.00</ele><time>2012-09-29T10:25:41Z</time></trkpt>
<trkpt lat="39.476404" lon="3.253528"><ele>75.60</ele><time>2012-09-29T10:25:44Z</time></trkpt>
<trkpt lat="39.476907" lon="3.253577"><ele>74.16</ele><time>2012-09-29T10:25:50Z</time></trkpt>
<trkpt lat="39.477452" lon="3.253474"><ele>72.24</ele><time>2012-09-29T10:25:57Z</time></trkpt>
<trkpt lat="39.477678" lon="3.253426"><ele>71.27</ele><time>2012-09-29T10:26:00Z</time></trkpt>
<trkpt lat="39.477973" lon="3.253550"><ele>69.83</ele><time>2012-09-29T10:26:04Z</time></trkpt>
<trkpt lat="39.478002" lon="3.253793"><ele>70.31</ele><time>2012-09-29T10:26:07Z</time></trkpt>
<trkpt lat="39.477970" lon="3.253855"><ele>70.79</ele><time>2012-09-29T10:26:08Z</time></trkpt>
<trkpt lat="39.477904" lon="3.253952"><ele>71.76</ele><time>2012-09-29T10:26:10Z</time></trkpt>
<trkpt lat="39.477706" lon="3.254194"><ele>75.12</ele><time>2012-09-29T10:26:16Z</time></trkpt>
<trkpt lat="39.477472" lon="3.254430"><ele>78.48</ele><time>2012-09-29T10:26:23Z</time></trkpt>
<trkpt lat="39.477440" lon="3.254464"><ele>78.48</ele><time>2012-09-29T10:26:24Z</time></trkpt>
<trkpt lat="39.477118" lon="3.254800"><ele>81.85</ele><time>2012-09-29T10:26:34Z</time></trkpt>
<trkpt lat="39.476948" lon="3.254954"><ele>82.81</ele><time>2012-09-29T10:26:39Z</time></trkpt>
<trkpt lat="39.476820" lon="3.255213"><ele>83.77</ele><time>2012-09-29T10:26:45Z</time></trkpt>
<trkpt lat="39.476707" lon="3.255381"><ele>83.29</ele><time>2012-09-29T10:26:49Z</time></trkpt>
<trkpt lat="39.476534" lon="3.255551"><ele>83.29</ele><time>2012-09-29T10:26:54Z</time></trkpt>
<trkpt lat="39.476474" lon="3.255749"><ele>82.81</ele><time>2012-09-29T10:26:58Z</time></trkpt>
<trkpt lat="39.476770" lon="3.256323"><ele>83.29</ele><time>2012-09-29T10:27:09Z</time></trkpt>
<trkpt lat="39.476802" lon="3.256379"><ele>83.29</ele><time>2012-09-29T10:27:10Z</time></trkpt>
<trkpt lat="39.476884" lon="3.256544"><ele>83.77</ele><time>2012-09-29T10:27:13Z</time></trkpt>
<trkpt lat="39.476971" lon="3.256699"><ele>83.77</ele><time>2012-09-29T10:27:16Z</time></trkpt>
<trkpt lat="39.477298" lon="3.257343"><ele>81.85</ele><time>2012-09-29T10:27:27Z</time></trkpt>
<trkpt lat="39.477642" lon="3.258019"><ele>80.41</ele><time>2012-09-29T10:27:37Z</time></trkpt>
<trkpt lat="39.478060" lon="3.258873"><ele>80.41</ele><time>2012-09-29T10:27:49Z</time></trkpt>
<trkpt lat="39.478393" lon="3.259519"><ele>79.93</ele><time>2012-09-29T10:27:59Z</time></trkpt>
<trkpt lat="39.478379" lon="3.259710"><ele>79.93</ele><time>2012-09-29T10:28:03Z</time></trkpt>
<trkpt lat="39.477970" lon="3.260203"><ele>78.97</ele><time>2012-09-29T10:28:13Z</time></trkpt>
<trkpt lat="39.477401" lon="3.260907"><ele>78.00</ele><time>2012-09-29T10:28:25Z</time></trkpt>
<trkpt lat="39.476834" lon="3.261600"><ele>76.56</ele><time>2012-09-29T10:28:37Z</time></trkpt>
<trkpt lat="39.476232" lon="3.262345"><ele>74.64</ele><time>2012-09-29T10:28:49Z</time></trkpt>
<trkpt lat="39.475453" lon="3.263304"><ele>71.76</ele><time>2012-09-29T10:29:04Z</time></trkpt>
<trkpt lat="39.474847" lon="3.264055"><ele>69.35</ele><time>2012-09-29T10:29:15Z</time></trkpt>
<trkpt lat="39.474418" lon="3.264593"><ele>65.99</ele><time>2012-09-29T10:29:22Z</time></trkpt>
<trkpt lat="39.473803" lon="3.265345"><ele>63.10</ele><time>2012-09-29T10:29:32Z</time></trkpt>
<trkpt lat="39.472976" lon="3.266382"><ele>61.18</ele><time>2012-09-29T10:29:46Z</time></trkpt>
<trkpt lat="39.472541" lon="3.266914"><ele>62.14</ele><time>2012-09-29T10:29:54Z</time></trkpt>
<trkpt lat="39.471857" lon="3.267340"><ele>58.78</ele><time>2012-09-29T10:30:04Z</time></trkpt>
<trkpt lat="39.471784" lon="3.267384"><ele>58.30</ele><time>2012-09-29T10:30:05Z</time></trkpt>
<trkpt lat="39.471458" lon="3.267405"><ele>55.89</ele><time>2012-09-29T10:30:09Z</time></trkpt>
<trkpt lat="39.471018" lon="3.267334"><ele>54.93</ele><time>2012-09-29T10:30:15Z</time></trkpt>
<trkpt lat="39.470792" lon="3.267154"><ele>54.93</ele><time>2012-09-29T10:30:19Z</time></trkpt>
<trkpt lat="39.470647" lon="3.267124"><ele>53.49</ele><time>2012-09-29T10:30:22Z</time></trkpt>
<trkpt lat="39.470552" lon="3.267229"><ele>52.53</ele><time>2012-09-29T10:30:24Z</time></trkpt>
<trkpt lat="39.470058" lon="3.267793"><ele>52.05</ele><time>2012-09-29T10:30:33Z</time></trkpt>
<trkpt lat="39.469708" lon="3.268260"><ele>52.05</ele><time>2012-09-29T10:30:40Z</time></trkpt>
<trkpt lat="39.469305" lon="3.268938"><ele>49.16</ele><time>2012-09-29T10:30:49Z</time></trkpt>
<trkpt lat="39.468950" lon="3.269544"><ele>49.65</ele><time>2012-09-29T10:30:58Z</time></trkpt>
<trkpt lat="39.468859" lon="3.269674"><ele>50.61</ele><time>2012-09-29T10:31:02Z</time></trkpt>
<trkpt lat="39.468813" lon="3.269732"><ele>51.57</ele><time>2012-09-29T10:31:04Z</time></trkpt>
<trkpt lat="39.468647" lon="3.270064"><ele>51.09</ele><time>2012-09-29T10:31:12Z</time></trkpt>
<trkpt lat="39.468639" lon="3.270081"><ele>50.61</ele><time>2012-09-29T10:31:13Z</time></trkpt>
<trkpt lat="39.468660" lon="3.270184"><ele>50.13</ele><time>2012-09-29T10:31:17Z</time></trkpt>
<trkpt lat="39.468701" lon="3.270255"><ele>49.65</ele><time>2012-09-29T10:31:19Z</time></trkpt>
<trkpt lat="39.468924" lon="3.270593"><ele>46.28</ele><time>2012-09-29T10:31:25Z</time></trkpt>
<trkpt lat="39.469158" lon="3.270950"><ele>42.92</ele><time>2012-09-29T10:31:29Z</time></trkpt>
<trkpt lat="39.469221" lon="3.271063"><ele>41.95</ele><time>2012-09-29T10:31:30Z</time></trkpt>
<trkpt lat="39.469328" lon="3.271318"><ele>40.99</ele><time>2012-09-29T10:31:32Z</time></trkpt>
<trkpt lat="39.469401" lon="3.271724"><ele>37.63</ele><time>2012-09-29T10:31:35Z</time></trkpt>
<trkpt lat="39.469535" lon="3.272090"><ele>34.74</ele><time>2012-09-29T10:31:40Z</time></trkpt>
<trkpt lat="39.469595" lon="3.272114"><ele>34.74</ele><time>2012-09-29T10:31:41Z</time></trkpt>
<trkpt lat="39.469787" lon="3.272340"><ele>34.74</ele><time>2012-09-29T10:31:46Z</time></trkpt>
<trkpt lat="39.469778" lon="3.272541"><ele>35.71</ele><time>2012-09-29T10:31:49Z</time></trkpt>
<trkpt lat="39.469587" lon="3.273244"><ele>34.26</ele><time>2012-09-29T10:32:00Z</time></trkpt>
<trkpt lat="39.469530" lon="3.273681"><ele>35.23</ele><time>2012-09-29T10:32:06Z</time></trkpt>
<trkpt lat="39.469628" lon="3.274095"><ele>34.26</ele><time>2012-09-29T10:32:12Z</time></trkpt>
<trkpt lat="39.469882" lon="3.274287"><ele>33.30</ele><time>2012-09-29T10:32:17Z</time></trkpt>
<trkpt lat="39.469996" lon="3.274311"><ele>33.30</ele><time>2012-09-29T10:32:19Z</time></trkpt>
<trkpt lat="39.470533" lon="3.274345"><ele>36.67</ele><time>2012-09-29T10:32:29Z</time></trkpt>
<trkpt lat="39.470860" lon="3.274485"><ele>38.59</ele><time>2012-09-29T10:32:37Z</time></trkpt>
<trkpt lat="39.471127" lon="3.274606"><ele>42.44</ele><time>2012-09-29T10:32:45Z</time></trkpt>
<trkpt lat="39.471556" lon="3.274771"><ele>45.80</ele><time>2012-09-29T10:32:59Z</time></trkpt>
<trkpt lat="39.471588" lon="3.274785"><ele>45.80</ele><time>2012-09-29T10:33:00Z</time></trkpt>
<trkpt lat="39.471928" lon="3.274918"><ele>49.16</ele><time>2012-09-29T10:33:11Z</time></trkpt>
<trkpt lat="39.472265" lon="3.275132"><ele>50.61</ele><time>2012-09-29T10:33:23Z</time></trkpt>
<trkpt lat="39.472613" lon="3.275434"><ele>49.65</ele><time>2012-09-29T10:33:33Z</time></trkpt>
<trkpt lat="39.473333" lon="3.276030"><ele>50.61</ele><time>2012-09-29T10:33:51Z</time></trkpt>
<trkpt lat="39.473587" lon="3.276224"><ele>51.09</ele><time>2012-09-29T10:33:57Z</time></trkpt>
<trkpt lat="39.473861" lon="3.276252"><ele>52.05</ele><time>2012-09-29T10:34:03Z</time></trkpt>
<trkpt lat="39.474016" lon="3.276110"><ele>52.05</ele><time>2012-09-29T10:34:07Z</time></trkpt>
<trkpt lat="39.474394" lon="3.275603"><ele>50.61</ele><time>2012-09-29T10:34:17Z</time></trkpt>
<trkpt lat="39.474815" lon="3.275010"><ele>48.68</ele><time>2012-09-29T10:34:26Z</time></trkpt>
<trkpt lat="39.475301" lon="3.274343"><ele>47.24</ele><time>2012-09-29T10:34:36Z</time></trkpt>
<trkpt lat="39.475687" lon="3.273872"><ele>47.24</ele><time>2012-09-29T10:34:44Z</time></trkpt>
<trkpt lat="39.476115" lon="3.273432"><ele>46.76</ele><time>2012-09-29T10:34:53Z</time></trkpt>
<trkpt lat="39.476653" lon="3.273068"><ele>48.20</ele><time>2012-09-29T10:35:03Z</time></trkpt>
<trkpt lat="39.477126" lon="3.272700"><ele>48.68</ele><time>2012-09-29T10:35:13Z</time></trkpt>
<trkpt lat="39.477321" lon="3.272677"><ele>47.24</ele><time>2012-09-29T10:35:17Z</time></trkpt>
<trkpt lat="39.477375" lon="3.272860"><ele>47.24</ele><time>2012-09-29T10:35:20Z</time></trkpt>
<trkpt lat="39.477348" lon="3.273130"><ele>46.76</ele><time>2012-09-29T10:35:24Z</time></trkpt>
<trkpt lat="39.477267" lon="3.273369"><ele>47.24</ele><time>2012-09-29T10:35:28Z</time></trkpt>
<trkpt lat="39.477091" lon="3.273769"><ele>48.68</ele><time>2012-09-29T10:35:36Z</time></trkpt>
<trkpt lat="39.476921" lon="3.274058"><ele>51.09</ele><time>2012-09-29T10:35:44Z</time></trkpt>
<trkpt lat="39.476856" lon="3.274187"><ele>51.09</ele><time>2012-09-29T10:35:49Z</time></trkpt>
<trkpt lat="39.476827" lon="3.274236"><ele>51.09</ele><time>2012-09-29T10:35:56Z</time></trkpt>
<trkpt lat="39.476793" lon="3.274370"><ele>52.05</ele><time>2012-09-29T10:36:07Z</time></trkpt>
<trkpt lat="39.476785" lon="3.274370"><ele>52.05</ele><time>2012-09-29T10:36:17Z</time></trkpt>
<trkpt lat="39.476781" lon="3.274390"><ele>52.53</ele><time>2012-09-29T10:36:19Z</time></trkpt>
<trkpt lat="39.476693" lon="3.274558"><ele>52.05</ele><time>2012-09-29T10:36:27Z</time></trkpt>
<trkpt lat="39.476581" lon="3.274813"><ele>52.53</ele><time>2012-09-29T10:36:34Z</time></trkpt>
<trkpt lat="39.476421" lon="3.275208"><ele>53.01</ele><time>2012-09-29T10:36:42Z</time></trkpt>
<trkpt lat="39.476339" lon="3.275381"><ele>53.01</ele><time>2012-09-29T10:36:45Z</time></trkpt>
<trkpt lat="39.476297" lon="3.275839"><ele>52.53</ele><time>2012-09-29T10:36:52Z</time></trkpt>
<trkpt lat="39.476435" lon="3.276424"><ele>52.05</ele><time>2012-09-29T10:37:00Z</time></trkpt>
<trkpt lat="39.476672" lon="3.276729"><ele>51.57</ele><time>2012-09-29T10:37:05Z</time></trkpt>
<trkpt lat="39.476948" lon="3.276654"><ele>51.09</ele><time>2012-09-29T10:37:09Z</time></trkpt>
<trkpt lat="39.477086" lon="3.276564"><ele>50.13</ele><time>2012-09-29T10:37:11Z</time></trkpt>
<trkpt lat="39.477829" lon="3.276064"><ele>48.20</ele><time>2012-09-29T10:37:22Z</time></trkpt>
<trkpt lat="39.477964" lon="3.275984"><ele>47.24</ele><time>2012-09-29T10:37:24Z</time></trkpt>
<trkpt lat="39.478332" lon="3.275996"><ele>46.28</ele><time>2012-09-29T10:37:29Z</time></trkpt>
<trkpt lat="39.478482" lon="3.276080"><ele>45.32</ele><time>2012-09-29T10:37:31Z</time></trkpt>
<trkpt lat="39.478732" lon="3.276350"><ele>42.92</ele><time>2012-09-29T10:37:35Z</time></trkpt>
<trkpt lat="39.478741" lon="3.276639"><ele>41.95</ele><time>2012-09-29T10:37:38Z</time></trkpt>
<trkpt lat="39.478674" lon="3.276803"><ele>42.44</ele><time>2012-09-29T10:37:40Z</time></trkpt>
<trkpt lat="39.478363" lon="3.277606"><ele>41.47</ele><time>2012-09-29T10:37:50Z</time></trkpt>
<trkpt lat="39.478209" lon="3.277970"><ele>40.51</ele><time>2012-09-29T10:37:55Z</time></trkpt>
<trkpt lat="39.478066" lon="3.278576"><ele>39.07</ele><time>2012-09-29T10:38:03Z</time></trkpt>
<trkpt lat="39.478053" lon="3.278657"><ele>39.07</ele><time>2012-09-29T10:38:04Z</time></trkpt>
<trkpt lat="39.477911" lon="3.279429"><ele>37.15</ele><time>2012-09-29T10:38:13Z</time></trkpt>
<trkpt lat="39.477709" lon="3.280541"><ele>35.71</ele><time>2012-09-29T10:38:25Z</time></trkpt>
<trkpt lat="39.477642" lon="3.280868"><ele>34.26</ele><time>2012-09-29T10:38:29Z</time></trkpt>
<trkpt lat="39.477622" lon="3.281029"><ele>34.26</ele><time>2012-09-29T10:38:31Z</time></trkpt>
<trkpt lat="39.477678" lon="3.281308"><ele>33.30</ele><time>2012-09-29T10:38:35Z</time></trkpt>
<trkpt lat="39.477830" lon="3.281383"><ele>33.30</ele><time>2012-09-29T10:38:38Z</time></trkpt>
<trkpt lat="39.478525" lon="3.281443"><ele>34.26</ele><time>2012-09-29T10:38:50Z</time></trkpt>
<trkpt lat="39.479375" lon="3.281534"><ele>34.74</ele><time>2012-09-29T10:39:04Z</time></trkpt>
<trkpt lat="39.480262" lon="3.281643"><ele>36.67</ele><time>2012-09-29T10:39:20Z</time></trkpt>
<trkpt lat="39.480425" lon="3.281666"><ele>36.67</ele><time>2012-09-29T10:39:23Z</time></trkpt>
<trkpt lat="39.480683" lon="3.281635"><ele>36.19</ele><time>2012-09-29T10:39:28Z</time></trkpt>
<trkpt lat="39.480899" lon="3.281471"><ele>36.19</ele><time>2012-09-29T10:39:33Z</time></trkpt>
<trkpt lat="39.481185" lon="3.280930"><ele>37.15</ele><time>2012-09-29T10:39:43Z</time></trkpt>
<trkpt lat="39.481473" lon="3.280322"><ele>37.15</ele><time>2012-09-29T10:39:54Z</time></trkpt>
<trkpt lat="39.481862" lon="3.279525"><ele>35.23</ele><time>2012-09-29T10:40:07Z</time></trkpt>
<trkpt lat="39.482156" lon="3.278920"><ele>33.30</ele><time>2012-09-29T10:40:16Z</time></trkpt>
<trkpt lat="39.482408" lon="3.278381"><ele>32.82</ele><time>2012-09-29T10:40:25Z</time></trkpt>
<trkpt lat="39.482739" lon="3.277734"><ele>31.86</ele><time>2012-09-29T10:40:35Z</time></trkpt>
<trkpt lat="39.482779" lon="3.277674"><ele>31.86</ele><time>2012-09-29T10:40:36Z</time></trkpt>
<trkpt lat="39.483050" lon="3.277506"><ele>31.86</ele><time>2012-09-29T10:40:41Z</time></trkpt>
<trkpt lat="39.483289" lon="3.277599"><ele>32.34</ele><time>2012-09-29T10:40:45Z</time></trkpt>
<trkpt lat="39.483340" lon="3.277649"><ele>32.34</ele><time>2012-09-29T10:40:46Z</time></trkpt>
<trkpt lat="39.483737" lon="3.278178"><ele>32.34</ele><time>2012-09-29T10:40:55Z</time></trkpt>
<trkpt lat="39.484065" lon="3.278747"><ele>33.30</ele><time>2012-09-29T10:41:04Z</time></trkpt>
<trkpt lat="39.484095" lon="3.279094"><ele>34.26</ele><time>2012-09-29T10:41:09Z</time></trkpt>
<trkpt lat="39.484010" lon="3.279799"><ele>36.19</ele><time>2012-09-29T10:41:20Z</time></trkpt>
<trkpt lat="39.483943" lon="3.280572"><ele>36.19</ele><time>2012-09-29T10:41:32Z</time></trkpt>
<trkpt lat="39.483932" lon="3.280696"><ele>36.19</ele><time>2012-09-29T10:41:34Z</time></trkpt>
<trkpt lat="39.484042" lon="3.280951"><ele>35.23</ele><time>2012-09-29T10:41:39Z</time></trkpt>
<trkpt lat="39.484267" lon="3.280964"><ele>34.74</ele><time>2012-09-29T10:41:43Z</time></trkpt>
<trkpt lat="39.484382" lon="3.280920"><ele>34.74</ele><time>2012-09-29T10:41:45Z</time></trkpt>
<trkpt lat="39.485056" lon="3.280553"><ele>32.82</ele><time>2012-09-29T10:41:57Z</time></trkpt>
<trkpt lat="39.485804" lon="3.280160"><ele>31.38</ele><time>2012-09-29T10:42:11Z</time></trkpt>
<trkpt lat="39.485915" lon="3.280107"><ele>30.90</ele><time>2012-09-29T10:42:13Z</time></trkpt>
<trkpt lat="39.486201" lon="3.280095"><ele>30.42</ele><time>2012-09-29T10:42:18Z</time></trkpt>
<trkpt lat="39.486542" lon="3.280358"><ele>31.86</ele><time>2012-09-29T10:42:26Z</time></trkpt>
<trkpt lat="39.486673" lon="3.280600"><ele>33.30</ele><time>2012-09-29T10:42:31Z</time></trkpt>
<trkpt lat="39.486710" lon="3.280832"><ele>34.26</ele><time>2012-09-29T10:42:35Z</time></trkpt>
<trkpt lat="39.486739" lon="3.281404"><ele>36.19</ele><time>2012-09-29T10:42:44Z</time></trkpt>
<trkpt lat="39.486764" lon="3.281798"><ele>37.63</ele><time>2012-09-29T10:42:50Z</time></trkpt>
<trkpt lat="39.486957" lon="3.282324"><ele>37.63</ele><time>2012-09-29T10:42:58Z</time></trkpt>
<trkpt lat="39.487048" lon="3.282537"><ele>36.67</ele><time>2012-09-29T10:43:01Z</time></trkpt>
<trkpt lat="39.487075" lon="3.282859"><ele>35.71</ele><time>2012-09-29T10:43:05Z</time></trkpt>
<trkpt lat="39.486855" lon="3.283788"><ele>31.86</ele><time>2012-09-29T10:43:15Z</time></trkpt>
<trkpt lat="39.486748" lon="3.284227"><ele>29.94</ele><time>2012-09-29T10:43:19Z</time></trkpt>
<trkpt lat="39.486612" lon="3.284824"><ele>26.57</ele><time>2012-09-29T10:43:24Z</time></trkpt>
<trkpt lat="39.486398" lon="3.285727"><ele>23.21</ele><time>2012-09-29T10:43:32Z</time></trkpt>
<trkpt lat="39.486115" lon="3.286408"><ele>22.73</ele><time>2012-09-29T10:43:40Z</time></trkpt>
<trkpt lat="39.485907" lon="3.286829"><ele>20.32</ele><time>2012-09-29T10:43:46Z</time></trkpt>
<trkpt lat="39.485907" lon="3.287085"><ele>18.40</ele><time>2012-09-29T10:43:51Z</time></trkpt>
<trkpt lat="39.486023" lon="3.287097"><ele>16.48</ele><time>2012-09-29T10:43:54Z</time></trkpt>
<trkpt lat="39.486065" lon="3.287066"><ele>15.52</ele><time>2012-09-29T10:43:55Z</time></trkpt>
<trkpt lat="39.486146" lon="3.286996"><ele>15.04</ele><time>2012-09-29T10:43:57Z</time></trkpt>
<trkpt lat="39.486366" lon="3.286848"><ele>13.60</ele><time>2012-09-29T10:44:03Z</time></trkpt>
<trkpt lat="39.486407" lon="3.286771"><ele>13.60</ele><time>2012-09-29T10:44:09Z</time></trkpt>
<trkpt lat="39.486428" lon="3.286760"><ele>13.12</ele><time>2012-09-29T10:44:15Z</time></trkpt>
<trkpt lat="39.486459" lon="3.286804"><ele>11.19</ele><time>2012-09-29T10:44:24Z</time></trkpt>
<trkpt lat="39.486424" lon="3.286926"><ele>8.79</ele><time>2012-09-29T10:44:29Z</time></trkpt>
<trkpt lat="39.486305" lon="3.287030"><ele>6.87</ele><time>2012-09-29T10:44:36Z</time></trkpt>
<trkpt lat="39.486255" lon="3.287067"><ele>5.42</ele><time>2012-09-29T10:44:40Z</time></trkpt>
<trkpt lat="39.486252" lon="3.287088"><ele>3.98</ele><time>2012-09-29T10:44:47Z</time></trkpt>
<trkpt lat="39.486278" lon="3.287139"><ele>1.58</ele><time>2012-09-29T10:44:54Z</time></trkpt>
<trkpt lat="39.486318" lon="3.287164"><ele>0.14</ele><time>2012-09-29T10:45:01Z</time></trkpt>
<trkpt lat="39.486365" lon="3.287163"><ele>0.82</ele><time>2012-09-29T10:45:07Z</time></trkpt>
<trkpt lat="39.486391" lon="3.287161"><ele>0.34</ele><time>2012-09-29T10:45:09Z</time></trkpt>
<trkpt lat="39.486413" lon="3.287172"><ele>2.27</ele><time>2012-09-29T10:45:17Z</time></trkpt>
<trkpt lat="39.486419" lon="3.287175"><ele>2.75</ele><time>2012-09-29T10:45:18Z</time></trkpt>
<trkpt lat="39.486485" lon="3.287192"><ele>2.75</ele><time>2012-09-29T10:45:25Z</time></trkpt>
<trkpt lat="39.486507" lon="3.287231"><ele>2.75</ele><time>2012-09-29T10:45:32Z</time></trkpt>
<trkpt lat="39.486529" lon="3.287256"><ele>1.79</ele><time>2012-09-29T10:45:38Z</time></trkpt>
<trkpt lat="39.486556" lon="3.287274"><ele>1.30</ele><time>2012-09-29T10:45:55Z</time></trkpt>
<trkpt lat="39.486587" lon="3.287302"><ele>1.79</ele><time>2012-09-29T10:46:18Z</time></trkpt>
<trkpt lat="39.486590" lon="3.287307"><ele>1.79</ele><time>2012-09-29T10:46:22Z</time></trkpt>
<trkpt lat="39.486642" lon="3.287318"><ele>2.27</ele><time>2012-09-29T10:46:26Z</time></trkpt>
<trkpt lat="39.486830" lon="3.287220"><ele>2.27</ele><time>2012-09-29T10:46:36Z</time></trkpt>
<trkpt lat="39.486864" lon="3.287184"><ele>2.75</ele><time>2012-09-29T10:46:38Z</time></trkpt>
<trkpt lat="39.486891" lon="3.287107"><ele>3.23</ele><time>2012-09-29T10:46:44Z</time></trkpt>
<trkpt lat="39.486924" lon="3.287041"><ele>1.30</ele><time>2012-09-29T10:46:53Z</time></trkpt>
<trkpt lat="39.486929" lon="3.287016"><ele>1.30</ele><time>2012-09-29T10:47:00Z</time></trkpt>
<trkpt lat="39.486925" lon="3.287011"><ele>2.27</ele><time>2012-09-29T10:47:09Z</time></trkpt>
<trkpt lat="39.486923" lon="3.286984"><ele>0.34</ele><time>2012-09-29T10:47:23Z</time></trkpt>
<trkpt lat="39.486923" lon="3.286978"><ele>1.30</ele><time>2012-09-29T10:47:25Z</time></trkpt>
<trkpt lat="39.486908" lon="3.286941"><ele>1.79</ele><time>2012-09-29T10:47:29Z</time></trkpt>
<trkpt lat="39.486918" lon="3.286908"><ele>1.79</ele><time>2012-09-29T10:47:32Z</time></trkpt>
<trkpt lat="39.486942" lon="3.286891"><ele>2.27</ele><time>2012-09-29T10:47:38Z</time></trkpt>
<trkpt lat="39.486931" lon="3.286859"><ele>2.27</ele><time>2012-09-29T10:47:53Z</time></trkpt>
<trkpt lat="39.486922" lon="3.286802"><ele>1.79</ele><time>2012-09-29T10:48:01Z</time></trkpt>
<trkpt lat="39.486924" lon="3.286797"><ele>1.79</ele><time>2012-09-29T10:48:02Z</time></trkpt>
<trkpt lat="39.486965" lon="3.286616"><ele>1.79</ele><time>2012-09-29T10:48:13Z</time></trkpt>
<trkpt lat="39.487007" lon="3.286439"><ele>1.79</ele><time>2012-09-29T10:48:23Z</time></trkpt>
<trkpt lat="39.487017" lon="3.286185"><ele>1.79</ele><time>2012-09-29T10:48:29Z</time></trkpt>
<trkpt lat="39.487067" lon="3.285862"><ele>2.27</ele><time>2012-09-29T10:48:37Z</time></trkpt>
<trkpt lat="39.487108" lon="3.285662"><ele>1.79</ele><time>2012-09-29T10:48:43Z</time></trkpt>
<trkpt lat="39.487194" lon="3.285331"><ele>1.30</ele><time>2012-09-29T10:48:52Z</time></trkpt>
<trkpt lat="39.487280" lon="3.285001"><ele>1.30</ele><time>2012-09-29T10:49:00Z</time></trkpt>
<trkpt lat="39.487411" lon="3.284640"><ele>0.82</ele><time>2012-09-29T10:49:10Z</time></trkpt>
<trkpt lat="39.487561" lon="3.284464"><ele>0.14</ele><time>2012-09-29T10:49:17Z</time></trkpt>
<trkpt lat="39.487717" lon="3.284350"><ele>0.62</ele><time>2012-09-29T10:49:23Z</time></trkpt>
<trkpt lat="39.487810" lon="3.284235"><ele>0.14</ele><time>2012-09-29T10:49:27Z</time></trkpt>
<trkpt lat="39.487882" lon="3.284132"><ele>0.34</ele><time>2012-09-29T10:49:32Z</time></trkpt>
<trkpt lat="39.487880" lon="3.284157"><ele>1.30</ele><time>2012-09-29T10:49:40Z</time></trkpt>
<trkpt lat="39.488011" lon="3.284154"><ele>1.30</ele><time>2012-09-29T10:49:46Z</time></trkpt>
<trkpt lat="39.488274" lon="3.284145"><ele>0.34</ele><time>2012-09-29T10:49:54Z</time></trkpt>
<trkpt lat="39.488478" lon="3.284123"><ele>0.14</ele><time>2012-09-29T10:50:01Z</time></trkpt>
<trkpt lat="39.488500" lon="3.284110"><ele>1.10</ele><time>2012-09-29T10:50:02Z</time></trkpt>
<trkpt lat="39.488596" lon="3.284028"><ele>2.06</ele><time>2012-09-29T10:50:09Z</time></trkpt>
<trkpt lat="39.488613" lon="3.284016"><ele>2.06</ele><time>2012-09-29T10:50:11Z</time></trkpt>
<trkpt lat="39.488615" lon="3.283975"><ele>1.58</ele><time>2012-09-29T10:50:19Z</time></trkpt>
<trkpt lat="39.488614" lon="3.283949"><ele>1.10</ele><time>2012-09-29T10:50:28Z</time></trkpt>
<trkpt lat="39.488613" lon="3.283899"><ele>0.62</ele><time>2012-09-29T10:50:36Z</time></trkpt>
<trkpt lat="39.488616" lon="3.283873"><ele>0.62</ele><time>2012-09-29T10:50:46Z</time></trkpt>
<trkpt lat="39.488609" lon="3.283790"><ele>0.62</ele><time>2012-09-29T10:50:54Z</time></trkpt>
<trkpt lat="39.488621" lon="3.283720"><ele>0.62</ele><time>2012-09-29T10:50:57Z</time></trkpt>
<trkpt lat="39.488628" lon="3.283371"><ele>2.06</ele><time>2012-09-29T10:51:06Z</time></trkpt>
<trkpt lat="39.488572" lon="3.283100"><ele>2.06</ele><time>2012-09-29T10:51:12Z</time></trkpt>
<trkpt lat="39.488618" lon="3.282785"><ele>3.02</ele><time>2012-09-29T10:51:19Z</time></trkpt>
<trkpt lat="39.488781" lon="3.282638"><ele>3.02</ele><time>2012-09-29T10:51:25Z</time></trkpt>
<trkpt lat="39.488930" lon="3.282564"><ele>3.02</ele><time>2012-09-29T10:51:29Z</time></trkpt>
<trkpt lat="39.489154" lon="3.282518"><ele>3.02</ele><time>2012-09-29T10:51:35Z</time></trkpt>
<trkpt lat="39.489202" lon="3.282517"><ele>3.02</ele><time>2012-09-29T10:51:37Z</time></trkpt>
<trkpt lat="39.489360" lon="3.282435"><ele>3.98</ele><time>2012-09-29T10:51:43Z</time></trkpt>
<trkpt lat="39.489576" lon="3.282337"><ele>3.98</ele><time>2012-09-29T10:51:49Z</time></trkpt>
<trkpt lat="39.489646" lon="3.282278"><ele>3.98</ele><time>2012-09-29T10:51:54Z</time></trkpt>
<trkpt lat="39.489681" lon="3.282236"><ele>3.98</ele><time>2012-09-29T10:52:01Z</time></trkpt>
<trkpt lat="39.489684" lon="3.282234"><ele>3.50</ele><time>2012-09-29T10:52:12Z</time></trkpt>
<trkpt lat="39.489734" lon="3.282197"><ele>4.46</ele><time>2012-09-29T10:52:17Z</time></trkpt>
<trkpt lat="39.489748" lon="3.282160"><ele>4.46</ele><time>2012-09-29T10:52:19Z</time></trkpt>
<trkpt lat="39.489787" lon="3.282030"><ele>5.42</ele><time>2012-09-29T10:52:24Z</time></trkpt>
<trkpt lat="39.489793" lon="3.282008"><ele>5.91</ele><time>2012-09-29T10:52:25Z</time></trkpt>
<trkpt lat="39.489896" lon="3.281779"><ele>6.87</ele><time>2012-09-29T10:52:34Z</time></trkpt>
<trkpt lat="39.489907" lon="3.281745"><ele>7.35</ele><time>2012-09-29T10:52:35Z</time></trkpt>
<trkpt lat="39.490068" lon="3.281530"><ele>8.31</ele><time>2012-09-29T10:52:43Z</time></trkpt>
<trkpt lat="39.490237" lon="3.281202"><ele>8.31</ele><time>2012-09-29T10:52:52Z</time></trkpt>
<trkpt lat="39.490428" lon="3.280820"><ele>8.31</ele><time>2012-09-29T10:53:01Z</time></trkpt>
<trkpt lat="39.490663" lon="3.280517"><ele>8.31</ele><time>2012-09-29T10:53:10Z</time></trkpt>
<trkpt lat="39.490874" lon="3.280247"><ele>8.79</ele><time>2012-09-29T10:53:19Z</time></trkpt>
<trkpt lat="39.490975" lon="3.279926"><ele>9.75</ele><time>2012-09-29T10:53:27Z</time></trkpt>
<trkpt lat="39.490992" lon="3.279623"><ele>10.23</ele><time>2012-09-29T10:53:34Z</time></trkpt>
<trkpt lat="39.491155" lon="3.279261"><ele>11.19</ele><time>2012-09-29T10:53:44Z</time></trkpt>
<trkpt lat="39.491313" lon="3.278993"><ele>12.63</ele><time>2012-09-29T10:53:53Z</time></trkpt>
<trkpt lat="39.491390" lon="3.278916"><ele>13.12</ele><time>2012-09-29T10:54:00Z</time></trkpt>
<trkpt lat="39.491397" lon="3.278900"><ele>12.63</ele><time>2012-09-29T10:54:04Z</time></trkpt>
<trkpt lat="39.491410" lon="3.278826"><ele>12.15</ele><time>2012-09-29T10:54:11Z</time></trkpt>
<trkpt lat="39.491398" lon="3.278786"><ele>13.12</ele><time>2012-09-29T10:54:19Z</time></trkpt>
<trkpt lat="39.491398" lon="3.278786"><ele>12.63</ele><time>2012-09-29T10:54:31Z</time></trkpt>
<trkpt lat="39.491396" lon="3.278773"><ele>12.63</ele><time>2012-09-29T10:54:42Z</time></trkpt>
<trkpt lat="39.491405" lon="3.278749"><ele>11.19</ele><time>2012-09-29T10:54:49Z</time></trkpt>
<trkpt lat="39.491425" lon="3.278726"><ele>11.19</ele><time>2012-09-29T10:54:59Z</time></trkpt>
<trkpt lat="39.491428" lon="3.278688"><ele>11.19</ele><time>2012-09-29T10:55:25Z</time></trkpt>
<trkpt lat="39.491425" lon="3.278647"><ele>10.71</ele><time>2012-09-29T10:55:34Z</time></trkpt>
<trkpt lat="39.491439" lon="3.278637"><ele>11.67</ele><time>2012-09-29T10:55:47Z</time></trkpt>
<trkpt lat="39.491450" lon="3.278629"><ele>11.67</ele><time>2012-09-29T10:55:51Z</time></trkpt>
<trkpt lat="39.491464" lon="3.278604"><ele>11.67</ele><time>2012-09-29T10:55:59Z</time></trkpt>
<trkpt lat="39.491500" lon="3.278551"><ele>11.67</ele><time>2012-09-29T10:56:06Z</time></trkpt>
<trkpt lat="39.491626" lon="3.278362"><ele>13.12</ele><time>2012-09-29T10:56:15Z</time></trkpt>
<trkpt lat="39.491843" lon="3.278040"><ele>15.52</ele><time>2012-09-29T10:56:28Z</time></trkpt>
<trkpt lat="39.492067" lon="3.277692"><ele>16.48</ele><time>2012-09-29T10:56:40Z</time></trkpt>
<trkpt lat="39.492329" lon="3.277255"><ele>15.52</ele><time>2012-09-29T10:56:53Z</time></trkpt>
<trkpt lat="39.492567" lon="3.276881"><ele>16.96</ele><time>2012-09-29T10:57:04Z</time></trkpt>
<trkpt lat="39.492883" lon="3.276393"><ele>17.92</ele><time>2012-09-29T10:57:18Z</time></trkpt>
<trkpt lat="39.493085" lon="3.276045"><ele>19.84</ele><time>2012-09-29T10:57:29Z</time></trkpt>
<trkpt lat="39.493305" lon="3.275714"><ele>22.73</ele><time>2012-09-29T10:57:41Z</time></trkpt>
<trkpt lat="39.493478" lon="3.275443"><ele>25.61</ele><time>2012-09-29T10:57:51Z</time></trkpt>
<trkpt lat="39.493593" lon="3.275266"><ele>26.57</ele><time>2012-09-29T10:57:58Z</time></trkpt>
<trkpt lat="39.493677" lon="3.275160"><ele>27.53</ele><time>2012-09-29T10:58:05Z</time></trkpt>
<trkpt lat="39.493701" lon="3.275148"><ele>28.02</ele><time>2012-09-29T10:58:13Z</time></trkpt>
<trkpt lat="39.493706" lon="3.275136"><ele>27.05</ele><time>2012-09-29T10:58:15Z</time></trkpt>
<trkpt lat="39.493733" lon="3.275101"><ele>27.05</ele><time>2012-09-29T10:58:20Z</time></trkpt>
<trkpt lat="39.493761" lon="3.275028"><ele>27.53</ele><time>2012-09-29T10:58:27Z</time></trkpt>
<trkpt lat="39.493791" lon="3.274935"><ele>27.53</ele><time>2012-09-29T10:58:36Z</time></trkpt>
<trkpt lat="39.493795" lon="3.274929"><ele>27.53</ele><time>2012-09-29T10:58:37Z</time></trkpt>
<trkpt lat="39.493817" lon="3.274903"><ele>28.50</ele><time>2012-09-29T10:58:39Z</time></trkpt>
<trkpt lat="39.493981" lon="3.274684"><ele>28.02</ele><time>2012-09-29T10:58:49Z</time></trkpt>
<trkpt lat="39.494128" lon="3.274448"><ele>28.98</ele><time>2012-09-29T10:58:59Z</time></trkpt>
<trkpt lat="39.494142" lon="3.274423"><ele>29.46</ele><time>2012-09-29T10:59:00Z</time></trkpt>
<trkpt lat="39.494225" lon="3.274210"><ele>28.98</ele><time>2012-09-29T10:59:06Z</time></trkpt>
<trkpt lat="39.494288" lon="3.273994"><ele>28.50</ele><time>2012-09-29T10:59:11Z</time></trkpt>
<trkpt lat="39.494481" lon="3.273672"><ele>28.50</ele><time>2012-09-29T10:59:20Z</time></trkpt>
<trkpt lat="39.494659" lon="3.273334"><ele>28.98</ele><time>2012-09-29T10:59:30Z</time></trkpt>
<trkpt lat="39.494758" lon="3.273073"><ele>28.02</ele><time>2012-09-29T10:59:37Z</time></trkpt>
<trkpt lat="39.494983" lon="3.272813"><ele>29.94</ele><time>2012-09-29T10:59:46Z</time></trkpt>
<trkpt lat="39.495234" lon="3.272560"><ele>28.98</ele><time>2012-09-29T10:59:54Z</time></trkpt>
<trkpt lat="39.495418" lon="3.272357"><ele>28.02</ele><time>2012-09-29T10:59:59Z</time></trkpt>
<trkpt lat="39.495599" lon="3.272116"><ele>29.46</ele><time>2012-09-29T11:00:05Z</time></trkpt>
<trkpt lat="39.495709" lon="3.271955"><ele>31.38</ele><time>2012-09-29T11:00:10Z</time></trkpt>
<trkpt lat="39.495851" lon="3.271703"><ele>33.30</ele><time>2012-09-29T11:00:18Z</time></trkpt>
<trkpt lat="39.496012" lon="3.271466"><ele>35.23</ele><time>2012-09-29T11:00:26Z</time></trkpt>
<trkpt lat="39.496171" lon="3.271188"><ele>36.19</ele><time>2012-09-29T11:00:35Z</time></trkpt>
<trkpt lat="39.496356" lon="3.270933"><ele>36.19</ele><time>2012-09-29T11:00:45Z</time></trkpt>
<trkpt lat="39.496475" lon="3.270716"><ele>36.19</ele><time>2012-09-29T11:00:51Z</time></trkpt>
<trkpt lat="39.496549" lon="3.270593"><ele>35.71</ele><time>2012-09-29T11:00:54Z</time></trkpt>
<trkpt lat="39.496694" lon="3.270361"><ele>34.74</ele><time>2012-09-29T11:00:59Z</time></trkpt>
<trkpt lat="39.496793" lon="3.270242"><ele>33.30</ele><time>2012-09-29T11:01:02Z</time></trkpt>
<trkpt lat="39.496852" lon="3.270159"><ele>33.30</ele><time>2012-09-29T11:01:04Z</time></trkpt>
<trkpt lat="39.496923" lon="3.269987"><ele>31.86</ele><time>2012-09-29T11:01:10Z</time></trkpt>
<trkpt lat="39.496925" lon="3.269975"><ele>32.34</ele><time>2012-09-29T11:01:17Z</time></trkpt>
<trkpt lat="39.496937" lon="3.269951"><ele>32.82</ele><time>2012-09-29T11:01:37Z</time></trkpt>
<trkpt lat="39.496942" lon="3.269923"><ele>31.86</ele><time>2012-09-29T11:01:45Z</time></trkpt>
<trkpt lat="39.496965" lon="3.269947"><ele>32.34</ele><time>2012-09-29T11:01:55Z</time></trkpt>
<trkpt lat="39.496960" lon="3.269938"><ele>32.34</ele><time>2012-09-29T11:04:24Z</time></trkpt>
<trkpt lat="39.496953" lon="3.269915"><ele>31.86</ele><time>2012-09-29T11:04:33Z</time></trkpt>
<trkpt lat="39.496927" lon="3.269886"><ele>31.38</ele><time>2012-09-29T11:04:45Z</time></trkpt>
<trkpt lat="39.496925" lon="3.269883"><ele>30.90</ele><time>2012-09-29T11:05:35Z</time></trkpt>
<trkpt lat="39.496912" lon="3.269788"><ele>30.42</ele><time>2012-09-29T11:05:44Z</time></trkpt>
<trkpt lat="39.496764" lon="3.269497"><ele>29.46</ele><time>2012-09-29T11:05:51Z</time></trkpt>
<trkpt lat="39.496485" lon="3.269048"><ele>28.98</ele><time>2012-09-29T11:06:01Z</time></trkpt>
<trkpt lat="39.496499" lon="3.268884"><ele>29.46</ele><time>2012-09-29T11:06:05Z</time></trkpt>
<trkpt lat="39.496764" lon="3.268631"><ele>30.42</ele><time>2012-09-29T11:06:18Z</time></trkpt>
<trkpt lat="39.497031" lon="3.268349"><ele>33.78</ele><time>2012-09-29T11:06:33Z</time></trkpt>
<trkpt lat="39.497177" lon="3.268178"><ele>36.19</ele><time>2012-09-29T11:06:44Z</time></trkpt>
<trkpt lat="39.497294" lon="3.268043"><ele>38.59</ele><time>2012-09-29T11:06:54Z</time></trkpt>
<trkpt lat="39.497436" lon="3.267877"><ele>41.95</ele><time>2012-09-29T11:07:06Z</time></trkpt>
<trkpt lat="39.497594" lon="3.267674"><ele>44.84</ele><time>2012-09-29T11:07:20Z</time></trkpt>
<trkpt lat="39.497715" lon="3.267550"><ele>46.76</ele><time>2012-09-29T11:07:30Z</time></trkpt>
<trkpt lat="39.497904" lon="3.267340"><ele>48.68</ele><time>2012-09-29T11:07:45Z</time></trkpt>
<trkpt lat="39.498017" lon="3.267206"><ele>49.65</ele><time>2012-09-29T11:07:53Z</time></trkpt>
<trkpt lat="39.498227" lon="3.266971"><ele>51.57</ele><time>2012-09-29T11:08:06Z</time></trkpt>
<trkpt lat="39.498443" lon="3.266748"><ele>53.49</ele><time>2012-09-29T11:08:19Z</time></trkpt>
<trkpt lat="39.498562" lon="3.266539"><ele>54.93</ele><time>2012-09-29T11:08:28Z</time></trkpt>
<trkpt lat="39.498670" lon="3.266199"><ele>55.89</ele><time>2012-09-29T11:08:41Z</time></trkpt>
<trkpt lat="39.498697" lon="3.266110"><ele>55.41</ele><time>2012-09-29T11:08:48Z</time></trkpt>
<trkpt lat="39.498770" lon="3.265847"><ele>55.41</ele><time>2012-09-29T11:08:55Z</time></trkpt>
<trkpt lat="39.498874" lon="3.265476"><ele>56.86</ele><time>2012-09-29T11:09:05Z</time></trkpt>
<trkpt lat="39.498973" lon="3.265168"><ele>58.78</ele><time>2012-09-29T11:09:15Z</time></trkpt>
<trkpt lat="39.499106" lon="3.264707"><ele>60.70</ele><time>2012-09-29T11:09:29Z</time></trkpt>
<trkpt lat="39.499209" lon="3.264339"><ele>61.66</ele><time>2012-09-29T11:09:41Z</time></trkpt>
<trkpt lat="39.499334" lon="3.263917"><ele>64.55</ele><time>2012-09-29T11:09:55Z</time></trkpt>
<trkpt lat="39.499342" lon="3.263888"><ele>64.55</ele><time>2012-09-29T11:09:56Z</time></trkpt>
<trkpt lat="39.499468" lon="3.263472"><ele>66.95</ele><time>2012-09-29T11:10:10Z</time></trkpt>
<trkpt lat="39.499563" lon="3.263113"><ele>68.87</ele><time>2012-09-29T11:10:22Z</time></trkpt>
<trkpt lat="39.499620" lon="3.262855"><ele>70.31</ele><time>2012-09-29T11:10:31Z</time></trkpt>
<trkpt lat="39.499713" lon="3.262538"><ele>72.72</ele><time>2012-09-29T11:10:43Z</time></trkpt>
<trkpt lat="39.499765" lon="3.262334"><ele>73.68</ele><time>2012-09-29T11:10:51Z</time></trkpt>
<trkpt lat="39.499838" lon="3.262141"><ele>74.64</ele><time>2012-09-29T11:10:59Z</time></trkpt>
<trkpt lat="39.499938" lon="3.261782"><ele>75.60</ele><time>2012-09-29T11:11:12Z</time></trkpt>
<trkpt lat="39.500087" lon="3.261296"><ele>78.97</ele><time>2012-09-29T11:11:29Z</time></trkpt>
<trkpt lat="39.500244" lon="3.260749"><ele>79.93</ele><time>2012-09-29T11:11:47Z</time></trkpt>
<trkpt lat="39.500360" lon="3.260367"><ele>81.37</ele><time>2012-09-29T11:12:00Z</time></trkpt>
<trkpt lat="39.500495" lon="3.259936"><ele>83.29</ele><time>2012-09-29T11:12:15Z</time></trkpt>
<trkpt lat="39.500586" lon="3.259631"><ele>84.73</ele><time>2012-09-29T11:12:26Z</time></trkpt>
<trkpt lat="39.500708" lon="3.259232"><ele>88.10</ele><time>2012-09-29T11:12:41Z</time></trkpt>
<trkpt lat="39.500824" lon="3.258868"><ele>89.54</ele><time>2012-09-29T11:12:55Z</time></trkpt>
<trkpt lat="39.500953" lon="3.258483"><ele>92.42</ele><time>2012-09-29T11:13:10Z</time></trkpt>
<trkpt lat="39.501053" lon="3.258179"><ele>93.87</ele><time>2012-09-29T11:13:23Z</time></trkpt>
<trkpt lat="39.501060" lon="3.258156"><ele>94.35</ele><time>2012-09-29T11:13:24Z</time></trkpt>
<trkpt lat="39.501111" lon="3.257979"><ele>95.79</ele><time>2012-09-29T11:13:32Z</time></trkpt>
<trkpt lat="39.501155" lon="3.257781"><ele>97.71</ele><time>2012-09-29T11:13:41Z</time></trkpt>
<trkpt lat="39.501238" lon="3.257519"><ele>99.63</ele><time>2012-09-29T11:13:54Z</time></trkpt>
<trkpt lat="39.501303" lon="3.257257"><ele>101.56</ele><time>2012-09-29T11:14:07Z</time></trkpt>
<trkpt lat="39.501368" lon="3.257013"><ele>104.44</ele><time>2012-09-29T11:14:20Z</time></trkpt>
<trkpt lat="39.501440" lon="3.256788"><ele>106.36</ele><time>2012-09-29T11:14:32Z</time></trkpt>
<trkpt lat="39.501499" lon="3.256588"><ele>108.29</ele><time>2012-09-29T11:14:43Z</time></trkpt>
<trkpt lat="39.501570" lon="3.256360"><ele>110.69</ele><time>2012-09-29T11:14:55Z</time></trkpt>
<trkpt lat="39.501687" lon="3.256133"><ele>111.17</ele><time>2012-09-29T11:15:08Z</time></trkpt>
<trkpt lat="39.501848" lon="3.255884"><ele>113.57</ele><time>2012-09-29T11:15:24Z</time></trkpt>
<trkpt lat="39.501958" lon="3.255699"><ele>115.01</ele><time>2012-09-29T11:15:35Z</time></trkpt>
<trkpt lat="39.502050" lon="3.255549"><ele>116.46</ele><time>2012-09-29T11:15:44Z</time></trkpt>
<trkpt lat="39.502079" lon="3.255491"><ele>116.46</ele><time>2012-09-29T11:15:48Z</time></trkpt>
<trkpt lat="39.502275" lon="3.255270"><ele>118.86</ele><time>2012-09-29T11:16:04Z</time></trkpt>
<trkpt lat="39.502430" lon="3.255126"><ele>120.78</ele><time>2012-09-29T11:16:16Z</time></trkpt>
<trkpt lat="39.502496" lon="3.255080"><ele>121.26</ele><time>2012-09-29T11:16:24Z</time></trkpt>
<trkpt lat="39.502549" lon="3.255038"><ele>122.22</ele><time>2012-09-29T11:16:48Z</time></trkpt>
<trkpt lat="39.502799" lon="3.254825"><ele>123.67</ele><time>2012-09-29T11:17:04Z</time></trkpt>
<trkpt lat="39.503032" lon="3.254686"><ele>125.59</ele><time>2012-09-29T11:17:18Z</time></trkpt>
<trkpt lat="39.503342" lon="3.254537"><ele>128.95</ele><time>2012-09-29T11:17:36Z</time></trkpt>
<trkpt lat="39.503609" lon="3.254456"><ele>130.88</ele><time>2012-09-29T11:17:51Z</time></trkpt>
<trkpt lat="39.503803" lon="3.254470"><ele>132.32</ele><time>2012-09-29T11:18:02Z</time></trkpt>
<trkpt lat="39.503853" lon="3.254497"><ele>132.80</ele><time>2012-09-29T11:18:05Z</time></trkpt>
<trkpt lat="39.503977" lon="3.254508"><ele>133.76</ele><time>2012-09-29T11:18:12Z</time></trkpt>
<trkpt lat="39.504132" lon="3.254586"><ele>134.72</ele><time>2012-09-29T11:18:21Z</time></trkpt>
<trkpt lat="39.504288" lon="3.254656"><ele>136.16</ele><time>2012-09-29T11:18:30Z</time></trkpt>
<trkpt lat="39.504310" lon="3.254664"><ele>136.16</ele><time>2012-09-29T11:18:37Z</time></trkpt>
<trkpt lat="39.504383" lon="3.254739"><ele>136.16</ele><time>2012-09-29T11:18:55Z</time></trkpt>
<trkpt lat="39.504502" lon="3.254823"><ele>137.13</ele><time>2012-09-29T11:19:01Z</time></trkpt>
<trkpt lat="39.504653" lon="3.254953"><ele>138.57</ele><time>2012-09-29T11:19:09Z</time></trkpt>
<trkpt lat="39.504831" lon="3.255083"><ele>140.49</ele><time>2012-09-29T11:19:20Z</time></trkpt>
<trkpt lat="39.504973" lon="3.255026"><ele>141.93</ele><time>2012-09-29T11:19:28Z</time></trkpt>
<trkpt lat="39.505111" lon="3.254919"><ele>143.85</ele><time>2012-09-29T11:19:37Z</time></trkpt>
<trkpt lat="39.505340" lon="3.254749"><ele>146.74</ele><time>2012-09-29T11:19:51Z</time></trkpt>
<trkpt lat="39.505502" lon="3.254661"><ele>148.18</ele><time>2012-09-29T11:20:01Z</time></trkpt>
<trkpt lat="39.505816" lon="3.254520"><ele>150.10</ele><time>2012-09-29T11:20:18Z</time></trkpt>
<trkpt lat="39.506037" lon="3.254422"><ele>151.54</ele><time>2012-09-29T11:20:30Z</time></trkpt>
<trkpt lat="39.506157" lon="3.254327"><ele>152.99</ele><time>2012-09-29T11:20:39Z</time></trkpt>
<trkpt lat="39.506208" lon="3.254306"><ele>153.47</ele><time>2012-09-29T11:20:43Z</time></trkpt>
<trkpt lat="39.506394" lon="3.254167"><ele>154.91</ele><time>2012-09-29T11:20:56Z</time></trkpt>
<trkpt lat="39.506576" lon="3.253979"><ele>156.83</ele><time>2012-09-29T11:21:09Z</time></trkpt>
<trkpt lat="39.506723" lon="3.253683"><ele>158.75</ele><time>2012-09-29T11:21:24Z</time></trkpt>
<trkpt lat="39.506802" lon="3.253534"><ele>160.20</ele><time>2012-09-29T11:21:32Z</time></trkpt>
<trkpt lat="39.506941" lon="3.253402"><ele>160.68</ele><time>2012-09-29T11:21:42Z</time></trkpt>
<trkpt lat="39.507100" lon="3.253226"><ele>163.08</ele><time>2012-09-29T11:21:54Z</time></trkpt>
<trkpt lat="39.507259" lon="3.253026"><ele>165.96</ele><time>2012-09-29T11:22:07Z</time></trkpt>
<trkpt lat="39.507442" lon="3.252976"><ele>166.93</ele><time>2012-09-29T11:22:17Z</time></trkpt>
<trkpt lat="39.507601" lon="3.252941"><ele>168.85</ele><time>2012-09-29T11:22:27Z</time></trkpt>
<trkpt lat="39.507706" lon="3.252816"><ele>170.77</ele><time>2012-09-29T11:22:37Z</time></trkpt>
<trkpt lat="39.507793" lon="3.252641"><ele>172.69</ele><time>2012-09-29T11:22:48Z</time></trkpt>
<trkpt lat="39.507936" lon="3.252532"><ele>173.66</ele><time>2012-09-29T11:22:59Z</time></trkpt>
<trkpt lat="39.508086" lon="3.252496"><ele>175.10</ele><time>2012-09-29T11:23:10Z</time></trkpt>
<trkpt lat="39.508288" lon="3.252308"><ele>178.46</ele><time>2012-09-29T11:23:27Z</time></trkpt>
<trkpt lat="39.508441" lon="3.252190"><ele>179.42</ele><time>2012-09-29T11:23:39Z</time></trkpt>
<trkpt lat="39.508497" lon="3.252148"><ele>179.90</ele><time>2012-09-29T11:23:47Z</time></trkpt>
<trkpt lat="39.508520" lon="3.252128"><ele>179.90</ele><time>2012-09-29T11:23:54Z</time></trkpt>
<trkpt lat="39.508610" lon="3.252003"><ele>181.83</ele><time>2012-09-29T11:24:07Z</time></trkpt>
<trkpt lat="39.508666" lon="3.251917"><ele>182.79</ele><time>2012-09-29T11:24:17Z</time></trkpt>
<trkpt lat="39.508787" lon="3.251784"><ele>184.23</ele><time>2012-09-29T11:24:32Z</time></trkpt>
<trkpt lat="39.508803" lon="3.251775"><ele>184.23</ele><time>2012-09-29T11:24:39Z</time></trkpt>
<trkpt lat="39.508844" lon="3.251718"><ele>185.19</ele><time>2012-09-29T11:24:47Z</time></trkpt>
<trkpt lat="39.508855" lon="3.251692"><ele>185.67</ele><time>2012-09-29T11:24:49Z</time></trkpt>
<trkpt lat="39.508941" lon="3.251517"><ele>187.11</ele><time>2012-09-29T11:25:04Z</time></trkpt>
<trkpt lat="39.508976" lon="3.251462"><ele>187.59</ele><time>2012-09-29T11:25:11Z</time></trkpt>
<trkpt lat="39.509002" lon="3.251424"><ele>187.59</ele><time>2012-09-29T11:25:15Z</time></trkpt>
<trkpt lat="39.509030" lon="3.251372"><ele>188.08</ele><time>2012-09-29T11:25:19Z</time></trkpt>
<trkpt lat="39.509091" lon="3.251257"><ele>189.04</ele><time>2012-09-29T11:25:27Z</time></trkpt>
<trkpt lat="39.509232" lon="3.251232"><ele>190.96</ele><time>2012-09-29T11:25:38Z</time></trkpt>
<trkpt lat="39.509284" lon="3.251253"><ele>191.44</ele><time>2012-09-29T11:25:42Z</time></trkpt>
<trkpt lat="39.509425" lon="3.251354"><ele>193.36</ele><time>2012-09-29T11:25:53Z</time></trkpt>
<trkpt lat="39.509482" lon="3.251398"><ele>193.84</ele><time>2012-09-29T11:25:58Z</time></trkpt>
<trkpt lat="39.509505" lon="3.251419"><ele>194.32</ele><time>2012-09-29T11:26:00Z</time></trkpt>
<trkpt lat="39.509536" lon="3.251441"><ele>194.80</ele><time>2012-09-29T11:26:03Z</time></trkpt>
<trkpt lat="39.509581" lon="3.251461"><ele>195.77</ele><time>2012-09-29T11:26:07Z</time></trkpt>
<trkpt lat="39.509685" lon="3.251521"><ele>197.21</ele><time>2012-09-29T11:26:16Z</time></trkpt>
<trkpt lat="39.509810" lon="3.251558"><ele>198.65</ele><time>2012-09-29T11:26:26Z</time></trkpt>
<trkpt lat="39.509924" lon="3.251559"><ele>200.09</ele><time>2012-09-29T11:26:38Z</time></trkpt>
<trkpt lat="39.509932" lon="3.251566"><ele>199.61</ele><time>2012-09-29T11:26:50Z</time></trkpt>
<trkpt lat="39.509933" lon="3.251547"><ele>201.05</ele><time>2012-09-29T11:26:55Z</time></trkpt>
<trkpt lat="39.509936" lon="3.251546"><ele>199.61</ele><time>2012-09-29T11:26:58Z</time></trkpt>
<trkpt lat="39.509955" lon="3.251549"><ele>199.61</ele><time>2012-09-29T11:27:06Z</time></trkpt>
<trkpt lat="39.509957" lon="3.251544"><ele>199.61</ele><time>2012-09-29T11:27:14Z</time></trkpt>
<trkpt lat="39.509992" lon="3.251534"><ele>200.57</ele><time>2012-09-29T11:27:30Z</time></trkpt>
<trkpt lat="39.510114" lon="3.251459"><ele>201.53</ele><time>2012-09-29T11:27:39Z</time></trkpt>
<trkpt lat="39.510327" lon="3.251384"><ele>202.01</ele><time>2012-09-29T11:27:49Z</time></trkpt>
<trkpt lat="39.510540" lon="3.251347"><ele>202.49</ele><time>2012-09-29T11:27:59Z</time></trkpt>
<trkpt lat="39.510753" lon="3.251181"><ele>205.38</ele><time>2012-09-29T11:28:10Z</time></trkpt>
<trkpt lat="39.510981" lon="3.251133"><ele>205.86</ele><time>2012-09-29T11:28:20Z</time></trkpt>
<trkpt lat="39.511167" lon="3.251246"><ele>207.30</ele><time>2012-09-29T11:28:29Z</time></trkpt>
<trkpt lat="39.511252" lon="3.251468"><ele>208.26</ele><time>2012-09-29T11:28:37Z</time></trkpt>
<trkpt lat="39.511384" lon="3.251831"><ele>210.67</ele><time>2012-09-29T11:28:51Z</time></trkpt>
<trkpt lat="39.511388" lon="3.252032"><ele>211.63</ele><time>2012-09-29T11:28:59Z</time></trkpt>
<trkpt lat="39.511315" lon="3.252344"><ele>212.59</ele><time>2012-09-29T11:29:11Z</time></trkpt>
<trkpt lat="39.511293" lon="3.252542"><ele>213.55</ele><time>2012-09-29T11:29:19Z</time></trkpt>
<trkpt lat="39.511240" lon="3.252867"><ele>214.99</ele><time>2012-09-29T11:29:32Z</time></trkpt>
<trkpt lat="39.511180" lon="3.253174"><ele>216.91</ele><time>2012-09-29T11:29:45Z</time></trkpt>
<trkpt lat="39.511120" lon="3.253462"><ele>218.84</ele><time>2012-09-29T11:29:57Z</time></trkpt>
<trkpt lat="39.511118" lon="3.253769"><ele>220.76</ele><time>2012-09-29T11:30:08Z</time></trkpt>
<trkpt lat="39.511259" lon="3.253835"><ele>220.28</ele><time>2012-09-29T11:30:14Z</time></trkpt>
<trkpt lat="39.511449" lon="3.253772"><ele>218.84</ele><time>2012-09-29T11:30:19Z</time></trkpt>
<trkpt lat="39.511889" lon="3.253444"><ele>215.47</ele><time>2012-09-29T11:30:28Z</time></trkpt>
<trkpt lat="39.511995" lon="3.253335"><ele>214.99</ele><time>2012-09-29T11:30:30Z</time></trkpt>
<trkpt lat="39.512209" lon="3.253093"><ele>211.63</ele><time>2012-09-29T11:30:34Z</time></trkpt>
<trkpt lat="39.512314" lon="3.252979"><ele>210.67</ele><time>2012-09-29T11:30:36Z</time></trkpt>
<trkpt lat="39.512543" lon="3.252785"><ele>207.30</ele><time>2012-09-29T11:30:40Z</time></trkpt>
<trkpt lat="39.512716" lon="3.252673"><ele>205.38</ele><time>2012-09-29T11:30:43Z</time></trkpt>
<trkpt lat="39.513034" lon="3.252464"><ele>201.05</ele><time>2012-09-29T11:30:48Z</time></trkpt>
<trkpt lat="39.513227" lon="3.252318"><ele>197.21</ele><time>2012-09-29T11:30:51Z</time></trkpt>
<trkpt lat="39.513454" lon="3.252134"><ele>194.32</ele><time>2012-09-29T11:30:55Z</time></trkpt>
<trkpt lat="39.513719" lon="3.251924"><ele>190.96</ele><time>2012-09-29T11:31:00Z</time></trkpt>
<trkpt lat="39.513825" lon="3.251839"><ele>190.00</ele><time>2012-09-29T11:31:02Z</time></trkpt>
<trkpt lat="39.513938" lon="3.251739"><ele>189.04</ele><time>2012-09-29T11:31:04Z</time></trkpt>
<trkpt lat="39.514049" lon="3.251635"><ele>187.59</ele><time>2012-09-29T11:31:06Z</time></trkpt>
<trkpt lat="39.514311" lon="3.251349"><ele>184.71</ele><time>2012-09-29T11:31:11Z</time></trkpt>
<trkpt lat="39.514502" lon="3.251094"><ele>182.31</ele><time>2012-09-29T11:31:15Z</time></trkpt>
<trkpt lat="39.514598" lon="3.250943"><ele>181.83</ele><time>2012-09-29T11:31:17Z</time></trkpt>
<trkpt lat="39.514723" lon="3.250700"><ele>179.90</ele><time>2012-09-29T11:31:20Z</time></trkpt>
<trkpt lat="39.514893" lon="3.250181"><ele>176.06</ele><time>2012-09-29T11:31:26Z</time></trkpt>
<trkpt lat="39.514915" lon="3.250091"><ele>175.10</ele><time>2012-09-29T11:31:27Z</time></trkpt>
<trkpt lat="39.514998" lon="3.249695"><ele>172.69</ele><time>2012-09-29T11:31:31Z</time></trkpt>
<trkpt lat="39.515248" lon="3.249239"><ele>169.33</ele><time>2012-09-29T11:31:36Z</time></trkpt>
<trkpt lat="39.515379" lon="3.249083"><ele>167.89</ele><time>2012-09-29T11:31:38Z</time></trkpt>
<trkpt lat="39.515670" lon="3.248784"><ele>165.00</ele><time>2012-09-29T11:31:42Z</time></trkpt>
<trkpt lat="39.515816" lon="3.248674"><ele>163.56</ele><time>2012-09-29T11:31:44Z</time></trkpt>
<trkpt lat="39.516049" lon="3.248645"><ele>161.64</ele><time>2012-09-29T11:31:47Z</time></trkpt>
<trkpt lat="39.516350" lon="3.248823"><ele>158.75</ele><time>2012-09-29T11:31:51Z</time></trkpt>
<trkpt lat="39.516470" lon="3.249054"><ele>156.83</ele><time>2012-09-29T11:31:54Z</time></trkpt>
<trkpt lat="39.516515" lon="3.249220"><ele>156.83</ele><time>2012-09-29T11:31:56Z</time></trkpt>
<trkpt lat="39.516591" lon="3.249469"><ele>154.91</ele><time>2012-09-29T11:31:59Z</time></trkpt>
<trkpt lat="39.516621" lon="3.249549"><ele>154.43</ele><time>2012-09-29T11:32:00Z</time></trkpt>
<trkpt lat="39.516749" lon="3.249757"><ele>152.99</ele><time>2012-09-29T11:32:03Z</time></trkpt>
<trkpt lat="39.516931" lon="3.249816"><ele>151.06</ele><time>2012-09-29T11:32:06Z</time></trkpt>
<trkpt lat="39.517100" lon="3.249706"><ele>150.10</ele><time>2012-09-29T11:32:09Z</time></trkpt>
<trkpt lat="39.517199" lon="3.249578"><ele>148.18</ele><time>2012-09-29T11:32:11Z</time></trkpt>
<trkpt lat="39.517444" lon="3.249181"><ele>144.34</ele><time>2012-09-29T11:32:16Z</time></trkpt>
<trkpt lat="39.517789" lon="3.248913"><ele>140.49</ele><time>2012-09-29T11:32:21Z</time></trkpt>
<trkpt lat="39.518055" lon="3.248942"><ele>138.57</ele><time>2012-09-29T11:32:24Z</time></trkpt>
<trkpt lat="39.518421" lon="3.249171"><ele>136.16</ele><time>2012-09-29T11:32:28Z</time></trkpt>
<trkpt lat="39.518643" lon="3.249452"><ele>133.28</ele><time>2012-09-29T11:32:31Z</time></trkpt>
<trkpt lat="39.518755" lon="3.249641"><ele>131.36</ele><time>2012-09-29T11:32:33Z</time></trkpt>
<trkpt lat="39.519078" lon="3.249683"><ele>128.47</ele><time>2012-09-29T11:32:37Z</time></trkpt>
<trkpt lat="39.519439" lon="3.249594"><ele>125.11</ele><time>2012-09-29T11:32:41Z</time></trkpt>
<trkpt lat="39.519784" lon="3.249779"><ele>122.22</ele><time>2012-09-29T11:32:45Z</time></trkpt>
<trkpt lat="39.520036" lon="3.250084"><ele>120.78</ele><time>2012-09-29T11:32:49Z</time></trkpt>
<trkpt lat="39.520076" lon="3.250335"><ele>120.30</ele><time>2012-09-29T11:32:53Z</time></trkpt>
<trkpt lat="39.520006" lon="3.250583"><ele>121.26</ele><time>2012-09-29T11:33:00Z</time></trkpt>
<trkpt lat="39.519989" lon="3.250692"><ele>122.22</ele><time>2012-09-29T11:33:04Z</time></trkpt>
<trkpt lat="39.519965" lon="3.250750"><ele>122.71</ele><time>2012-09-29T11:33:07Z</time></trkpt>
<trkpt lat="39.519925" lon="3.250920"><ele>123.67</ele><time>2012-09-29T11:33:15Z</time></trkpt>
<trkpt lat="39.519909" lon="3.251127"><ele>124.15</ele><time>2012-09-29T11:33:26Z</time></trkpt>
<trkpt lat="39.519902" lon="3.251122"><ele>124.63</ele><time>2012-09-29T11:33:57Z</time></trkpt>
<trkpt lat="39.519900" lon="3.251138"><ele>125.11</ele><time>2012-09-29T11:35:29Z</time></trkpt>
<trkpt lat="39.519918" lon="3.251403"><ele>126.07</ele><time>2012-09-29T11:35:41Z</time></trkpt>
<trkpt lat="39.520051" lon="3.251493"><ele>126.07</ele><time>2012-09-29T11:35:51Z</time></trkpt>
<trkpt lat="39.520078" lon="3.251487"><ele>126.07</ele><time>2012-09-29T11:35:54Z</time></trkpt>
<trkpt lat="39.520229" lon="3.251552"><ele>126.07</ele><time>2012-09-29T11:36:03Z</time></trkpt>
<trkpt lat="39.520415" lon="3.251567"><ele>126.55</ele><time>2012-09-29T11:36:12Z</time></trkpt>
<trkpt lat="39.520478" lon="3.251545"><ele>126.07</ele><time>2012-09-29T11:36:14Z</time></trkpt>
<trkpt lat="39.520775" lon="3.251568"><ele>123.67</ele><time>2012-09-29T11:36:20Z</time></trkpt>
<trkpt lat="39.520978" lon="3.251611"><ele>121.74</ele><time>2012-09-29T11:36:24Z</time></trkpt>
<trkpt lat="39.521029" lon="3.251627"><ele>121.26</ele><time>2012-09-29T11:36:25Z</time></trkpt>
<trkpt lat="39.521256" lon="3.251732"><ele>118.86</ele><time>2012-09-29T11:36:29Z</time></trkpt>
<trkpt lat="39.521398" lon="3.251813"><ele>117.90</ele><time>2012-09-29T11:36:31Z</time></trkpt>
<trkpt lat="39.521710" lon="3.252149"><ele>116.94</ele><time>2012-09-29T11:36:37Z</time></trkpt>
<trkpt lat="39.522005" lon="3.252521"><ele>117.90</ele><time>2012-09-29T11:36:45Z</time></trkpt>
<trkpt lat="39.522037" lon="3.252560"><ele>117.90</ele><time>2012-09-29T11:36:46Z</time></trkpt>
<trkpt lat="39.522172" lon="3.252780"><ele>117.90</ele><time>2012-09-29T11:36:51Z</time></trkpt>
<trkpt lat="39.522186" lon="3.253091"><ele>117.42</ele><time>2012-09-29T11:36:56Z</time></trkpt>
<trkpt lat="39.522143" lon="3.253295"><ele>116.46</ele><time>2012-09-29T11:36:59Z</time></trkpt>
<trkpt lat="39.522236" lon="3.253716"><ele>115.01</ele><time>2012-09-29T11:37:05Z</time></trkpt>
<trkpt lat="39.522272" lon="3.253771"><ele>114.53</ele><time>2012-09-29T11:37:06Z</time></trkpt>
<trkpt lat="39.522339" lon="3.253854"><ele>113.57</ele><time>2012-09-29T11:37:08Z</time></trkpt>
<trkpt lat="39.522422" lon="3.253912"><ele>113.09</ele><time>2012-09-29T11:37:12Z</time></trkpt>
<trkpt lat="39.522481" lon="3.253961"><ele>113.57</ele><time>2012-09-29T11:37:24Z</time></trkpt>
<trkpt lat="39.522598" lon="3.254090"><ele>113.57</ele><time>2012-09-29T11:37:35Z</time></trkpt>
<trkpt lat="39.522744" lon="3.254233"><ele>113.57</ele><time>2012-09-29T11:37:44Z</time></trkpt>
<trkpt lat="39.522994" lon="3.254442"><ele>114.05</ele><time>2012-09-29T11:37:55Z</time></trkpt>
<trkpt lat="39.523203" lon="3.254644"><ele>113.57</ele><time>2012-09-29T11:38:02Z</time></trkpt>
<trkpt lat="39.523428" lon="3.254858"><ele>112.13</ele><time>2012-09-29T11:38:08Z</time></trkpt>
<trkpt lat="39.523692" lon="3.255123"><ele>111.65</ele><time>2012-09-29T11:38:14Z</time></trkpt>
<trkpt lat="39.523873" lon="3.255304"><ele>109.73</ele><time>2012-09-29T11:38:18Z</time></trkpt>
<trkpt lat="39.524030" lon="3.255441"><ele>108.29</ele><time>2012-09-29T11:38:21Z</time></trkpt>
<trkpt lat="39.524415" lon="3.255815"><ele>106.84</ele><time>2012-09-29T11:38:28Z</time></trkpt>
<trkpt lat="39.525030" lon="3.256394"><ele>104.92</ele><time>2012-09-29T11:38:38Z</time></trkpt>
<trkpt lat="39.525338" lon="3.256795"><ele>103.96</ele><time>2012-09-29T11:38:44Z</time></trkpt>
<trkpt lat="39.525652" lon="3.257280"><ele>103.48</ele><time>2012-09-29T11:38:52Z</time></trkpt>
<trkpt lat="39.526055" lon="3.257904"><ele>101.56</ele><time>2012-09-29T11:39:01Z</time></trkpt>
<trkpt lat="39.526451" lon="3.258519"><ele>100.11</ele><time>2012-09-29T11:39:10Z</time></trkpt>
<trkpt lat="39.526895" lon="3.259224"><ele>98.19</ele><time>2012-09-29T11:39:21Z</time></trkpt>
<trkpt lat="39.527120" lon="3.259577"><ele>98.19</ele><time>2012-09-29T11:39:28Z</time></trkpt>
<trkpt lat="39.527203" lon="3.259707"><ele>97.71</ele><time>2012-09-29T11:39:34Z</time></trkpt>
<trkpt lat="39.527226" lon="3.259740"><ele>97.71</ele><time>2012-09-29T11:39:36Z</time></trkpt>
<trkpt lat="39.527306" lon="3.259875"><ele>97.71</ele><time>2012-09-29T11:39:46Z</time></trkpt>
<trkpt lat="39.527419" lon="3.260084"><ele>97.23</ele><time>2012-09-29T11:39:56Z</time></trkpt>
<trkpt lat="39.527630" lon="3.260410"><ele>95.79</ele><time>2012-09-29T11:40:08Z</time></trkpt>
<trkpt lat="39.527851" lon="3.260746"><ele>93.87</ele><time>2012-09-29T11:40:16Z</time></trkpt>
<trkpt lat="39.528050" lon="3.261068"><ele>90.50</ele><time>2012-09-29T11:40:22Z</time></trkpt>
<trkpt lat="39.528080" lon="3.261110"><ele>90.50</ele><time>2012-09-29T11:40:23Z</time></trkpt>
<trkpt lat="39.528164" lon="3.261255"><ele>89.06</ele><time>2012-09-29T11:40:28Z</time></trkpt>
<trkpt lat="39.528193" lon="3.261311"><ele>89.06</ele><time>2012-09-29T11:40:30Z</time></trkpt>
<trkpt lat="39.528240" lon="3.261379"><ele>88.58</ele><time>2012-09-29T11:40:36Z</time></trkpt>
<trkpt lat="39.528291" lon="3.261456"><ele>88.58</ele><time>2012-09-29T11:40:45Z</time></trkpt>
<trkpt lat="39.528482" lon="3.261753"><ele>87.14</ele><time>2012-09-29T11:40:51Z</time></trkpt>
<trkpt lat="39.528838" lon="3.262320"><ele>83.77</ele><time>2012-09-29T11:41:01Z</time></trkpt>
<trkpt lat="39.529300" lon="3.263031"><ele>80.89</ele><time>2012-09-29T11:41:11Z</time></trkpt>
<trkpt lat="39.529664" lon="3.263615"><ele>77.52</ele><time>2012-09-29T11:41:18Z</time></trkpt>
<trkpt lat="39.530028" lon="3.264199"><ele>75.12</ele><time>2012-09-29T11:41:25Z</time></trkpt>
<trkpt lat="39.530549" lon="3.264996"><ele>74.16</ele><time>2012-09-29T11:41:36Z</time></trkpt>
<trkpt lat="39.530891" lon="3.265518"><ele>74.64</ele><time>2012-09-29T11:41:45Z</time></trkpt>
<trkpt lat="39.531258" lon="3.266090"><ele>75.60</ele><time>2012-09-29T11:41:56Z</time></trkpt>
<trkpt lat="39.531597" lon="3.266616"><ele>75.12</ele><time>2012-09-29T11:42:06Z</time></trkpt>
<trkpt lat="39.531931" lon="3.267118"><ele>75.60</ele><time>2012-09-29T11:42:16Z</time></trkpt>
<trkpt lat="39.532383" lon="3.267825"><ele>76.08</ele><time>2012-09-29T11:42:30Z</time></trkpt>
<trkpt lat="39.532514" lon="3.268027"><ele>76.56</ele><time>2012-09-29T11:42:34Z</time></trkpt>
<trkpt lat="39.532612" lon="3.268213"><ele>77.52</ele><time>2012-09-29T11:42:38Z</time></trkpt>
<trkpt lat="39.532807" lon="3.268555"><ele>78.97</ele><time>2012-09-29T11:42:46Z</time></trkpt>
<trkpt lat="39.532936" lon="3.268786"><ele>80.89</ele><time>2012-09-29T11:42:52Z</time></trkpt>
<trkpt lat="39.533126" lon="3.269045"><ele>81.85</ele><time>2012-09-29T11:42:59Z</time></trkpt>
<trkpt lat="39.533346" lon="3.269333"><ele>83.77</ele><time>2012-09-29T11:43:08Z</time></trkpt>
<trkpt lat="39.533381" lon="3.269338"><ele>83.77</ele><time>2012-09-29T11:43:09Z</time></trkpt>
<trkpt lat="39.533590" lon="3.269265"><ele>82.33</ele><time>2012-09-29T11:43:13Z</time></trkpt>
<trkpt lat="39.533714" lon="3.269197"><ele>81.37</ele><time>2012-09-29T11:43:15Z</time></trkpt>
<trkpt lat="39.534064" lon="3.268977"><ele>78.00</ele><time>2012-09-29T11:43:20Z</time></trkpt>
<trkpt lat="39.534547" lon="3.268710"><ele>75.12</ele><time>2012-09-29T11:43:26Z</time></trkpt>
<trkpt lat="39.534624" lon="3.268668"><ele>75.12</ele><time>2012-09-29T11:43:27Z</time></trkpt>
<trkpt lat="39.535251" lon="3.268305"><ele>73.68</ele><time>2012-09-29T11:43:36Z</time></trkpt>
<trkpt lat="39.535798" lon="3.267987"><ele>73.20</ele><time>2012-09-29T11:43:45Z</time></trkpt>
<trkpt lat="39.536383" lon="3.267639"><ele>75.12</ele><time>2012-09-29T11:43:56Z</time></trkpt>
<trkpt lat="39.536754" lon="3.267428"><ele>78.48</ele><time>2012-09-29T11:44:05Z</time></trkpt>
<trkpt lat="39.536906" lon="3.267344"><ele>79.45</ele><time>2012-09-29T11:44:09Z</time></trkpt>
<trkpt lat="39.537419" lon="3.267107"><ele>78.48</ele><time>2012-09-29T11:44:19Z</time></trkpt>
<trkpt lat="39.538160" lon="3.266691"><ele>75.60</ele><time>2012-09-29T11:44:31Z</time></trkpt>
<trkpt lat="39.538783" lon="3.266326"><ele>72.24</ele><time>2012-09-29T11:44:41Z</time></trkpt>
<trkpt lat="39.539115" lon="3.266143"><ele>69.35</ele><time>2012-09-29T11:44:45Z</time></trkpt>
<trkpt lat="39.539205" lon="3.266093"><ele>68.87</ele><time>2012-09-29T11:44:46Z</time></trkpt>
<trkpt lat="39.539903" lon="3.265690"><ele>65.51</ele><time>2012-09-29T11:44:54Z</time></trkpt>
<trkpt lat="39.540493" lon="3.265352"><ele>64.55</ele><time>2012-09-29T11:45:02Z</time></trkpt>
<trkpt lat="39.540922" lon="3.265109"><ele>65.99</ele><time>2012-09-29T11:45:10Z</time></trkpt>
<trkpt lat="39.541425" lon="3.264815"><ele>67.91</ele><time>2012-09-29T11:45:20Z</time></trkpt>
<trkpt lat="39.542031" lon="3.264466"><ele>70.31</ele><time>2012-09-29T11:45:32Z</time></trkpt>
<trkpt lat="39.542431" lon="3.264248"><ele>71.76</ele><time>2012-09-29T11:45:41Z</time></trkpt>
<trkpt lat="39.542615" lon="3.264138"><ele>72.24</ele><time>2012-09-29T11:45:48Z</time></trkpt>
<trkpt lat="39.542972" lon="3.263945"><ele>73.20</ele><time>2012-09-29T11:45:58Z</time></trkpt>
<trkpt lat="39.543366" lon="3.263749"><ele>76.08</ele><time>2012-09-29T11:46:09Z</time></trkpt>
<trkpt lat="39.543637" lon="3.263720"><ele>78.00</ele><time>2012-09-29T11:46:17Z</time></trkpt>
<trkpt lat="39.543849" lon="3.263634"><ele>78.97</ele><time>2012-09-29T11:46:24Z</time></trkpt>
<trkpt lat="39.543848" lon="3.263373"><ele>78.48</ele><time>2012-09-29T11:46:29Z</time></trkpt>
<trkpt lat="39.543781" lon="3.262936"><ele>79.45</ele><time>2012-09-29T11:46:38Z</time></trkpt>
<trkpt lat="39.543725" lon="3.262540"><ele>82.33</ele><time>2012-09-29T11:46:49Z</time></trkpt>
<trkpt lat="39.543655" lon="3.262110"><ele>84.73</ele><time>2012-09-29T11:47:02Z</time></trkpt>
<trkpt lat="39.543607" lon="3.261748"><ele>85.21</ele><time>2012-09-29T11:47:13Z</time></trkpt>
<trkpt lat="39.543569" lon="3.261481"><ele>88.10</ele><time>2012-09-29T11:47:23Z</time></trkpt>
<trkpt lat="39.543533" lon="3.261221"><ele>90.02</ele><time>2012-09-29T11:47:34Z</time></trkpt>
<trkpt lat="39.543521" lon="3.261113"><ele>92.42</ele><time>2012-09-29T11:47:39Z</time></trkpt>
<trkpt lat="39.543481" lon="3.260853"><ele>94.83</ele><time>2012-09-29T11:47:52Z</time></trkpt>
<trkpt lat="39.543458" lon="3.260719"><ele>96.27</ele><time>2012-09-29T11:47:59Z</time></trkpt>
<trkpt lat="39.543470" lon="3.260677"><ele>96.27</ele><time>2012-09-29T11:48:05Z</time></trkpt>
<trkpt lat="39.543466" lon="3.260666"><ele>96.75</ele><time>2012-09-29T11:48:17Z</time></trkpt>
<trkpt lat="39.543466" lon="3.260656"><ele>96.75</ele><time>2012-09-29T11:48:18Z</time></trkpt>
<trkpt lat="39.543470" lon="3.260594"><ele>97.23</ele><time>2012-09-29T11:48:23Z</time></trkpt>
<trkpt lat="39.543500" lon="3.260493"><ele>98.67</ele><time>2012-09-29T11:48:32Z</time></trkpt>
<trkpt lat="39.543500" lon="3.260471"><ele>99.15</ele><time>2012-09-29T11:48:38Z</time></trkpt>
<trkpt lat="39.543578" lon="3.260223"><ele>102.04</ele><time>2012-09-29T11:48:51Z</time></trkpt>
<trkpt lat="39.543629" lon="3.260054"><ele>103.48</ele><time>2012-09-29T11:48:59Z</time></trkpt>
<trkpt lat="39.543649" lon="3.259939"><ele>104.44</ele><time>2012-09-29T11:49:04Z</time></trkpt>
<trkpt lat="39.543676" lon="3.259885"><ele>105.40</ele><time>2012-09-29T11:49:08Z</time></trkpt>
<trkpt lat="39.543748" lon="3.259673"><ele>107.32</ele><time>2012-09-29T11:49:19Z</time></trkpt>
<trkpt lat="39.543809" lon="3.259420"><ele>108.77</ele><time>2012-09-29T11:49:31Z</time></trkpt>
<trkpt lat="39.543822" lon="3.259377"><ele>108.77</ele><time>2012-09-29T11:49:36Z</time></trkpt>
<trkpt lat="39.543813" lon="3.259353"><ele>108.77</ele><time>2012-09-29T11:49:53Z</time></trkpt>
<trkpt lat="39.543821" lon="3.259312"><ele>109.25</ele><time>2012-09-29T11:50:02Z</time></trkpt>
<trkpt lat="39.543818" lon="3.259267"><ele>109.25</ele><time>2012-09-29T11:50:09Z</time></trkpt>
<trkpt lat="39.543840" lon="3.259247"><ele>109.73</ele><time>2012-09-29T11:50:22Z</time></trkpt>
<trkpt lat="39.543864" lon="3.259122"><ele>109.73</ele><time>2012-09-29T11:50:30Z</time></trkpt>
<trkpt lat="39.543986" lon="3.258848"><ele>111.17</ele><time>2012-09-29T11:50:40Z</time></trkpt>
<trkpt lat="39.544114" lon="3.258566"><ele>113.09</ele><time>2012-09-29T11:50:51Z</time></trkpt>
<trkpt lat="39.544221" lon="3.258279"><ele>116.46</ele><time>2012-09-29T11:51:02Z</time></trkpt>
<trkpt lat="39.544329" lon="3.257809"><ele>117.90</ele><time>2012-09-29T11:51:18Z</time></trkpt>
<trkpt lat="39.544381" lon="3.257430"><ele>119.82</ele><time>2012-09-29T11:51:29Z</time></trkpt>
<trkpt lat="39.544379" lon="3.257080"><ele>121.74</ele><time>2012-09-29T11:51:39Z</time></trkpt>
<trkpt lat="39.544349" lon="3.257005"><ele>121.26</ele><time>2012-09-29T11:51:41Z</time></trkpt>
<trkpt lat="39.544280" lon="3.256954"><ele>119.82</ele><time>2012-09-29T11:51:43Z</time></trkpt>
<trkpt lat="39.544190" lon="3.256971"><ele>118.86</ele><time>2012-09-29T11:51:45Z</time></trkpt>
<trkpt lat="39.543943" lon="3.256829"><ele>116.94</ele><time>2012-09-29T11:51:51Z</time></trkpt>
<trkpt lat="39.543664" lon="3.256646"><ele>114.05</ele><time>2012-09-29T11:51:56Z</time></trkpt>
<trkpt lat="39.543250" lon="3.256408"><ele>110.69</ele><time>2012-09-29T11:52:03Z</time></trkpt>
<trkpt lat="39.543201" lon="3.256381"><ele>110.21</ele><time>2012-09-29T11:52:04Z</time></trkpt>
<trkpt lat="39.543119" lon="3.256339"><ele>109.25</ele><time>2012-09-29T11:52:08Z</time></trkpt>
<trkpt lat="39.543125" lon="3.256354"><ele>108.77</ele><time>2012-09-29T11:52:16Z</time></trkpt>
<trkpt lat="39.543128" lon="3.256349"><ele>109.25</ele><time>2012-09-29T11:52:25Z</time></trkpt>
<trkpt lat="39.543115" lon="3.256329"><ele>109.25</ele><time>2012-09-29T11:52:27Z</time></trkpt>
<trkpt lat="39.543103" lon="3.256279"><ele>108.29</ele><time>2012-09-29T11:52:33Z</time></trkpt>
<trkpt lat="39.543102" lon="3.256276"><ele>108.77</ele><time>2012-09-29T11:52:55Z</time></trkpt>
<trkpt lat="39.543152" lon="3.256140"><ele>108.29</ele><time>2012-09-29T11:53:01Z</time></trkpt>
<trkpt lat="39.543245" lon="3.255820"><ele>106.84</ele><time>2012-09-29T11:53:06Z</time></trkpt>
<trkpt lat="39.543324" lon="3.255583"><ele>104.92</ele><time>2012-09-29T11:53:09Z</time></trkpt>
<trkpt lat="39.543424" lon="3.255200"><ele>103.48</ele><time>2012-09-29T11:53:13Z</time></trkpt>
<trkpt lat="39.543475" lon="3.254998"><ele>102.52</ele><time>2012-09-29T11:53:15Z</time></trkpt>
<trkpt lat="39.543613" lon="3.254509"><ele>99.63</ele><time>2012-09-29T11:53:20Z</time></trkpt>
<trkpt lat="39.543785" lon="3.253958"><ele>96.27</ele><time>2012-09-29T11:53:26Z</time></trkpt>
<trkpt lat="39.544001" lon="3.253312"><ele>94.83</ele><time>2012-09-29T11:53:34Z</time></trkpt>
<trkpt lat="39.544061" lon="3.253152"><ele>95.31</ele><time>2012-09-29T11:53:36Z</time></trkpt>
<trkpt lat="39.544217" lon="3.252905"><ele>95.31</ele><time>2012-09-29T11:53:40Z</time></trkpt>
<trkpt lat="39.544520" lon="3.252806"><ele>93.39</ele><time>2012-09-29T11:53:47Z</time></trkpt>
<trkpt lat="39.544574" lon="3.252839"><ele>92.90</ele><time>2012-09-29T11:53:48Z</time></trkpt>
<trkpt lat="39.545048" lon="3.253182"><ele>89.06</ele><time>2012-09-29T11:53:55Z</time></trkpt>
<trkpt lat="39.545118" lon="3.253231"><ele>88.10</ele><time>2012-09-29T11:53:56Z</time></trkpt>
<trkpt lat="39.545394" lon="3.253234"><ele>86.66</ele><time>2012-09-29T11:54:00Z</time></trkpt>
<trkpt lat="39.545927" lon="3.252901"><ele>83.77</ele><time>2012-09-29T11:54:08Z</time></trkpt>
<trkpt lat="39.546372" lon="3.252610"><ele>80.89</ele><time>2012-09-29T11:54:14Z</time></trkpt>
<trkpt lat="39.547006" lon="3.252204"><ele>79.45</ele><time>2012-09-29T11:54:23Z</time></trkpt>
<trkpt lat="39.547543" lon="3.251856"><ele>79.93</ele><time>2012-09-29T11:54:32Z</time></trkpt>
<trkpt lat="39.547626" lon="3.251656"><ele>80.89</ele><time>2012-09-29T11:54:36Z</time></trkpt>
<trkpt lat="39.547601" lon="3.251621"><ele>80.89</ele><time>2012-09-29T11:54:37Z</time></trkpt>
<trkpt lat="39.547276" lon="3.251211"><ele>82.81</ele><time>2012-09-29T11:54:47Z</time></trkpt>
<trkpt lat="39.546914" lon="3.250716"><ele>84.73</ele><time>2012-09-29T11:54:59Z</time></trkpt>
<trkpt lat="39.546769" lon="3.250480"><ele>85.21</ele><time>2012-09-29T11:55:05Z</time></trkpt>
<trkpt lat="39.546812" lon="3.250284"><ele>85.69</ele><time>2012-09-29T11:55:09Z</time></trkpt>
<trkpt lat="39.547094" lon="3.249840"><ele>86.18</ele><time>2012-09-29T11:55:20Z</time></trkpt>
<trkpt lat="39.547119" lon="3.249795"><ele>86.18</ele><time>2012-09-29T11:55:21Z</time></trkpt>
<trkpt lat="39.547502" lon="3.249169"><ele>86.18</ele><time>2012-09-29T11:55:35Z</time></trkpt>
<trkpt lat="39.547837" lon="3.248535"><ele>86.66</ele><time>2012-09-29T11:55:48Z</time></trkpt>
<trkpt lat="39.548056" lon="3.247766"><ele>87.14</ele><time>2012-09-29T11:56:01Z</time></trkpt>
<trkpt lat="39.548246" lon="3.247029"><ele>89.54</ele><time>2012-09-29T11:56:14Z</time></trkpt>
<trkpt lat="39.548448" lon="3.246364"><ele>91.94</ele><time>2012-09-29T11:56:27Z</time></trkpt>
<trkpt lat="39.548603" lon="3.245909"><ele>95.31</ele><time>2012-09-29T11:56:37Z</time></trkpt>
<trkpt lat="39.548781" lon="3.245465"><ele>96.75</ele><time>2012-09-29T11:56:47Z</time></trkpt>
<trkpt lat="39.548934" lon="3.244931"><ele>99.15</ele><time>2012-09-29T11:56:58Z</time></trkpt>
<trkpt lat="39.549097" lon="3.244441"><ele>100.11</ele><time>2012-09-29T11:57:09Z</time></trkpt>
<trkpt lat="39.549111" lon="3.244394"><ele>99.63</ele><time>2012-09-29T11:57:10Z</time></trkpt>
<trkpt lat="39.549371" lon="3.243799"><ele>100.11</ele><time>2012-09-29T11:57:22Z</time></trkpt>
<trkpt lat="39.549680" lon="3.243166"><ele>100.60</ele><time>2012-09-29T11:57:35Z</time></trkpt>
<trkpt lat="39.549698" lon="3.243112"><ele>101.08</ele><time>2012-09-29T11:57:36Z</time></trkpt>
<trkpt lat="39.549763" lon="3.242609"><ele>101.56</ele><time>2012-09-29T11:57:45Z</time></trkpt>
<trkpt lat="39.549802" lon="3.242257"><ele>101.56</ele><time>2012-09-29T11:57:51Z</time></trkpt>
<trkpt lat="39.549855" lon="3.241601"><ele>103.48</ele><time>2012-09-29T11:58:03Z</time></trkpt>
<trkpt lat="39.549918" lon="3.240891"><ele>104.92</ele><time>2012-09-29T11:58:16Z</time></trkpt>
<trkpt lat="39.549838" lon="3.240635"><ele>103.00</ele><time>2012-09-29T11:58:20Z</time></trkpt>
<trkpt lat="39.549432" lon="3.239929"><ele>101.56</ele><time>2012-09-29T11:58:31Z</time></trkpt>
<trkpt lat="39.549219" lon="3.239576"><ele>102.52</ele><time>2012-09-29T11:58:38Z</time></trkpt>
<trkpt lat="39.548943" lon="3.239073"><ele>101.56</ele><time>2012-09-29T11:58:46Z</time></trkpt>
<trkpt lat="39.548750" lon="3.238755"><ele>103.96</ele><time>2012-09-29T11:58:53Z</time></trkpt>
<trkpt lat="39.548455" lon="3.238249"><ele>105.88</ele><time>2012-09-29T11:59:05Z</time></trkpt>
<trkpt lat="39.548291" lon="3.237952"><ele>108.29</ele><time>2012-09-29T11:59:14Z</time></trkpt>
<trkpt lat="39.548225" lon="3.237777"><ele>109.25</ele><time>2012-09-29T11:59:19Z</time></trkpt>
<trkpt lat="39.548348" lon="3.237605"><ele>109.25</ele><time>2012-09-29T11:59:25Z</time></trkpt>
<trkpt lat="39.548659" lon="3.237315"><ele>108.29</ele><time>2012-09-29T11:59:35Z</time></trkpt>
<trkpt lat="39.549060" lon="3.236933"><ele>107.81</ele><time>2012-09-29T11:59:45Z</time></trkpt>
<trkpt lat="39.549642" lon="3.236396"><ele>106.36</ele><time>2012-09-29T11:59:58Z</time></trkpt>
<trkpt lat="39.550135" lon="3.235917"><ele>106.84</ele><time>2012-09-29T12:00:09Z</time></trkpt>
<trkpt lat="39.550587" lon="3.235486"><ele>106.84</ele><time>2012-09-29T12:00:19Z</time></trkpt>
<trkpt lat="39.551180" lon="3.234924"><ele>107.32</ele><time>2012-09-29T12:00:33Z</time></trkpt>
<trkpt lat="39.551212" lon="3.234714"><ele>106.84</ele><time>2012-09-29T12:00:37Z</time></trkpt>
<trkpt lat="39.551188" lon="3.234657"><ele>107.32</ele><time>2012-09-29T12:00:38Z</time></trkpt>
<trkpt lat="39.551137" lon="3.234551"><ele>107.32</ele><time>2012-09-29T12:00:40Z</time></trkpt>
<trkpt lat="39.551175" lon="3.234354"><ele>107.32</ele><time>2012-09-29T12:00:44Z</time></trkpt>
<trkpt lat="39.551360" lon="3.234219"><ele>107.81</ele><time>2012-09-29T12:00:52Z</time></trkpt>
<trkpt lat="39.551574" lon="3.234109"><ele>108.29</ele><time>2012-09-29T12:01:00Z</time></trkpt>
<trkpt lat="39.551792" lon="3.234077"><ele>109.25</ele><time>2012-09-29T12:01:09Z</time></trkpt>
<trkpt lat="39.551952" lon="3.234084"><ele>109.25</ele><time>2012-09-29T12:01:14Z</time></trkpt>
<trkpt lat="39.552184" lon="3.233958"><ele>107.81</ele><time>2012-09-29T12:01:19Z</time></trkpt>
<trkpt lat="39.552639" lon="3.233509"><ele>108.29</ele><time>2012-09-29T12:01:30Z</time></trkpt>
<trkpt lat="39.552903" lon="3.233253"><ele>110.69</ele><time>2012-09-29T12:01:39Z</time></trkpt>
<trkpt lat="39.553229" lon="3.232965"><ele>112.13</ele><time>2012-09-29T12:01:50Z</time></trkpt>
<trkpt lat="39.553605" lon="3.232625"><ele>113.57</ele><time>2012-09-29T12:02:02Z</time></trkpt>
<trkpt lat="39.553822" lon="3.232322"><ele>113.57</ele><time>2012-09-29T12:02:10Z</time></trkpt>
<trkpt lat="39.554065" lon="3.231936"><ele>111.17</ele><time>2012-09-29T12:02:19Z</time></trkpt>
<trkpt lat="39.554370" lon="3.231438"><ele>109.73</ele><time>2012-09-29T12:02:27Z</time></trkpt>
<trkpt lat="39.554557" lon="3.231132"><ele>106.84</ele><time>2012-09-29T12:02:31Z</time></trkpt>
<trkpt lat="39.554955" lon="3.230416"><ele>104.92</ele><time>2012-09-29T12:02:40Z</time></trkpt>
<trkpt lat="39.555344" lon="3.229677"><ele>103.48</ele><time>2012-09-29T12:02:51Z</time></trkpt>
<trkpt lat="39.555600" lon="3.229195"><ele>103.96</ele><time>2012-09-29T12:03:00Z</time></trkpt>
<trkpt lat="39.555855" lon="3.228698"><ele>105.88</ele><time>2012-09-29T12:03:11Z</time></trkpt>
<trkpt lat="39.556086" lon="3.228241"><ele>106.84</ele><time>2012-09-29T12:03:21Z</time></trkpt>
<trkpt lat="39.556344" lon="3.227736"><ele>107.81</ele><time>2012-09-29T12:03:32Z</time></trkpt>
<trkpt lat="39.556592" lon="3.227284"><ele>109.73</ele><time>2012-09-29T12:03:43Z</time></trkpt>
<trkpt lat="39.556648" lon="3.227187"><ele>110.69</ele><time>2012-09-29T12:03:45Z</time></trkpt>
<trkpt lat="39.556945" lon="3.226640"><ele>108.77</ele><time>2012-09-29T12:03:56Z</time></trkpt>
<trkpt lat="39.557255" lon="3.226097"><ele>106.36</ele><time>2012-09-29T12:04:05Z</time></trkpt>
<trkpt lat="39.557509" lon="3.225640"><ele>103.00</ele><time>2012-09-29T12:04:11Z</time></trkpt>
<trkpt lat="39.557668" lon="3.225376"><ele>101.56</ele><time>2012-09-29T12:04:14Z</time></trkpt>
<trkpt lat="39.558072" lon="3.224716"><ele>98.19</ele><time>2012-09-29T12:04:21Z</time></trkpt>
<trkpt lat="39.558513" lon="3.224024"><ele>95.79</ele><time>2012-09-29T12:04:30Z</time></trkpt>
<trkpt lat="39.558987" lon="3.223275"><ele>96.27</ele><time>2012-09-29T12:04:42Z</time></trkpt>
<trkpt lat="39.559202" lon="3.222931"><ele>98.19</ele><time>2012-09-29T12:04:50Z</time></trkpt>
<trkpt lat="39.559397" lon="3.222610"><ele>100.60</ele><time>2012-09-29T12:04:58Z</time></trkpt>
<trkpt lat="39.559484" lon="3.222475"><ele>101.08</ele><time>2012-09-29T12:05:01Z</time></trkpt>
<trkpt lat="39.559693" lon="3.221974"><ele>103.00</ele><time>2012-09-29T12:05:11Z</time></trkpt>
<trkpt lat="39.559843" lon="3.221611"><ele>102.52</ele><time>2012-09-29T12:05:18Z</time></trkpt>
<trkpt lat="39.560000" lon="3.221250"><ele>100.11</ele><time>2012-09-29T12:05:24Z</time></trkpt>
<trkpt lat="39.560165" lon="3.220951"><ele>98.19</ele><time>2012-09-29T12:05:28Z</time></trkpt>
<trkpt lat="39.560547" lon="3.220523"><ele>95.31</ele><time>2012-09-29T12:05:34Z</time></trkpt>
<trkpt lat="39.560958" lon="3.220149"><ele>91.94</ele><time>2012-09-29T12:05:39Z</time></trkpt>
<trkpt lat="39.561583" lon="3.219549"><ele>88.58</ele><time>2012-09-29T12:05:46Z</time></trkpt>
<trkpt lat="39.561967" lon="3.219112"><ele>85.21</ele><time>2012-09-29T12:05:51Z</time></trkpt>
<trkpt lat="39.562373" lon="3.218653"><ele>84.25</ele><time>2012-09-29T12:05:57Z</time></trkpt>
<trkpt lat="39.562653" lon="3.218564"><ele>85.21</ele><time>2012-09-29T12:06:01Z</time></trkpt>
<trkpt lat="39.562723" lon="3.218568"><ele>84.73</ele><time>2012-09-29T12:06:02Z</time></trkpt>
<trkpt lat="39.563145" lon="3.218632"><ele>83.29</ele><time>2012-09-29T12:06:09Z</time></trkpt>
<trkpt lat="39.563419" lon="3.218470"><ele>82.33</ele><time>2012-09-29T12:06:14Z</time></trkpt>
<trkpt lat="39.563880" lon="3.217892"><ele>79.45</ele><time>2012-09-29T12:06:25Z</time></trkpt>
<trkpt lat="39.563939" lon="3.217802"><ele>78.97</ele><time>2012-09-29T12:06:27Z</time></trkpt>
<trkpt lat="39.564127" lon="3.217516"><ele>78.97</ele><time>2012-09-29T12:06:34Z</time></trkpt>
<trkpt lat="39.564238" lon="3.217557"><ele>79.45</ele><time>2012-09-29T12:06:38Z</time></trkpt>
<trkpt lat="39.564345" lon="3.217801"><ele>80.41</ele><time>2012-09-29T12:06:46Z</time></trkpt>
<trkpt lat="39.564399" lon="3.217816"><ele>79.93</ele><time>2012-09-29T12:06:52Z</time></trkpt>
<trkpt lat="39.564387" lon="3.217824"><ele>80.89</ele><time>2012-09-29T12:09:18Z</time></trkpt>
<trkpt lat="39.564366" lon="3.217802"><ele>81.37</ele><time>2012-09-29T12:09:20Z</time></trkpt>
</trkseg></trk></gpx>